[[{"header":{"parameterUnit":"m.s-1","parameterCategory":1,"la1":31.0,"la2":29.5877,"lo1":-88.7671,"lo2":-86.6584,"dy":0.0162,"dx":0.0185,"nx":115,"ny":88,"refTime":"2024-05-19T06:00:00:Z","depth":0,"parameterNumber":2,"parameterNumberName":"U-component_of_WINDS"},"data":[0.0,0.0,0.0,0.0,0.0,0.0,0.0,0.0,0.0,0.0,0.0,0.0,0.0,0.0,0.0,0.0,0.0,0.0,0.0,0.0,0.0,0.0,0.0,0.0,0.0,0.0,0.0,0.0,0.0,0.0,0.0,0.0,0.0,0.0,0.0,0.0,0.0,0.0,0.0,0.0,0.0,0.0,0.0,0.0,0.0,0.0,0.0,0.0,0.0,0.0,0.0,0.0,0.0,0.0,0.0,0.0,0.0,0.0,0.0,0.0,0.0,0.0,0.0,0.0,0.0,0.0,0.0,0.0,0.0,0.0,0.0,0.0,0.0,0.0,0.0,0.0,0.0,0.0,0.0,0.0,0.0,0.0,0.0,0.0,0.0,0.0,0.0,0.0,0.0,0.0,0.0,0.0,0.0,0.0,0.0,0.0,0.0,0.0,0.0,0.0,0.0,0.0,0.0,0.0,0.0,0.0,0.0,0.0,0.0,0.0,0.0,0.0,0.0,0.0,0.0,0.0,0.0,0.0,0.0,0.0,0.0,0.0,0.0,0.0,0.0,0.0,0.0,0.0,0.0,0.0,0.0,0.0,0.0,0.0,0.0,0.0,0.0,0.0,0.0,0.0,0.0,0.0,0.0,0.0,0.0,0.0,0.0,0.0,0.0,0.0,0.0,0.0,0.0,0.0,0.0,0.0,0.0,0.0,0.0,0.0,0.0,0.0,0.0,0.0,0.0,0.0,0.0,0.0,0.0,0.0,0.0,0.0,0.0,0.0,0.0,0.0,0.0,0.0,0.0,0.0,0.0,0.0,0.0,0.0,0.0,0.0,0.0,0.0,0.0,0.0,0.0,0.0,0.0,0.0,0.0,0.0,0.0,0.0,0.0,0.0,0.0,0.0,0.0,0.0,0.0,0.0,0.0,0.0,0.0,0.0,0.0,0.0,0.0,0.0,0.0,0.0,0.0,0.0,0.0,0.0,0.0,0.0,0.0,0.0,0.0,0.0,0.0,0.0,0.0,0.0,0.0,0.0,0.0,0.0,0.0,0.0,0.0,0.0,0.0,0.0,0.0,0.0,0.0,0.0,0.0,0.0,0.0,0.0,0.0,0.0,0.0,0.0,0.0,0.0,0.0,0.0,0.0,0.0,0.0,0.0,0.0,0.0,0.0,0.0,0.0,0.0,0.0,0.0,0.0,0.0,0.0,0.0,0.0,0.0,0.0,0.0,0.0,0.0,0.0,0.0,0.0,0.0,0.0,0.0,0.0,0.0,0.0,0.0,0.0,0.0,0.0,0.0,0.0,0.0,0.0,0.0,0.0,0.0,0.0,0.0,0.0,0.0,0.0,0.0,0.0,0.0,0.0,0.0,0.0,0.0,0.0,0.0,0.0,0.0,0.0,0.0,0.0,0.0,0.0,0.0,0.0,0.0,0.0,0.0,0.0,0.0,0.0,0.0,0.0,0.0,0.0,0.0,0.0,0.0,0.0,0.0,0.0,0.0,0.0,0.0,0.0,0.0,0.0,0.0,0.0,0.0,0.0,0.0,0.0,0.0,0.0,0.0,0.0,0.0,0.0,0.0,0.0,0.0,0.0,0.0,0.0,0.0,0.0,0.0,0.0,0.0,0.0,0.0,0.0,0.0,0.0,0.0,0.0,0.0,0.0,0.0,0.0,0.0,0.0,0.0,0.0,0.0,0.0,0.0,0.0,0.0,0.0,0.0,0.0,0.0,0.0,0.0,0.0,0.0,0.0,0.0,0.0,0.0,0.0,0.0,0.0,0.0,0.0,0.0,0.0,0.0,0.0,0.0,0.0,0.0,0.0,0.0,0.0,0.0,0.0,0.0,0.0,0.0,0.0,0.0,0.0,0.0,0.0,0.0,0.0,0.0,0.0,0.0,0.0,0.0,0.0,0.0,0.0,0.0,0.0,0.0,0.0,0.0,0.0,0.0,0.0,0.0,0.0,0.0,0.0,0.0,0.0,0.0,0.0,0.0,0.0,0.0,0.0,0.0,0.0,0.0,0.0,0.0,0.0,0.0,0.0,0.0,0.0,0.0,0.0,0.0,0.0,0.0,0.0,0.0,0.0,0.0,0.0,0.0,0.0,0.0,0.0,0.0,0.0,0.0,0.0,0.0,0.0,0.0,0.0,0.0,0.0,0.0,0.0,0.0,0.0,0.0,0.0,0.0,0.0,0.0,0.0,0.0,0.0,0.0,0.0,0.0,0.0,0.0,0.0,0.0,0.0,0.0,0.0,0.0,0.0,0.0,0.0,0.0,0.0,0.0,0.0,0.0,0.0,0.0,0.0,0.0,0.0,0.0,0.0,0.0,0.0,0.0,0.0,0.0,0.0,0.0,0.0,0.0,0.0,0.0,0.0,0.0,0.0,0.0,0.0,0.0,0.0,0.0,0.0,0.0,0.0,0.0,0.0,0.0,0.0,0.0,0.0,0.0,0.0,0.0,0.0,0.0,0.0,0.0,0.0,0.0,0.0,0.0,0.0,0.0,0.0,0.0,0.0,0.0,0.0,0.0,0.0,0.0,0.0,0.0,0.0,0.0,0.0,0.0,0.0,0.0,0.0,0.0,0.0,0.0,0.0,0.0,0.0,0.0,0.0,0.0,0.0,0.0,0.0,0.0,0.0,0.0,0.0,0.0,0.0,0.0,0.0,0.0,0.0,0.0,0.0,0.0,0.0,0.0,0.0,0.0,0.0,0.0,0.0,0.0,0.0,0.0,0.0,0.0,0.0,0.0,0.0,0.0,0.0,0.0,0.0,0.0,0.0,0.0,0.0,0.0,0.0,0.0,0.0,0.0,0.0,0.0,0.0,0.0,0.0,0.0,0.0,0.0,0.0,0.0,0.0,0.0,0.0,0.0,0.0,0.0,0.0,0.0,0.0,0.0,0.0,0.0,0.0,0.0,0.0,0.0,0.0,0.0,0.0,0.0,0.0,0.0,0.0,0.0,0.0,0.0,0.0,0.0,0.0,0.0,0.0,0.0,0.0,0.0,0.0,0.0,0.0,0.0,0.0,0.0,0.0,0.0,0.0,0.0,0.0,0.0,0.0,0.0,0.0,0.0,0.0,0.0,0.0,0.0,0.0,0.0,0.0,0.0,0.0,0.0,0.0,0.0,0.0,0.0,0.0,0.0,0.0,0.0,0.0,0.0,0.0,0.0,0.0,0.0,0.0,0.0,0.0,0.0,0.0,0.0,0.0,0.0,0.0,0.0,0.0,0.0,0.0,0.0,0.0,0.0,0.0,0.0,0.0,0.0,0.0,0.0,0.0,0.0,0.0,0.0,0.0,0.0,0.0,0.0,0.0,0.0,0.0,0.0,0.0,0.0,0.0,0.0,0.0,0.0,0.0,0.0,0.0,0.0,0.0,0.0,0.0,0.0,0.0,0.0,0.0,0.0,0.0,0.0,0.0,0.0,0.0,0.0,0.0,0.0,0.0,0.0,0.0,0.0,0.0,0.0,0.0,0.0,0.0,0.0,0.0,0.0,0.0,0.0,0.0,0.0,0.0,0.0,0.0,0.0,0.0,0.0,0.0,0.0,0.0,0.0,0.0,0.0,0.0,0.0,0.0,0.0,0.0,0.0,0.0,0.0,0.0,0.0,0.0,0.0,0.0,0.0,0.0,0.0,0.0,0.0,0.0,0.0,0.0,0.0,0.0,0.0,0.0,0.0,0.0,0.0,0.0,0.0,0.0,0.0,0.0,0.0,0.0,0.0,0.0,0.0,0.0,0.0,0.0,0.0,0.0,0.0,0.0,0.0,0.0,0.0,0.0,0.0,0.0,0.0,0.0,0.0,0.0,0.0,0.0,0.0,0.0,0.0,0.0,0.0,0.0,0.0,0.0,0.0,0.0,0.0,0.0,0.0,0.0,0.0,0.0,0.0,0.0,0.0,0.0,0.0,0.0,0.0,0.0,0.0,0.0,0.0,0.0,0.0,0.0,0.0,0.0,0.0,0.0,0.0,0.0,0.0,0.0,0.0,0.0,0.0,0.0,0.0,0.0,0.0,0.0,0.0,0.0,0.0,0.0,0.0,0.0,0.0,0.0,0.0,0.0,0.0,0.0,0.0,0.0,0.0,0.0,0.0,0.0,0.0,0.0,0.0,0.0,0.0,0.0,0.0,0.0,0.0,0.0,0.0,0.0,0.0,0.0,0.0,0.0,0.0,0.0,0.0,0.0,0.0,0.0,0.0,0.0,0.0,0.0,0.0,0.0,0.0,0.0,0.0,0.0,0.0,0.0,0.0,0.0,0.0,-3.0385,0.0,0.0,0.0,0.0,0.0,0.0,0.0,0.0,0.0,0.0,0.0,0.0,0.0,0.0,0.0,0.0,0.0,0.0,0.0,0.0,0.0,0.0,0.0,0.0,0.0,0.0,0.0,0.0,0.0,0.0,0.0,0.0,0.0,0.0,0.0,0.0,0.0,0.0,0.0,0.0,0.0,0.0,0.0,0.0,0.0,0.0,0.0,0.0,0.0,0.0,0.0,0.0,0.0,0.0,0.0,0.0,0.0,0.0,0.0,0.0,0.0,0.0,0.0,0.0,0.0,0.0,0.0,0.0,0.0,0.0,0.0,0.0,0.0,0.0,0.0,0.0,0.0,0.0,0.0,0.0,0.0,0.0,0.0,0.0,0.0,0.0,0.0,0.0,0.0,0.0,0.0,0.0,0.0,0.0,0.0,0.0,0.0,0.0,0.0,0.0,0.0,0.0,0.0,0.0,0.0,0.0,0.0,0.0,0.0,0.0,-3.0404,-3.0404,-3.0404,-3.0404,-3.0404,0.0,0.0,0.0,0.0,0.0,0.0,0.0,0.0,0.0,0.0,0.0,0.0,0.0,0.0,0.0,0.0,0.0,0.0,0.0,0.0,0.0,0.0,0.0,0.0,0.0,0.0,0.0,0.0,0.0,0.0,0.0,0.0,0.0,0.0,0.0,0.0,0.0,0.0,0.0,0.0,0.0,0.0,0.0,0.0,0.0,0.0,0.0,0.0,0.0,0.0,0.0,0.0,0.0,0.0,0.0,0.0,0.0,0.0,0.0,0.0,0.0,0.0,0.0,0.0,0.0,0.0,0.0,0.0,0.0,0.0,0.0,0.0,0.0,0.0,0.0,0.0,0.0,0.0,0.0,0.0,0.0,0.0,0.0,0.0,0.0,0.0,0.0,0.0,0.0,0.0,0.0,0.0,0.0,0.0,0.0,0.0,0.0,0.0,0.0,0.0,0.0,0.0,0.0,0.0,0.0,0.0,0.0,0.0,0.0,0.0,0.0,0.0,-3.1269,-3.1154,-3.0962,0.0,0.0,0.0,0.0,0.0,0.0,0.0,0.0,0.0,0.0,0.0,0.0,0.0,0.0,0.0,0.0,0.0,0.0,0.0,0.0,0.0,0.0,0.0,0.0,0.0,0.0,0.0,0.0,0.0,0.0,0.0,0.0,0.0,0.0,0.0,0.0,0.0,0.0,0.0,0.0,0.0,0.0,0.0,0.0,0.0,0.0,0.0,0.0,0.0,0.0,0.0,0.0,0.0,0.0,0.0,0.0,0.0,0.0,0.0,0.0,0.0,0.0,0.0,0.0,0.0,0.0,0.0,0.0,0.0,0.0,0.0,0.0,0.0,0.0,0.0,0.0,0.0,0.0,0.0,0.0,0.0,0.0,0.0,0.0,0.0,0.0,0.0,0.0,0.0,0.0,0.0,0.0,0.0,0.0,0.0,0.0,0.0,0.0,0.0,0.0,0.0,0.0,0.0,0.0,0.0,0.0,0.0,0.0,0.0,0.0,-3.15,-3.3776,-3.384,0.0,-3.2699,0.0,0.0,0.0,0.0,0.0,0.0,0.0,0.0,0.0,0.0,0.0,0.0,0.0,0.0,0.0,0.0,0.0,0.0,0.0,0.0,0.0,0.0,0.0,0.0,0.0,0.0,0.0,0.0,0.0,0.0,0.0,0.0,0.0,0.0,0.0,0.0,0.0,0.0,0.0,0.0,0.0,0.0,0.0,0.0,0.0,0.0,0.0,0.0,0.0,0.0,0.0,0.0,0.0,0.0,0.0,0.0,0.0,0.0,0.0,0.0,0.0,0.0,0.0,0.0,0.0,0.0,0.0,0.0,0.0,0.0,0.0,0.0,0.0,0.0,0.0,0.0,0.0,0.0,0.0,0.0,0.0,0.0,0.0,0.0,0.0,0.0,0.0,0.0,0.0,0.0,0.0,0.0,0.0,0.0,0.0,0.0,0.0,0.0,0.0,0.0,0.0,0.0,0.0,0.0,0.0,0.0,0.0,0.0,0.0,0.0,0.0,-3.416,-3.4205,-3.3551,0.0,0.0,0.0,0.0,0.0,0.0,0.0,0.0,0.0,0.0,0.0,0.0,0.0,0.0,0.0,0.0,0.0,0.0,0.0,0.0,0.0,0.0,0.0,0.0,0.0,0.0,0.0,0.0,0.0,0.0,0.0,0.0,0.0,0.0,0.0,0.0,0.0,0.0,0.0,0.0,0.0,0.0,0.0,0.0,0.0,0.0,0.0,0.0,0.0,0.0,0.0,0.0,0.0,0.0,0.0,0.0,0.0,0.0,0.0,0.0,0.0,0.0,0.0,0.0,0.0,0.0,0.0,0.0,0.0,0.0,0.0,0.0,0.0,0.0,0.0,0.0,0.0,0.0,0.0,0.0,0.0,0.0,0.0,0.0,0.0,0.0,0.0,0.0,0.0,0.0,0.0,0.0,0.0,0.0,0.0,0.0,0.0,0.0,0.0,0.0,0.0,0.0,0.0,0.0,0.0,0.0,0.0,0.0,0.0,0.0,-3.3596,0.0,-3.5187,-3.4788,-3.3628,-3.1744,0.0,0.0,0.0,0.0,0.0,0.0,0.0,0.0,0.0,0.0,0.0,0.0,0.0,0.0,0.0,0.0,0.0,0.0,0.0,0.0,0.0,0.0,0.0,0.0,0.0,0.0,0.0,0.0,0.0,0.0,0.0,0.0,0.0,0.0,0.0,0.0,0.0,0.0,0.0,0.0,0.0,0.0,0.0,0.0,0.0,0.0,0.0,0.0,0.0,0.0,0.0,0.0,0.0,0.0,0.0,0.0,0.0,0.0,0.0,0.0,0.0,0.0,0.0,0.0,0.0,0.0,0.0,0.0,0.0,0.0,0.0,0.0,0.0,0.0,0.0,0.0,0.0,0.0,0.0,0.0,0.0,0.0,0.0,0.0,0.0,0.0,0.0,0.0,0.0,0.0,0.0,0.0,0.0,0.0,0.0,0.0,0.0,0.0,0.0,0.0,0.0,0.0,0.0,0.0,0.0,0.0,0.0,0.0,0.0,-3.5315,-3.536,-3.7661,-3.6202,-3.4164,0.0,0.0,0.0,0.0,0.0,0.0,0.0,0.0,0.0,0.0,0.0,0.0,0.0,0.0,0.0,0.0,0.0,0.0,0.0,0.0,0.0,0.0,0.0,0.0,0.0,0.0,0.0,0.0,0.0,0.0,0.0,0.0,0.0,0.0,0.0,0.0,0.0,0.0,0.0,0.0,0.0,0.0,0.0,0.0,0.0,0.0,0.0,0.0,0.0,0.0,0.0,0.0,0.0,0.0,0.0,0.0,0.0,0.0,0.0,0.0,0.0,0.0,0.0,0.0,0.0,0.0,0.0,0.0,0.0,0.0,0.0,0.0,0.0,0.0,0.0,0.0,0.0,0.0,0.0,0.0,0.0,0.0,0.0,0.0,0.0,0.0,0.0,0.0,0.0,0.0,0.0,0.0,0.0,0.0,0.0,0.0,0.0,0.0,0.0,0.0,0.0,0.0,0.0,0.0,0.0,0.0,0.0,0.0,0.0,-3.2263,-3.2974,-3.5121,-3.8546,-3.5568,-3.3364,0.0,0.0,0.0,0.0,0.0,0.0,0.0,0.0,0.0,0.0,0.0,0.0,0.0,0.0,0.0,0.0,0.0,0.0,0.0,0.0,0.0,0.0,0.0,0.0,0.0,0.0,0.0,0.0,0.0,0.0,0.0,0.0,0.0,0.0,0.0,0.0,0.0,0.0,0.0,0.0,0.0,0.0,0.0,0.0,0.0,0.0,0.0,0.0,0.0,0.0,0.0,0.0,0.0,0.0,0.0,0.0,0.0,0.0,0.0,0.0,0.0,0.0,0.0,0.0,0.0,0.0,0.0,0.0,0.0,0.0,0.0,0.0,0.0,0.0,0.0,0.0,0.0,0.0,0.0,0.0,0.0,0.0,0.0,0.0,0.0,0.0,0.0,0.0,0.0,0.0,0.0,0.0,0.0,0.0,0.0,0.0,0.0,0.0,0.0,0.0,0.0,0.0,0.0,0.0,0.0,0.0,0.0,0.0,0.0,-3.1552,0.0,-3.595,0.0,-3.4957,-3.2498,0.0,0.0,0.0,0.0,0.0,0.0,0.0,0.0,0.0,0.0,0.0,0.0,0.0,0.0,0.0,0.0,0.0,0.0,0.0,0.0,0.0,0.0,0.0,0.0,0.0,0.0,0.0,0.0,0.0,0.0,0.0,0.0,0.0,0.0,0.0,0.0,0.0,0.0,0.0,0.0,0.0,0.0,0.0,0.0,0.0,0.0,0.0,0.0,0.0,0.0,0.0,0.0,0.0,0.0,0.0,0.0,0.0,0.0,0.0,0.0,0.0,0.0,0.0,0.0,0.0,0.0,0.0,0.0,0.0,0.0,0.0,0.0,0.0,0.0,0.0,0.0,0.0,0.0,0.0,0.0,0.0,0.0,0.0,0.0,0.0,0.0,0.0,0.0,0.0,0.0,0.0,0.0,0.0,0.0,0.0,0.0,0.0,0.0,0.0,0.0,0.0,0.0,0.0,0.0,0.0,0.0,0.0,0.0,-3.2363,-3.6293,-3.798,-3.7739,-3.5561,-3.4492,-3.1668,0.0,0.0,0.0,0.0,0.0,0.0,0.0,0.0,0.0,0.0,0.0,0.0,0.0,0.0,0.0,0.0,0.0,0.0,0.0,0.0,0.0,0.0,0.0,0.0,0.0,0.0,0.0,0.0,0.0,0.0,0.0,0.0,0.0,0.0,0.0,0.0,0.0,0.0,0.0,0.0,0.0,0.0,0.0,0.0,0.0,0.0,0.0,0.0,0.0,0.0,0.0,0.0,0.0,0.0,0.0,0.0,0.0,0.0,0.0,0.0,0.0,0.0,0.0,0.0,0.0,0.0,0.0,0.0,0.0,0.0,0.0,0.0,0.0,0.0,0.0,0.0,0.0,0.0,0.0,0.0,0.0,0.0,0.0,0.0,0.0,0.0,0.0,0.0,0.0,0.0,0.0,0.0,0.0,0.0,0.0,0.0,0.0,0.0,0.0,0.0,0.0,0.0,0.0,0.0,0.0,0.0,0.0,0.0,0.0,-3.4012,-3.5596,-3.6956,-3.7781,-3.4304,-3.2144,0.0,0.0,0.0,0.0,0.0,0.0,0.0,0.0,0.0,0.0,0.0,0.0,0.0,0.0,0.0,0.0,0.0,0.0,0.0,0.0,0.0,0.0,0.0,0.0,0.0,0.0,0.0,0.0,0.0,0.0,0.0,0.0,0.0,0.0,0.0,0.0,0.0,0.0,0.0,0.0,0.0,0.0,0.0,0.0,0.0,0.0,0.0,0.0,0.0,0.0,0.0,0.0,0.0,0.0,0.0,0.0,0.0,0.0,0.0,0.0,0.0,0.0,0.0,0.0,0.0,0.0,0.0,0.0,0.0,0.0,0.0,0.0,0.0,0.0,0.0,0.0,0.0,0.0,0.0,0.0,0.0,0.0,0.0,0.0,0.0,0.0,0.0,0.0,0.0,0.0,0.0,0.0,0.0,0.0,0.0,0.0,0.0,0.0,0.0,0.0,0.0,0.0,0.0,0.0,0.0,0.0,0.0,0.0,0.0,-3.552,-3.7179,-3.8227,-3.8574,-3.4906,-3.2812,-3.2503,0.0,0.0,0.0,0.0,0.0,0.0,0.0,0.0,0.0,0.0,0.0,0.0,0.0,0.0,0.0,0.0,0.0,0.0,0.0,0.0,0.0,0.0,0.0,0.0,0.0,0.0,0.0,0.0,0.0,0.0,0.0,0.0,0.0,0.0,0.0,0.0,0.0,0.0,0.0,0.0,0.0,0.0,0.0,0.0,0.0,0.0,0.0,0.0,0.0,0.0,0.0,0.0,0.0,0.0,0.0,0.0,0.0,0.0,0.0,0.0,0.0,0.0,0.0,0.0,0.0,0.0,0.0,0.0,0.0,0.0,0.0,0.0,0.0,0.0,0.0,0.0,0.0,0.0,0.0,0.0,0.0,0.0,0.0,0.0,0.0,0.0,0.0,0.0,0.0,0.0,0.0,0.0,0.0,0.0,0.0,0.0,0.0,0.0,0.0,0.0,0.0,0.0,0.0,0.0,0.0,0.0,0.0,0.0,-3.9802,-4.1883,-4.1399,-3.8267,-3.636,-3.3867,0.0,0.0,0.0,0.0,0.0,0.0,0.0,0.0,0.0,0.0,0.0,0.0,0.0,0.0,0.0,0.0,0.0,0.0,0.0,0.0,0.0,0.0,0.0,0.0,0.0,0.0,0.0,0.0,0.0,0.0,0.0,0.0,0.0,0.0,0.0,0.0,0.0,0.0,0.0,0.0,0.0,0.0,0.0,0.0,0.0,0.0,0.0,0.0,0.0,0.0,0.0,0.0,0.0,0.0,0.0,0.0,0.0,0.0,0.0,0.0,0.0,0.0,0.0,0.0,0.0,0.0,0.0,0.0,0.0,0.0,0.0,0.0,0.0,0.0,0.0,0.0,0.0,0.0,0.0,0.0,0.0,0.0,0.0,0.0,0.0,0.0,0.0,0.0,0.0,0.0,0.0,0.0,0.0,0.0,0.0,0.0,0.0,0.0,0.0,0.0,0.0,0.0,0.0,0.0,0.0,0.0,0.0,0.0,0.0,-4.0154,-4.3276,-4.431,-4.2902,-3.9369,-3.6612,0.0,0.0,0.0,0.0,0.0,0.0,0.0,0.0,0.0,0.0,0.0,0.0,0.0,0.0,0.0,0.0,0.0,0.0,0.0,0.0,0.0,0.0,0.0,0.0,0.0,0.0,0.0,0.0,0.0,0.0,0.0,0.0,0.0,0.0,0.0,0.0,0.0,0.0,0.0,0.0,0.0,0.0,0.0,0.0,0.0,0.0,0.0,0.0,0.0,0.0,0.0,0.0,0.0,0.0,0.0,0.0,0.0,0.0,0.0,0.0,0.0,0.0,0.0,0.0,0.0,0.0,0.0,0.0,0.0,0.0,0.0,0.0,0.0,0.0,0.0,0.0,0.0,0.0,0.0,0.0,0.0,0.0,0.0,0.0,0.0,0.0,0.0,0.0,0.0,0.0,0.0,0.0,0.0,0.0,0.0,0.0,0.0,0.0,0.0,0.0,0.0,0.0,0.0,0.0,0.0,0.0,0.0,0.0,-3.8855,-4.23,-4.4737,-4.584,-4.5472,-4.1728,-3.8413,0.0,0.0,0.0,0.0,0.0,0.0,0.0,0.0,0.0,0.0,0.0,0.0,0.0,0.0,0.0,0.0,0.0,0.0,0.0,0.0,0.0,0.0,0.0,0.0,0.0,0.0,0.0,0.0,0.0,0.0,0.0,0.0,0.0,0.0,0.0,0.0,0.0,0.0,0.0,0.0,0.0,0.0,0.0,0.0,0.0,0.0,0.0,0.0,0.0,0.0,0.0,0.0,0.0,0.0,0.0,0.0,0.0,0.0,0.0,0.0,0.0,0.0,0.0,0.0,0.0,0.0,0.0,0.0,0.0,0.0,0.0,0.0,0.0,0.0,0.0,0.0,0.0,0.0,0.0,0.0,0.0,0.0,0.0,0.0,0.0,0.0,0.0,0.0,0.0,0.0,0.0,0.0,0.0,0.0,0.0,0.0,0.0,0.0,0.0,0.0,0.0,0.0,0.0,0.0,0.0,0.0,0.0,0.0,-4.0641,-4.4957,-4.5879,-4.6312,-4.6279,-4.3435,-3.9595,0.0,0.0,0.0,0.0,0.0,0.0,0.0,0.0,0.0,0.0,0.0,0.0,0.0,0.0,0.0,0.0,0.0,0.0,0.0,0.0,0.0,0.0,0.0,0.0,0.0,0.0,0.0,0.0,0.0,0.0,0.0,0.0,0.0,0.0,0.0,0.0,0.0,0.0,0.0,0.0,0.0,0.0,0.0,0.0,0.0,0.0,0.0,0.0,0.0,0.0,0.0,0.0,0.0,0.0,0.0,0.0,0.0,0.0,0.0,0.0,0.0,0.0,0.0,0.0,0.0,0.0,0.0,0.0,0.0,0.0,0.0,0.0,0.0,0.0,0.0,0.0,0.0,0.0,0.0,0.0,0.0,0.0,0.0,0.0,0.0,0.0,0.0,0.0,0.0,0.0,0.0,0.0,0.0,0.0,0.0,0.0,0.0,0.0,0.0,0.0,0.0,0.0,0.0,0.0,0.0,0.0,0.0,0.0,-4.002,-4.4187,-4.5121,-4.5737,-4.6151,-4.3572,-4.0127,0.0,0.0,0.0,0.0,0.0,0.0,0.0,0.0,0.0,0.0,0.0,0.0,0.0,0.0,0.0,0.0,0.0,0.0,0.0,0.0,0.0,0.0,0.0,0.0,0.0,0.0,0.0,0.0,0.0,0.0,0.0,0.0,0.0,0.0,0.0,0.0,0.0,0.0,0.0,0.0,0.0,0.0,0.0,0.0,0.0,0.0,0.0,0.0,-2.8579,0.0,0.0,0.0,0.0,0.0,0.0,0.0,0.0,0.0,0.0,0.0,0.0,0.0,0.0,0.0,0.0,0.0,0.0,0.0,0.0,0.0,0.0,0.0,0.0,0.0,0.0,0.0,0.0,0.0,0.0,0.0,0.0,0.0,0.0,0.0,0.0,0.0,0.0,0.0,0.0,0.0,0.0,0.0,0.0,0.0,0.0,0.0,0.0,0.0,0.0,0.0,0.0,0.0,0.0,0.0,0.0,0.0,0.0,0.0,-4.0854,-4.4272,-4.4955,-4.54,-4.5608,-4.3856,-4.0443,0.0,0.0,0.0,0.0,0.0,0.0,0.0,0.0,0.0,0.0,0.0,0.0,0.0,0.0,0.0,0.0,0.0,0.0,0.0,0.0,0.0,0.0,0.0,0.0,0.0,0.0,0.0,0.0,0.0,0.0,0.0,0.0,0.0,0.0,0.0,0.0,0.0,0.0,0.0,0.0,0.0,0.0,0.0,0.0,0.0,0.0,0.0,0.0,0.0,0.0,0.0,0.0,0.0,0.0,0.0,0.0,0.0,0.0,0.0,0.0,0.0,0.0,0.0,0.0,0.0,0.0,0.0,0.0,0.0,0.0,0.0,0.0,0.0,0.0,0.0,0.0,0.0,0.0,0.0,0.0,0.0,0.0,0.0,0.0,0.0,0.0,0.0,0.0,0.0,0.0,0.0,0.0,0.0,0.0,0.0,0.0,0.0,0.0,0.0,0.0,0.0,0.0,0.0,0.0,0.0,0.0,0.0,-3.8483,-4.1735,-4.4645,-4.4953,-4.5082,-4.5145,-4.414,-4.059,-3.4407,0.0,0.0,0.0,0.0,0.0,0.0,0.0,0.0,0.0,0.0,0.0,0.0,0.0,0.0,0.0,0.0,0.0,0.0,0.0,0.0,0.0,0.0,0.0,0.0,0.0,0.0,0.0,0.0,0.0,0.0,0.0,0.0,0.0,0.0,0.0,0.0,0.0,0.0,-2.5503,-2.8441,0.0,0.0,0.0,0.0,0.0,0.0,0.0,0.0,-3.0502,0.0,0.0,0.0,0.0,0.0,0.0,0.0,0.0,0.0,0.0,0.0,0.0,0.0,0.0,0.0,0.0,0.0,0.0,0.0,0.0,0.0,0.0,0.0,0.0,0.0,0.0,0.0,0.0,0.0,0.0,0.0,0.0,0.0,0.0,0.0,0.0,0.0,0.0,0.0,0.0,0.0,0.0,0.0,0.0,0.0,0.0,0.0,0.0,0.0,0.0,0.0,0.0,0.0,0.0,0.0,0.0,-3.7981,-3.8165,-4.0484,-4.5152,-4.4615,-4.4525,-4.4981,-4.4304,-4.0844,-3.46,0.0,0.0,0.0,0.0,0.0,0.0,0.0,0.0,0.0,0.0,0.0,0.0,0.0,0.0,0.0,0.0,0.0,0.0,0.0,0.0,0.0,0.0,0.0,0.0,0.0,0.0,0.0,0.0,0.0,0.0,0.0,0.0,0.0,0.0,0.0,0.0,0.0,0.0,0.0,-2.9651,-3.1238,0.0,0.0,0.0,0.0,0.0,0.0,0.0,0.0,-2.9089,0.0,0.0,0.0,0.0,0.0,0.0,0.0,0.0,0.0,0.0,0.0,0.0,0.0,0.0,0.0,0.0,0.0,0.0,0.0,0.0,0.0,0.0,0.0,0.0,0.0,0.0,0.0,0.0,0.0,0.0,0.0,0.0,0.0,0.0,0.0,0.0,0.0,0.0,0.0,0.0,0.0,0.0,0.0,0.0,0.0,0.0,0.0,0.0,0.0,0.0,0.0,0.0,0.0,0.0,0.0,-3.6424,-3.8598,-4.123,-4.4316,-4.4013,-4.4015,-4.4416,-4.239,-3.9073,0.0,0.0,0.0,0.0,0.0,0.0,0.0,0.0,0.0,0.0,0.0,0.0,0.0,0.0,0.0,0.0,0.0,0.0,0.0,0.0,0.0,0.0,0.0,0.0,0.0,0.0,0.0,0.0,0.0,0.0,0.0,0.0,0.0,0.0,0.0,0.0,0.0,0.0,0.0,0.0,-3.0429,-3.1452,-3.1507,0.0,0.0,0.0,0.0,0.0,0.0,-3.1119,-3.0245,0.0,0.0,0.0,0.0,0.0,0.0,0.0,0.0,0.0,0.0,0.0,0.0,0.0,0.0,0.0,0.0,0.0,0.0,0.0,0.0,0.0,0.0,0.0,0.0,0.0,0.0,0.0,0.0,0.0,0.0,0.0,0.0,0.0,0.0,0.0,0.0,0.0,0.0,0.0,0.0,0.0,0.0,0.0,0.0,0.0,0.0,0.0,0.0,0.0,0.0,0.0,0.0,0.0,0.0,0.0,-3.4572,-3.862,-4.1699,-4.3539,-4.3582,-4.3701,-4.3921,-4.1021,-3.7863,0.0,0.0,0.0,0.0,0.0,0.0,0.0,0.0,0.0,0.0,0.0,0.0,0.0,0.0,0.0,0.0,0.0,0.0,0.0,0.0,0.0,0.0,0.0,0.0,0.0,0.0,0.0,0.0,0.0,0.0,0.0,0.0,0.0,0.0,0.0,0.0,0.0,0.0,0.0,0.0,0.0,-3.2217,-3.1795,-3.2415,0.0,0.0,0.0,0.0,-3.3292,-3.2931,0.0,0.0,0.0,0.0,0.0,0.0,0.0,0.0,0.0,0.0,0.0,0.0,0.0,0.0,0.0,0.0,0.0,0.0,0.0,0.0,0.0,0.0,0.0,0.0,0.0,0.0,0.0,0.0,0.0,0.0,0.0,0.0,0.0,0.0,0.0,0.0,0.0,0.0,0.0,0.0,0.0,0.0,0.0,0.0,0.0,0.0,0.0,0.0,0.0,0.0,0.0,0.0,0.0,0.0,0.0,0.0,-3.4478,-3.6987,-4.0067,-4.3643,-4.3786,-4.382,-4.3878,-4.2645,-3.9497,0.0,0.0,0.0,0.0,0.0,0.0,0.0,0.0,0.0,0.0,0.0,0.0,0.0,0.0,0.0,0.0,0.0,0.0,0.0,0.0,0.0,0.0,0.0,0.0,0.0,0.0,0.0,0.0,0.0,0.0,0.0,0.0,0.0,0.0,0.0,0.0,0.0,0.0,0.0,0.0,0.0,-3.4945,-3.2779,-3.3164,-3.3857,0.0,0.0,-3.4109,-3.5638,-3.5803,0.0,0.0,0.0,0.0,0.0,0.0,0.0,0.0,0.0,0.0,0.0,0.0,0.0,0.0,0.0,0.0,0.0,0.0,0.0,0.0,0.0,0.0,0.0,0.0,0.0,0.0,0.0,0.0,0.0,0.0,0.0,0.0,0.0,0.0,0.0,0.0,0.0,0.0,0.0,0.0,0.0,0.0,0.0,0.0,0.0,0.0,0.0,0.0,0.0,0.0,0.0,0.0,0.0,0.0,0.0,-3.1691,-3.4643,-3.8196,-4.1274,-4.3786,-4.3837,-4.3599,-4.3114,-4.0532,-3.7327,0.0,0.0,0.0,0.0,0.0,0.0,0.0,0.0,0.0,0.0,0.0,0.0,0.0,0.0,0.0,0.0,0.0,0.0,0.0,0.0,0.0,0.0,0.0,0.0,0.0,0.0,0.0,0.0,0.0,0.0,0.0,0.0,0.0,0.0,0.0,0.0,0.0,0.0,0.0,0.0,0.0,0.0,-3.5238,-3.5693,0.0,0.0,0.0,-3.6317,-3.7477,0.0,0.0,0.0,0.0,0.0,0.0,0.0,0.0,0.0,0.0,0.0,0.0,0.0,0.0,0.0,0.0,0.0,0.0,0.0,0.0,0.0,0.0,0.0,0.0,0.0,0.0,0.0,0.0,0.0,0.0,0.0,0.0,0.0,0.0,0.0,0.0,0.0,0.0,0.0,0.0,0.0,0.0,0.0,0.0,0.0,0.0,0.0,0.0,0.0,0.0,0.0,0.0,0.0,0.0,0.0,0.0,0.0,-3.4739,-3.9352,-4.2447,-4.3873,-4.3883,-4.3495,-4.265,-3.9322,0.0,0.0,0.0,0.0,0.0,0.0,0.0,0.0,0.0,0.0,0.0,0.0,0.0,0.0,0.0,0.0,0.0,0.0,0.0,0.0,0.0,0.0,0.0,0.0,0.0,0.0,0.0,-1.5833,0.0,0.0,0.0,0.0,0.0,0.0,0.0,0.0,0.0,0.0,0.0,0.0,0.0,0.0,-3.4412,-3.6868,-3.7878,-3.8615,0.0,0.0,-3.8524,-3.8946,-3.834,-3.6688,0.0,0.0,0.0,0.0,0.0,0.0,0.0,0.0,0.0,0.0,0.0,0.0,0.0,0.0,0.0,0.0,0.0,0.0,0.0,0.0,0.0,0.0,0.0,0.0,0.0,0.0,0.0,0.0,0.0,0.0,0.0,0.0,0.0,0.0,0.0,0.0,0.0,0.0,0.0,0.0,0.0,0.0,0.0,0.0,0.0,0.0,0.0,0.0,0.0,0.0,0.0,0.0,0.0,0.0,0.0,-3.4768,-3.9451,-4.2553,-4.3912,-4.3989,-4.3703,-4.3142,-4.1072,-3.788,0.0,0.0,0.0,0.0,0.0,0.0,0.0,0.0,0.0,0.0,0.0,0.0,0.0,0.0,0.0,0.0,0.0,0.0,0.0,0.0,0.0,0.0,0.0,0.0,0.0,0.0,0.0,0.0,0.0,0.0,0.0,0.0,0.0,0.0,0.0,0.0,0.0,0.0,0.0,0.0,0.0,-3.6138,-3.634,-3.8946,-4.0875,0.0,0.0,-4.0634,-3.9918,-4.0983,-4.0047,-3.4596,0.0,0.0,0.0,0.0,0.0,0.0,0.0,0.0,0.0,0.0,0.0,0.0,0.0,0.0,0.0,0.0,0.0,0.0,0.0,0.0,0.0,0.0,0.0,0.0,0.0,0.0,0.0,0.0,0.0,0.0,0.0,0.0,0.0,0.0,0.0,0.0,0.0,0.0,0.0,0.0,0.0,0.0,0.0,0.0,0.0,0.0,0.0,0.0,0.0,0.0,0.0,0.0,0.0,-3.2419,-3.4711,-3.8963,-4.2086,-4.389,-4.3522,-4.2969,-4.2391,-4.0173,-3.7004,0.0,0.0,0.0,0.0,0.0,0.0,0.0,0.0,0.0,0.0,0.0,0.0,0.0,0.0,0.0,0.0,0.0,0.0,0.0,0.0,0.0,0.0,0.0,0.0,0.0,0.0,0.0,0.0,-2.0152,-2.0839,-2.0839,0.0,0.0,0.0,0.0,0.0,0.0,0.0,0.0,0.0,0.0,-3.7184,-3.9625,-4.1056,0.0,0.0,-4.2158,-4.1901,-4.2084,-4.0965,-3.9019,-3.5844,-3.366,0.0,0.0,0.0,0.0,0.0,0.0,0.0,0.0,0.0,0.0,0.0,0.0,0.0,0.0,0.0,0.0,0.0,0.0,0.0,0.0,0.0,0.0,0.0,0.0,0.0,0.0,0.0,0.0,0.0,0.0,0.0,0.0,0.0,0.0,0.0,0.0,0.0,0.0,0.0,0.0,0.0,0.0,0.0,0.0,0.0,0.0,0.0,0.0,0.0,0.0,0.0,0.0,-3.2534,-3.4244,-3.8739,-4.1786,-4.324,-4.2965,-4.2406,-4.1541,-3.9352,-3.649,0.0,0.0,0.0,0.0,0.0,0.0,0.0,0.0,0.0,0.0,0.0,0.0,0.0,0.0,0.0,0.0,0.0,0.0,0.0,0.0,0.0,0.0,0.0,0.0,0.0,0.0,0.0,0.0,-2.1427,-2.1684,-2.1437,0.0,0.0,0.0,0.0,0.0,0.0,0.0,0.0,0.0,0.0,-3.8043,-4.1754,-4.2506,-4.2873,-4.3423,-4.302,-4.269,-4.2782,-4.1093,-3.9001,-3.667,0.0,0.0,0.0,0.0,0.0,0.0,0.0,0.0,0.0,0.0,0.0,0.0,0.0,0.0,0.0,0.0,0.0,0.0,0.0,0.0,0.0,0.0,0.0,0.0,0.0,0.0,0.0,0.0,0.0,0.0,0.0,0.0,0.0,0.0,0.0,0.0,0.0,0.0,0.0,0.0,0.0,0.0,0.0,0.0,0.0,0.0,0.0,0.0,0.0,0.0,0.0,0.0,0.0,-3.2793,-3.3315,-3.8895,-4.1795,-4.1731,-4.2389,-4.2108,-4.0784,-3.9083,-3.6793,-3.3767,0.0,0.0,0.0,0.0,0.0,0.0,0.0,0.0,0.0,0.0,0.0,0.0,0.0,0.0,0.0,0.0,0.0,0.0,0.0,0.0,0.0,0.0,0.0,0.0,0.0,0.0,-2.1647,-2.1794,-2.1519,0.0,0.0,0.0,0.0,0.0,0.0,0.0,0.0,0.0,0.0,-3.6395,-3.8667,-4.1846,-4.2965,-4.3442,-4.3479,-4.3478,-4.2947,-4.1479,-4.1719,-4.0873,0.0,0.0,0.0,0.0,0.0,0.0,0.0,0.0,0.0,0.0,0.0,0.0,0.0,0.0,0.0,0.0,0.0,0.0,0.0,0.0,0.0,0.0,0.0,0.0,0.0,0.0,0.0,0.0,-2.8731,0.0,0.0,0.0,0.0,0.0,0.0,0.0,0.0,0.0,0.0,0.0,-3.4288,-3.5372,0.0,0.0,0.0,0.0,0.0,0.0,0.0,0.0,0.0,0.0,0.0,0.0,-3.281,-3.4566,-3.8579,-4.1066,-4.1776,-4.1538,-4.118,-4.0691,-3.8693,-3.5685,-3.1659,0.0,0.0,0.0,0.0,0.0,0.0,0.0,0.0,0.0,0.0,0.0,0.0,0.0,0.0,0.0,0.0,0.0,0.0,0.0,0.0,0.0,0.0,0.0,0.0,0.0,-2.0262,0.0,0.0,0.0,0.0,0.0,0.0,0.0,0.0,0.0,0.0,0.0,-3.2706,-3.6193,-3.8524,-4.0689,-4.28,-4.3331,-4.3479,0.0,0.0,0.0,0.0,0.0,0.0,0.0,0.0,0.0,0.0,0.0,0.0,0.0,0.0,-3.6413,-3.1825,-3.057,-3.0265,-3.054,0.0,0.0,0.0,0.0,0.0,0.0,0.0,0.0,0.0,0.0,0.0,0.0,0.0,0.0,0.0,0.0,-3.1852,0.0,0.0,0.0,0.0,0.0,0.0,0.0,0.0,-3.6392,-3.7673,-3.7731,-3.8815,-3.845,0.0,-3.6834,-3.4795,0.0,0.0,0.0,0.0,0.0,0.0,0.0,0.0,-3.3,-3.5072,-3.8613,-4.0675,-4.1142,-4.0854,-4.0572,-4.0253,-3.8052,-3.503,-3.1216,-2.876,-2.6904,0.0,0.0,0.0,0.0,0.0,0.0,0.0,0.0,0.0,0.0,0.0,0.0,0.0,0.0,0.0,0.0,0.0,0.0,0.0,0.0,0.0,0.0,0.0,-2.1096,0.0,0.0,0.0,0.0,0.0,0.0,0.0,0.0,0.0,-2.8026,-3.1825,-3.5679,-3.8395,-4.0341,-4.1992,-4.3331,0.0,0.0,0.0,0.0,0.0,0.0,0.0,-4.1148,-4.1095,-4.0267,-3.9585,-3.9551,-4.0194,-4.0561,-4.0008,0.0,0.0,-3.5532,-3.3875,-3.3288,-3.3825,-3.3256,-3.275,-3.3057,-3.336,-3.3324,0.0,0.0,0.0,0.0,0.0,0.0,0.0,0.0,-3.625,-3.5836,0.0,-3.4814,0.0,0.0,0.0,0.0,0.0,0.0,0.0,0.0,-4.0192,-4.1846,-4.1827,-4.1885,-4.1885,-4.1865,-4.1777,-4.0058,-3.6712,-3.2731,0.0,0.0,0.0,0.0,0.0,0.0,-3.3443,-3.5106,-3.9005,-4.0661,-3.9903,-4.0394,-4.0278,-3.9395,-3.7252,-3.4946,-3.2534,-3.0921,-2.8927,-2.6346,-2.4683,0.0,0.0,0.0,0.0,0.0,0.0,0.0,0.0,0.0,0.0,0.0,0.0,0.0,0.0,0.0,0.0,0.0,0.0,0.0,0.0,-2.3226,0.0,0.0,0.0,0.0,0.0,0.0,0.0,0.0,0.0,0.0,-3.0797,-3.399,-3.7606,-4.0691,0.0,0.0,0.0,0.0,-4.3479,-4.3479,-4.3479,-4.3239,-4.2488,-4.2947,-4.2892,-4.1444,0.0,0.0,-4.1425,-4.1827,-4.1827,-4.0304,-4.0744,-4.1203,-4.1058,-3.8469,-3.6964,-3.8267,-3.6784,-3.5852,-3.7154,-3.7726,-3.7879,-4.535,0.0,0.0,0.0,0.0,-3.994,-4.0661,-4.2227,-4.1357,-4.0238,-3.9046,-3.8823,0.0,0.0,0.0,0.0,0.0,0.0,-3.8623,-3.9515,-4.17,-4.3047,-4.3624,-4.4201,-4.4201,-4.3605,-4.3585,-4.247,-4.0327,-3.8507,-3.493,-2.9775,0.0,0.0,0.0,0.0,-3.5472,-3.7137,-3.9459,-4.0489,-4.0101,-4.0241,-3.9577,-3.7978,-3.7423,-3.5985,-3.3541,-3.1885,-3.0388,-2.8982,-2.6257,0.0,0.0,0.0,0.0,0.0,0.0,0.0,0.0,0.0,0.0,0.0,0.0,0.0,0.0,0.0,0.0,0.0,0.0,0.0,-2.1574,-2.2721,-2.329,0.0,0.0,0.0,0.0,0.0,0.0,0.0,0.0,0.0,-3.5473,-3.7918,-4.027,0.0,0.0,-4.3258,-4.3478,-4.3479,-4.3479,-4.3479,0.0,0.0,0.0,-4.2873,-4.2671,-4.28,-4.3221,-4.3332,-4.2892,-4.3002,-4.3002,-4.2506,-4.267,-4.28,-4.269,-4.1167,-3.9974,-4.0251,-3.9811,-3.9268,-3.9246,-3.8995,-3.8438,-4.9142,-4.6177,-4.3851,-4.3319,-4.3937,-4.3392,-4.4218,-4.5854,-4.4608,-4.3682,-4.297,-4.2324,-4.0527,-3.7923,-3.6757,0.0,0.0,0.0,-4.0893,-4.2055,-4.3104,-4.4028,-4.4816,-4.5344,-4.5344,-4.4825,-4.4816,-4.4124,-4.2777,-4.2266,-3.9457,-3.4507,0.0,0.0,-3.3718,-3.5212,-3.6815,-3.8488,-3.9823,-4.0449,-4.0302,-4.0223,-3.9213,-3.7297,-3.7481,-3.6599,-3.4385,-3.2768,-3.1539,-3.0725,-2.7714,-2.5132,0.0,0.0,0.0,0.0,0.0,0.0,0.0,0.0,0.0,0.0,0.0,-1.4033,-1.2191,0.0,0.0,0.0,-1.8911,-2.1106,-2.2639,-2.4043,0.0,0.0,0.0,0.0,0.0,0.0,0.0,-3.2467,-3.5899,-3.8505,-3.9313,-4.0946,-4.2231,-4.2708,-4.3203,-4.3479,-4.3479,0.0,-4.3479,-4.3479,-4.3479,-4.3479,-4.3479,-4.3094,-4.2947,-4.3406,-4.3479,-4.3479,-4.3479,-4.3479,-4.3479,-4.3479,-4.3479,-4.3479,-4.3479,-4.269,-4.1999,-4.1843,-4.1517,-4.1161,-4.0854,-4.0569,-3.9991,-5.1288,-5.0935,-4.7745,-4.6644,-4.6992,-4.7011,-4.7419,-4.7971,-4.6451,-4.6201,-4.6778,-4.522,-4.3585,-4.1912,-4.045,0.0,0.0,-4.17,-4.2931,-4.4393,-4.4393,-4.4836,-4.5594,-4.5594,-4.5594,-4.5594,-4.5594,-4.519,-4.444,-4.4374,-4.3181,-4.0766,-3.7738,-3.6481,-3.6981,-3.7058,-3.7892,-3.9477,-4.0246,-4.0573,-4.0489,-4.0245,-3.9137,-3.7118,-3.7357,-3.6649,-3.4898,-3.3399,-3.2335,-3.1629,-2.894,-2.6434,-2.4312,0.0,0.0,0.0,0.0,0.0,0.0,0.0,0.0,0.0,0.0,0.0,0.0,0.0,0.0,0.0,-2.2382,0.0,-2.4465,-2.6494,0.0,0.0,0.0,-3.0338,-3.065,-3.3298,-3.5463,-3.6376,0.0,0.0,0.0,0.0,-4.3479,-4.3479,-4.3479,-4.3479,-4.3479,-4.3479,-4.3479,-4.3479,-4.3479,-4.3479,-4.3479,-4.3442,-4.3441,-4.3479,-4.3479,-4.3479,-4.3479,-4.3479,-4.3479,-4.3479,-4.3479,-4.3479,-4.3479,-4.3423,-4.3375,-4.2903,-4.2304,-4.1866,-4.1968,-4.2163,-4.1737,-5.4418,-5.3702,-5.1579,-4.9621,-4.7897,-4.7878,-4.7978,-4.8048,-4.7682,-4.7278,-4.6865,-4.6451,-4.5336,-4.372,-4.3998,-4.3863,-4.3431,-4.4297,-4.4893,-4.5287,-4.5287,-4.5402,-4.5594,-4.5594,-4.5594,-4.5594,-4.5594,-4.5498,-4.5306,-4.5287,-4.4652,-4.3412,-4.2604,-4.1335,-3.9688,-4.0258,-4.0788,-4.12,-4.1393,-4.1181,-4.0496,-3.9861,-3.8884,-3.7547,-3.6553,-3.5435,-3.4159,-3.2718,-3.1795,-3.144,-2.8962,-2.6949,-2.5665,-2.2454,0.0,0.0,0.0,0.0,0.0,0.0,0.0,0.0,0.0,-1.8176,-1.4532,0.0,-2.1125,0.0,-2.318,-2.5613,-2.6825,-2.7467,0.0,0.0,-3.0723,-3.1439,-3.4486,-3.5514,-3.656,-3.7973,-4.0414,-4.2084,-4.2286,-4.3002,-4.3479,-4.3479,-4.3479,-4.3479,-4.3479,-4.3479,-4.3479,-4.3479,-4.3479,-4.3479,-4.3479,-4.3479,-4.3479,-4.3479,-4.3479,-4.3479,-4.3479,-4.3479,-4.3479,-4.3479,-4.3479,-4.3479,-4.3479,-4.3479,-4.3357,-4.3013,-4.296,-4.2758,-4.1938,-4.1414,-4.0673,-5.52,-5.4677,-5.3323,-5.1669,-4.9905,-4.9558,-4.9341,-4.9239,-4.8884,-4.8451,-4.7952,-4.7231,-4.6355,-4.547,-4.5556,-4.5344,-4.4932,-4.5383,-4.5594,-4.5594,-4.5594,-4.5594,-4.5594,-4.5594,-4.5594,-4.5594,-4.5594,-4.5594,-4.5594,-4.5594,-4.5364,-4.4883,-4.4874,-4.419,-4.2824,-4.2508,-4.2393,-4.2374,-4.1981,-4.1373,-4.0516,-3.9727,-3.8612,-3.7165,-3.642,-3.5187,-3.3375,-3.262,-3.184,-3.0938,-2.8745,-2.7113,-2.6242,-2.3392,-2.1469,0.0,0.0,0.0,0.0,0.0,0.0,0.0,0.0,0.0,0.0,0.0,-2.296,0.0,-2.6172,0.0,-2.9824,-3.0583,-3.188,-3.4027,-3.3788,-3.4339,-3.6611,-3.779,-3.8799,-3.9664,-4.157,-4.2837,-4.2837,-4.3239,-4.3479,-4.3479,-4.3479,-4.3479,-4.3479,-4.3479,-4.3479,-4.3479,-4.3479,-4.3479,-4.3479,-4.3479,-4.3479,-4.3479,-4.3479,-4.3479,-4.3479,-4.3479,-4.3479,-4.3479,-4.3479,-4.3479,-4.3479,-4.3479,-4.341,-4.3249,-4.3047,-4.2574,-4.1556,-4.1142,-4.0583,-5.4967,-5.4871,-5.4039,-5.3202,-5.2376,-5.1449,-5.0915,-5.0672,-4.996,-4.9547,-4.9298,-4.774,-4.7038,-4.7,-4.6144,-4.5759,-4.5768,-4.5652,-4.5594,-4.5594,-4.5594,-4.5594,-4.5594,-4.5594,-4.5594,-4.5594,-4.5594,-4.5594,-4.5594,-4.5594,-4.5594,-4.5594,-4.5594,-4.5594,-4.5537,-4.4143,-4.3355,-4.3239,-4.2288,-4.1431,-4.0669,-3.9785,-3.8447,-3.672,-3.6454,-3.5213,-3.2775,-3.2711,-3.2025,-3.0456,-2.8713,-2.7435,-2.6677,-2.4265,-2.2759,0.0,-2.1305,0.0,0.0,0.0,0.0,0.0,0.0,0.0,0.0,-2.4428,-2.5705,-2.7108,-3.0044,-3.2155,-3.2839,-3.427,-3.5518,-3.6358,-3.707,-3.7529,-3.7713,-3.9698,-4.1113,-4.1113,-4.2506,-4.3479,-4.3461,-4.3479,-4.3479,-4.3479,-4.3479,-4.3479,-4.3479,-4.3479,-4.3479,-4.3479,-4.3479,-4.3479,-4.3479,-4.3479,-4.3479,-4.3479,-4.3479,-4.3479,-4.3479,-4.3479,-4.3479,-4.3479,-4.3479,-4.3479,-4.3479,-4.3479,-4.346,-4.3278,-4.2765,-4.208,-4.1303,-4.1106,-4.0872,-5.578,-5.5702,-5.4909,-5.4456,-5.4166,-5.2619,-5.1507,-5.0764,-5.0567,-5.0077,-4.9317,-4.8317,-4.7855,-4.7817,-4.7028,-4.6663,-4.6624,-4.5913,-4.5594,-4.5594,-4.5594,-4.5594,-4.5594,-4.5594,-4.5594,-4.5594,-4.5594,-4.5594,-4.5594,-4.5594,-4.5594,-4.5594,-4.5594,-4.5594,0.0,0.0,0.0,0.0,-4.2577,-4.1712,-4.1508,-4.0085,-3.8788,-3.7694,-3.5724,0.0,-3.291,-3.2244,-3.1462,-3.0456,-2.9941,0.0,0.0,0.0,0.0,0.0,0.0,0.0,0.0,0.0,0.0,0.0,-2.7629,-2.6712,-2.5209,-2.8055,-3.0155,-3.0534,-3.2834,-3.438,-3.4564,-3.5459,-3.6376,-3.718,-3.7419,-3.7749,-3.8432,-4.0031,-4.1113,-4.1132,-4.2506,-4.3496,-4.3442,-4.3479,-4.3479,-4.3479,-4.3479,-4.3479,-4.3479,-4.3479,-4.3479,-4.3479,-4.3479,-4.3479,-4.3479,-4.3479,-4.3479,-4.3479,-4.3479,-4.3479,-4.3479,-4.3479,-4.3479,-4.3479,-4.3479,-4.3479,-4.3461,-4.3479,-4.3259,-4.2653,-4.2396,-4.2052,-4.1258,-4.0617,-3.9951,-5.6003,0.0,-5.5567,-5.518,0.0,-5.381,-5.2683,-5.146,-5.1005,-5.0518,-4.999,-4.9115,-4.874,-4.8702,-4.7855,-4.7481,-4.7462,-4.6605,-4.624,-4.622,-4.5778,-4.5594,-4.5594,-4.5594,-4.5594,-4.5594,-4.5594,-4.5594,-4.5594,-4.5594,-4.5594,-4.5594,-4.5594,-4.5594,-4.5594,-4.5594,-4.519,-4.4297,-4.3085,-4.2231,-4.1769,-4.0162,-3.8661,-3.7392,0.0,0.0,0.0,0.0,0.0,0.0,0.0,0.0,0.0,0.0,0.0,-2.7044,-2.7417,-2.7606,-2.7529,-2.8532,-2.9337,-2.9724,-3.0368,-2.9922,-2.7926,-3.0736,-3.2596,-3.2632,-3.4798,-3.6248,-3.6266,-3.6982,-3.7643,-3.8043,-3.8098,-3.8267,-3.8726,-3.9772,-4.0506,-4.0671,-4.1919,-4.291,-4.2892,-4.3294,-4.3479,-4.3479,-4.3479,-4.3479,-4.3479,-4.3479,-4.3479,-4.3479,-4.3479,-4.3479,-4.3479,-4.3479,-4.3479,-4.3479,-4.3479,-4.3479,-4.3479,-4.3479,-4.3479,-4.3479,-4.3479,-4.3387,-4.2965,-4.2892,-4.2671,-4.1901,-4.1387,-4.102,-4.0561,-4.0175,-3.9662,-5.6147,-5.6003,-5.6003,-5.5625,-5.5006,-5.4798,-5.384,-5.2356,0.0,0.0,0.0,-4.9942,-4.9634,-4.9567,-4.8721,-4.8317,-4.8279,-4.749,-4.7019,-4.6865,-4.6163,-4.5748,-4.5594,-4.5594,-4.5594,-4.5594,-4.5594,-4.5594,-4.5594,-4.5594,-4.5594,-4.5594,-4.5594,-4.5594,-4.5594,-4.5594,-4.5248,-4.4528,-4.3585,-4.2758,-4.2027,-4.0373,-3.8765,-3.7192,-3.6846,-3.5661,-3.3468,-3.3891,-3.316,-3.1,-3.0881,-3.0189,-2.8632,-2.8985,-2.9511,-3.0021,-3.0628,-3.0974,-3.095,-3.1547,-3.1718,-3.1163,-3.2334,-3.2425,-3.0944,-3.2797,-3.4156,-3.4431,-3.6317,-3.7547,-3.7713,-3.8285,-3.8707,-3.8707,-3.8707,-3.8689,-3.8744,-3.9405,-3.9918,-4.0047,-4.135,-4.2304,-4.2359,-4.3002,-4.3479,-4.3479,-4.3479,-4.3479,-4.3479,-4.3479,-4.3479,-4.3479,-4.3479,-4.3479,-4.3479,-4.3479,-4.3479,-4.3479,-4.3479,-4.3479,-4.3478,-4.3386,-4.3296,-4.3204,-4.3185,-4.2763,-4.2231,-4.2103,-4.1809,-4.104,-4.0377,-3.9845,-3.9735,-3.968,-3.946,-5.6661,-5.6003,-5.6003,-5.5954,-5.5771,-5.5075,-5.4224,-5.3188,-5.16,-5.081,-5.0701,-5.0576,-5.051,-5.0481,-4.9606,-4.9221,-4.9163,-4.8336,-4.7567,0.0,-4.6769,-4.6317,-4.5614,-4.5594,-4.5594,-4.5594,-4.5594,-4.5594,-4.5594,-4.5594,-4.5594,-4.5594,-4.5594,-4.5594,-4.5594,-4.5594,-4.5537,-4.5383,-4.3874,-4.3047,-4.2893,-4.1227,-3.99,-3.8931,-3.7488,-3.6231,-3.5192,-3.4545,-3.3705,-3.2622,-3.3244,-3.3145,-3.2072,-3.1863,-3.1825,-3.174,-3.1686,-3.1946,-3.2581,-3.2708,-3.3223,-3.4318,-3.4678,-3.4388,-3.344,-3.4215,-3.544,-3.6795,-3.7309,-3.7804,-3.8414,-3.8615,-3.8707,-3.8707,-3.8707,-3.8707,-3.8707,-3.9368,-3.9845,-3.9918,-4.1313,-4.2286,-4.2378,-4.2983,-4.3479,-4.3479,-4.3479,-4.3479,-4.3479,-4.3479,-4.3479,-4.3479,-4.3479,-4.3479,-4.3479,-4.3479,-4.3479,-4.3479,-4.3479,-4.3461,-4.3387,-4.2947,-4.2561,-4.247,-4.2029,-4.1552,-4.1297,-4.1279,-4.0928,-4.0249,-3.9882,-3.9643,-3.9093,-3.8946,-3.8891,-5.7067,-5.6661,-5.6205,-5.6003,-5.5954,-5.5142,-5.4581,-5.4039,-5.236,-5.1556,-5.141,-5.0912,-5.0682,-5.0664,-5.0298,-5.0115,-5.0077,-4.9202,-4.8355,-4.7538,-4.7105,-4.6432,-4.5652,-4.5594,-4.5594,-4.5594,-4.5594,-4.5594,-4.5594,-4.5594,-4.5594,-4.5594,-4.5594,-4.5594,-4.5594,-4.5594,-4.5594,-4.5575,-4.4374,-4.3547,-4.3085,-4.1873,-4.0604,-3.9323,-3.8488,-3.7488,-3.6212,-3.5776,-3.4949,-3.3667,-3.3994,-3.3769,-3.2894,-3.3066,-3.3173,-3.3086,-3.3226,-3.3467,-3.3829,-3.411,-3.4727,-3.5754,-3.586,-3.5841,-3.5822,-3.6138,-3.667,-3.7437,-3.7881,-3.8303,-3.867,-3.8707,-3.8707,-3.8707,-3.8707,-3.8707,-3.8726,-3.8982,-3.9405,-3.9882,-4.091,-4.1809,-4.2249,-4.2983,-4.3479,-4.3479,-4.3479,-4.3479,-4.3479,-4.3479,-4.3479,-4.3479,-4.3479,-4.3479,-4.3479,-4.3479,-4.3479,-4.3479,-4.3479,-4.3296,-4.2983,-4.247,-4.2158,-4.1735,-4.1315,-4.0948,-4.0579,-4.0432,-4.0084,-3.946,-3.9239,-3.9038,-3.8781,-3.8707,-3.8627,-5.7628,-5.725,-5.6564,-5.6186,-5.5926,-5.5335,-5.5084,-5.4909,-5.344,-5.265,-5.2279,-5.1256,-5.0748,-5.073,-5.0702,-5.0721,-5.0587,-5.001,-4.923,-4.8375,-4.7548,-4.6721,-4.5932,-4.571,-4.5594,-4.5594,-4.5594,-4.5594,-4.5594,-4.5594,-4.5594,-4.5594,-4.5594,-4.5594,-4.5594,-4.5594,-4.5594,-4.5556,-4.496,-4.4105,-4.3124,-4.2258,-4.1066,-3.9708,-3.9381,-3.8669,-3.7392,-3.7103,-3.6315,-3.4891,-3.4763,-3.4391,-3.3577,-3.3925,-3.4273,-3.4478,-3.4766,-3.5004,-3.5146,-3.546,-3.5993,-3.6713,-3.6731,-3.701,-3.7639,-3.7768,-3.7768,-3.7841,-3.8322,-3.8689,-3.8707,-3.8707,-3.8707,-3.8707,-3.8707,-3.8707,-3.8707,-3.8707,-3.8927,-3.9606,-4.049,-4.137,-4.2011,-4.2892,-4.3442,-4.3479,-4.3479,-4.3479,-4.3479,-4.3479,-4.3479,-4.3479,-4.3479,-4.3479,-4.3479,-4.3479,-4.3479,-4.3479,-4.3479,-4.3149,-4.258,-4.2213,-4.1717,-4.1038,-4.0634,-4.0267,-3.9753,-3.9643,-3.9405,-3.8891,-3.8799,-3.8744,-3.8726,-3.8707,-3.8627,-5.872,-5.7396,-5.7202,-5.6719,-5.6031,-5.5896,-5.5857,-5.5741,-5.4929,-5.4097,-5.3191,-5.1603,-5.0866,-5.0793,-5.0784,-5.0757,-5.0692,-5.0615,-5.0096,-4.923,-4.8394,-4.7567,-4.6701,-4.5979,-4.5594,-4.5594,-4.5594,-4.5594,-4.5594,-4.5594,-4.5594,-4.5594,-4.5594,-4.5594,-4.5594,-4.5594,-4.5594,-4.5594,-4.5518,-4.4701,-4.3162,-4.2258,-4.1354,-4.0419,-3.9688,-3.9246,-3.8957,-3.8296,-3.745,-3.6577,-3.6442,-3.6096,-3.5352,-3.5163,-3.542,-3.6088,-3.6045,-3.6182,-3.6682,-3.6634,-3.6862,-3.7502,-3.7585,-3.7845,-3.8465,-3.856,-3.8579,-3.8579,-3.8652,-3.8707,-3.8707,-3.8707,-3.8707,-3.8707,-3.8707,-3.8707,-3.8707,-3.8707,-3.8744,-3.8781,-4.0325,-4.115,-4.1607,-4.2653,-4.3442,-4.3479,-4.3479,-4.3479,-4.3479,-4.3479,-4.3479,-4.3479,-4.3479,-4.3479,-4.3479,-4.3479,-4.3479,-4.3479,-4.3479,-4.3075,-4.2415,-4.1644,-4.093,-4.0194,-3.9515,-3.9093,-3.8982,-3.8817,-3.8854,-3.8781,-3.8707,-3.8707,-3.8707,-3.8707,-3.8643,-5.9184,-5.8023,-5.7501,-5.6796,-5.607,-5.6003,-5.6003,-5.5907,-5.5142,-5.431,-5.342,-5.2186,-5.136,-5.0855,-5.0829,-5.0793,-5.0747,-5.071,-5.0248,-4.9477,-4.9037,-4.8182,-4.6957,-4.6556,-4.6124,-4.5633,-4.5594,-4.5594,-4.5594,-4.5594,-4.5594,-4.5594,-4.5594,-4.5594,-4.5594,-4.5594,-4.5594,-4.5594,-4.5594,-4.4786,-4.3278,-4.2758,-4.1893,-4.0631,-4.0189,-3.9765,-3.9342,-3.8931,-3.8354,-3.7546,-3.7462,-3.7315,-3.7007,-3.691,-3.6988,-3.7298,-3.7013,-3.71,-3.7735,-3.7522,-3.7655,-3.8356,-3.8368,-3.846,-3.8667,-3.8707,-3.8707,-3.8707,-3.8707,-3.8707,-3.8707,-3.8707,-3.8707,-3.8707,-3.8707,-3.8707,-3.8707,-3.9129,-3.957,-4.0102,-4.1111,-4.2011,-4.247,-4.3075,-4.3461,-4.3479,-4.3479,-4.3479,-4.3479,-4.3479,-4.3479,-4.3479,-4.3479,-4.3479,-4.3479,-4.3479,-4.3479,-4.3479,-4.3479,-4.313,-4.1901,-4.1389,-4.071,-3.946,-3.8982,-3.8707,-3.8762,-3.8707,-3.8707,-3.8707,-3.8707,-3.8707,-3.8707,-3.8707,-3.8707,-5.9725,-5.8855,-5.7772,-5.6796,-5.6003,-5.6003,-5.6003,-5.5954,-5.5354,-5.4658,-5.3807,-5.2917,-5.2078,-5.1302,-5.0979,-5.0827,-5.0829,-5.0775,-5.0428,-4.9847,-4.9565,-4.8661,-4.733,-4.6987,-4.6431,-4.571,-4.5594,-4.5594,-4.5594,-4.5594,-4.5594,-4.5594,-4.5594,-4.5594,-4.5594,-4.5594,-4.5594,-4.5594,-4.5594,-4.4874,-4.3605,-4.322,-4.2277,-4.0708,-4.0496,-4.0227,-3.9669,-3.9631,-3.9246,-3.8411,-3.8373,-3.8238,-3.8027,-3.8007,-3.8104,-3.8331,-3.821,-3.8262,-3.8704,-3.8439,-3.8419,-3.8814,-3.8837,-3.878,-3.8723,-3.8707,-3.8707,-3.8707,-3.8707,-3.8707,-3.8707,-3.8707,-3.8707,-3.8707,-3.8707,-3.8762,-3.9056,-3.9588,-4.0194,-4.1003,-4.1699,-4.2598,-4.3277,-4.3479,-4.3479,-4.3479,-4.3479,-4.3479,-4.3479,-4.3479,-4.3479,-4.3479,-4.3479,-4.3479,-4.3479,-4.3479,-4.3479,-4.3479,-4.3461,-4.2928,-4.1497,-4.1168,-4.0563,-3.9368,-3.8946,-3.8707,-3.8707,-3.8707,-3.8707,-3.8707,-3.8707,-3.8707,-3.8707,-3.8707,-3.8707,-6.0596,-5.9609,-5.8004,-5.6796,-5.6003,-5.6003,-5.6003,-5.6003,-5.5935,-5.547,-5.4619,-5.3826,-5.2956,-5.2066,-5.1296,-5.0893,-5.0899,-5.0872,-5.0816,-5.0598,-4.9905,-4.9011,-4.8129,-4.7292,-4.6465,-4.5757,-4.5614,-4.5594,-4.5594,-4.5594,-4.5594,-4.5594,-4.5594,-4.5594,-4.5594,-4.5594,-4.5594,-4.5594,-4.5594,-4.5152,-4.4239,-4.3489,-4.2316,-4.0766,-4.0516,-4.0458,-4.0419,-4.0419,-4.0054,-3.9258,-3.9246,-3.8892,-3.8161,-3.8065,-3.845,-3.9165,-3.9702,-3.9909,-3.9683,-3.94,-3.9157,-3.8964,-3.8851,-3.8762,-3.8723,-3.8707,-3.8707,-3.8707,-3.8707,-3.8707,-3.8707,-3.8707,-3.8707,-3.8707,-3.8707,-3.9019,-3.9717,-3.9882,-4.0267,-4.1058,-4.1919,-4.269,-4.3387,-4.3479,-4.3479,-4.3479,-4.3479,-4.3479,-4.3479,-4.3479,-4.3479,-4.3479,-4.3479,-4.3479,-4.3479,-4.3479,-4.3479,-4.3424,-4.3259,-4.291,-4.1902,-4.093,-4.0031,-3.9313,-3.8927,-3.8707,-3.8707,-3.8707,-3.8707,-3.8707,-3.8707,-3.8707,-3.8707,-3.8707,-3.8707,-6.0286,-5.898,-5.7791,-5.6796,-5.6031,-5.6003,-5.6003,-5.6003,-5.6003,-5.5548,-5.4851,-5.4465,-5.3536,-5.219,-5.1873,-5.142,-5.094,-5.0916,-5.0888,-5.083,-5.0499,-4.9903,-4.9054,-4.8163,-4.7272,-4.6465,-4.5853,-4.5594,-4.5594,-4.5594,-4.5594,-4.5594,-4.5594,-4.5594,-4.5594,-4.5594,-4.5594,-4.5594,-4.5594,-4.5182,-4.4374,-4.4008,-4.3066,-4.1431,-4.0777,-4.0496,-4.0496,-4.0496,-4.0362,-4.0073,-4.0054,-3.9938,-3.965,-3.9585,-3.9727,-4.0038,-4.0159,-4.0158,-4.0022,-3.9597,-3.9285,-3.9151,-3.8896,-3.8719,-3.8689,-3.8707,-3.8707,-3.8707,-3.8707,-3.8707,-3.8707,-3.8707,-3.8707,-3.8707,-3.8726,-3.9074,-3.9753,-4.0341,-4.0983,-4.1772,-4.2561,-4.3185,-4.3369,-4.3479,-4.3479,-4.3479,-4.3479,-4.3479,-4.3479,-4.3479,-4.3479,-4.3479,-4.3479,-4.3479,-4.3479,-4.3479,-4.3442,-4.3296,-4.3057,-4.2341,-4.1444,-4.0653,-3.979,-3.9111,-3.8744,-3.8707,-3.8707,-3.8707,-3.8707,-3.8707,-3.8707,-3.8707,-3.8707,-3.8707,-3.8707,-6.0132,-5.8623,-5.7965,-5.7056,-5.6042,-5.6003,-5.6003,-5.6003,-5.5984,-5.5675,-5.5219,-5.4929,-5.3981,-5.2724,-5.2337,-5.1718,-5.0956,-5.0913,-5.0893,-5.0898,-5.0869,-5.04,-4.9616,-4.893,-4.8039,-4.6915,-4.6016,-4.5594,-4.5594,-4.5594,-4.5594,-4.5594,-4.5594,-4.5594,-4.5594,-4.5594,-4.5594,-4.5594,-4.5594,-4.5287,-4.4739,-4.4432,-4.3797,-4.2681,-4.1777,-4.1035,-4.0554,-4.0496,-4.0496,-4.0496,-4.0496,-4.0496,-4.0496,-4.0496,-4.0496,-4.0481,-4.0372,-4.0269,-4.0148,-3.9705,-3.9389,-3.9324,-3.8993,-3.8732,-3.8735,-3.8735,-3.8738,-3.8744,-3.8982,-3.9074,-3.9148,-3.935,-3.9386,-3.9221,-3.9313,-3.9808,-4.0579,-4.1167,-4.1827,-4.2543,-4.3112,-4.3424,-4.3479,-4.3479,-4.3479,-4.3479,-4.3479,-4.3479,-4.3479,-4.3479,-4.3479,-4.3479,-4.3479,-4.3479,-4.3479,-4.3479,-4.3461,-4.3349,-4.2763,-4.1974,-4.1203,-4.0414,-3.9643,-3.8982,-3.8707,-3.8707,-3.8707,-3.8707,-3.8707,-3.8707,-3.8707,-3.8707,-3.8707,-3.8707,-3.8707,-6.0132,-5.8748,-5.8584,-5.7579,-5.6216,-5.6051,-5.6003,-5.6003,-5.6003,-5.5954,-5.576,-5.52,-5.4407,-5.3486,-5.2713,-5.1796,-5.113,-5.0956,-5.0898,-5.0898,-5.089,-5.0488,-4.9729,-4.9539,-4.8533,-4.6943,-4.6063,-4.5652,-4.5622,-4.5594,-4.5594,-4.5594,-4.5594,-4.5594,-4.5594,-4.5594,-4.5594,-4.5594,-4.5594,-4.5575,-4.5498,-4.4806,-4.4316,-4.4066,-4.3393,-4.2277,-4.0727,-4.0612,-4.0593,-4.0516,-4.0496,-4.0496,-4.0496,-4.0496,-4.0496,-4.0496,-4.0508,-4.0408,-4.0204,-3.9861,-3.9578,-3.9408,-3.9087,-3.8851,-3.8792,-3.8792,-3.8817,-3.8958,-3.9386,-3.9861,-3.9989,-4.0561,-4.0689,-4.012,-4.0432,-4.1148,-4.1882,-4.2249,-4.2598,-4.3222,-4.3461,-4.3479,-4.3479,-4.3479,-4.3479,-4.3479,-4.3479,-4.3479,-4.3479,-4.3479,-4.3479,-4.3479,-4.3479,-4.3479,-4.3479,-4.3479,-4.3478,-4.3349,-4.258,-4.1827,-4.1095,-4.0322,-3.9496,-3.8836,-3.8707,-3.8707,-3.8707,-3.8707,-3.8707,-3.8707,-3.8707,-3.8707,-3.8707,-3.8707,-3.8707,-6.048,-5.9455,-5.8836,-5.7965,-5.6854,-5.6263,-5.6003,-5.6003,-5.6003,-5.6003,-5.5954,-5.5741,-5.5161,-5.4349,-5.3478,-5.2608,-5.1796,-5.1215,-5.0898,-5.0898,-5.0898,-5.0755,-5.0418,-4.9872,-4.8693,-4.7188,-4.6645,-4.6196,-4.5753,-4.5631,-4.5594,-4.5594,-4.5594,-4.5594,-4.5594,-4.5594,-4.5594,-4.5594,-4.5594,-4.5594,-4.5594,-4.5344,-4.4913,-4.4335,-4.4028,-4.3374,-4.2354,-4.172,-4.1123,-4.0573,-4.0496,-4.0496,-4.0496,-4.0496,-4.0496,-4.0496,-4.0496,-4.0481,-4.0372,-3.9983,-3.9675,-3.9531,-3.9192,-3.8892,-3.8822,-3.8825,-3.9068,-3.9461,-3.98,-4.0097,-4.0772,-4.1493,-4.157,-4.0818,-4.0948,-4.148,-4.2249,-4.2782,-4.3203,-4.3406,-4.3479,-4.3479,-4.3479,-4.3479,-4.3479,-4.3479,-4.3479,-4.3479,-4.3479,-4.3479,-4.3479,-4.3479,-4.3479,-4.3479,-4.3479,-4.3442,-4.3386,-4.302,-4.2304,-4.1552,-4.0838,-4.0068,-3.9276,-3.8872,-3.8762,-3.8707,-3.8707,-3.8707,-3.8707,-3.8707,-3.8707,-3.8707,-3.8707,-3.8707,-3.8707,-6.0634,-5.9822,-5.8971,-5.8101,-5.7222,-5.6379,-5.6003,-5.6003,-5.6003,-5.6003,-5.6003,-5.5984,-5.5567,-5.4813,-5.4213,-5.3304,-5.2229,-5.1621,-5.1196,-5.0937,-5.0898,-5.0898,-5.0782,-5.0008,-4.8902,-4.7634,-4.7092,-4.6508,-4.574,-4.5657,-4.5612,-4.5594,-4.5594,-4.5594,-4.5594,-4.5594,-4.5594,-4.5594,-4.5594,-4.5594,-4.5594,-4.5594,-4.5344,-4.4855,-4.4778,-4.4335,-4.3585,-4.3008,-4.2181,-4.1162,-4.0708,-4.0516,-4.0496,-4.0496,-4.0496,-4.0496,-4.0496,-4.0489,-4.0457,-4.0033,-3.9742,-3.9634,-3.9261,-3.9131,-3.9243,-3.9305,-3.9674,-4.0363,-4.0746,-4.1045,-4.1629,-4.2318,-4.2451,-4.2066,-4.2047,-4.2213,-4.2745,-4.3203,-4.3442,-4.3479,-4.3479,-4.3479,-4.3479,-4.3479,-4.3479,-4.3479,-4.3479,-4.3479,-4.3479,-4.3479,-4.3479,-4.3479,-4.3479,-4.3479,-4.3479,-4.3406,-4.3294,-4.2708,-4.2011,-4.124,-4.0506,-3.9606,-3.8781,-3.8781,-3.8707,-3.8707,-3.8707,-3.8707,-3.8707,-3.8707,-3.8707,-3.8707,-3.8707,-3.8707,-3.8707,-6.0673,-5.9861,-5.8999,-5.8159,-5.7346,-5.6437,-5.6003,-5.6003,-5.6003,-5.6003,-5.6003,-5.6003,-5.5625,-5.4987,-5.4639,-5.3652,-5.2461,-5.195,-5.1505,-5.1033,-5.0898,-5.0898,-5.0782,-5.0151,-4.9323,-4.8408,-4.7557,-4.6687,-4.594,-4.575,-4.5676,-4.5594,-4.5594,-4.5594,-4.5594,-4.5594,-4.5594,-4.5594,-4.5594,-4.5594,-4.5594,-4.5594,-4.5575,-4.5518,-4.5479,-4.5152,-4.4489,-4.4143,-4.3374,-4.195,-4.0931,-4.0496,-4.0496,-4.0496,-4.0496,-4.0496,-4.0496,-4.0496,-4.0406,-4.0129,-3.987,-3.9808,-3.959,-3.944,-4.001,-4.0196,-4.0577,-4.1379,-4.1894,-4.2306,-4.2529,-4.2996,-4.333,-4.3424,-4.3204,-4.3294,-4.3424,-4.3496,-4.3479,-4.3479,-4.3479,-4.3479,-4.3479,-4.3479,-4.3479,-4.3479,-4.3479,-4.3479,-4.3479,-4.3479,-4.3479,-4.3479,-4.3479,-4.3479,-4.3479,-4.3461,-4.3296,-4.258,-4.1882,-4.1111,-4.0322,-3.9423,-3.8707,-3.8707,-3.8707,-3.8707,-3.8707,-3.8707,-3.8707,-3.8707,-3.8707,-3.8707,-3.8707,-3.8707,-3.8707,-6.0983,-6.0634,-5.9203,-5.8449,-5.8043,-5.667,-5.6012,-5.6012,-5.6012,-5.6003,-5.6003,-5.6003,-5.5877,-5.5567,-5.4387,-5.3536,-5.2937,-5.1854,-5.1169,-5.0937,-5.0898,-5.0898,-5.0879,-5.0677,-5.0109,-4.9251,-4.8306,-4.7513,-4.6648,-4.5935,-4.565,-4.5594,-4.5594,-4.5594,-4.5594,-4.5594,-4.5594,-4.5594,-4.5594,-4.5594,-4.5594,-4.5594,-4.5594,-4.5594,-4.5594,-4.5479,-4.519,-4.4624,-4.3528,-4.1904,-4.0977,-4.0496,-4.0516,-4.0496,-4.0496,-4.0496,-4.0496,-4.0496,-4.0457,-4.0279,-4.0129,-4.0109,-4.0259,-4.0336,-4.0466,-4.0921,-4.1504,-4.2162,-4.2525,-4.2825,-4.3291,-4.3503,-4.3565,-4.3496,-4.3479,-4.3479,-4.3479,-4.3479,-4.3479,-4.3479,-4.3479,-4.3479,-4.3479,-4.3479,-4.3479,-4.3479,-4.3479,-4.3479,-4.3479,-4.3479,-4.3479,-4.3479,-4.3479,-4.3479,-4.3479,-4.3479,-4.3185,-4.2488,-4.1809,-4.1113,-4.0343,-3.957,-3.9001,-3.8707,-3.8707,-3.8707,-3.8707,-3.8707,-3.8707,-3.8707,-3.8707,-3.8707,-3.8707,-3.8707,-3.8707,-6.1152,-6.0962,-5.9382,-5.8687,-5.8404,-5.6796,-5.6099,-5.6083,-5.6018,-5.6003,-5.6003,-5.6003,-5.6003,-5.5857,-5.4639,-5.3846,-5.3343,-5.2066,-5.1293,-5.0917,-5.0898,-5.0898,-5.0898,-5.0898,-5.0465,-4.9618,-4.8728,-4.7838,-4.6929,-4.6069,-4.567,-4.5594,-4.5594,-4.5594,-4.5594,-4.5594,-4.5594,-4.5594,-4.5594,-4.5594,-4.5594,-4.5594,-4.5594,-4.5594,-4.5594,-4.5594,-4.5479,-4.4767,-4.3528,-4.2096,-4.1316,-4.09,-4.0535,-4.0496,-4.0496,-4.0496,-4.0496,-4.0496,-4.0542,-4.06,-4.0702,-4.0797,-4.1113,-4.1561,-4.1858,-4.2222,-4.2702,-4.3465,-4.3492,-4.3714,-4.396,-4.3923,-4.3699,-4.3531,-4.3479,-4.3479,-4.3479,-4.3479,-4.3479,-4.3479,-4.3479,-4.3479,-4.3479,-4.3479,-4.3479,-4.3479,-4.3479,-4.3479,-4.3479,-4.3479,-4.3479,-4.3479,-4.3479,-4.3479,-4.3479,-4.3479,-4.3149,-4.2451,-4.1515,-4.0875,-4.0159,-3.9478,-3.9093,-3.8707,-3.8707,-3.8707,-3.8707,-3.8707,-3.8707,-3.8707,-3.8707,-3.8707,-3.8707,-3.8707,-3.8707,-6.1171,-6.087,-5.9474,-5.8782,-5.8331,-5.6893,-5.6213,-5.6188,-5.6087,-5.6032,-5.6048,-5.6035,-5.6043,-5.5979,-5.487,-5.4188,-5.344,-5.2298,-5.1563,-5.1072,-5.0898,-5.0898,-5.0898,-5.0898,-5.0534,-4.9768,-4.8813,-4.7926,-4.7077,-4.6232,-4.5687,-4.5603,-4.5594,-4.5594,-4.5594,-4.5594,-4.5594,-4.5594,-4.5594,-4.5594,-4.5594,-4.5594,-4.5594,-4.5594,-4.5594,-4.5594,-4.5421,-4.4836,-4.3778,-4.2162,-4.2,-4.1604,-4.0958,-4.0843,-4.0862,-4.0881,-4.09,-4.0804,-4.0838,-4.1297,-4.1504,-4.1667,-4.2203,-4.2822,-4.327,-4.3514,-4.3888,-4.4481,-4.4726,-4.4529,-4.4447,-4.424,-4.3939,-4.3699,-4.3582,-4.3566,-4.3496,-4.3479,-4.3479,-4.3479,-4.3479,-4.3479,-4.3479,-4.3479,-4.3479,-4.3479,-4.3479,-4.3479,-4.3479,-4.3479,-4.3479,-4.3479,-4.3479,-4.3479,-4.3479,-4.3479,-4.302,-4.2415,-4.1277,-4.0451,-3.9753,-3.9166,-3.8909,-3.8707,-3.8707,-3.8707,-3.8707,-3.8707,-3.8707,-3.8707,-3.8707,-3.8707,-3.8707,-3.8707,-3.8707,-6.0903,-6.023,-5.929,-5.8496,-5.7732,-5.6743,-5.6281,-5.6271,-5.6213,-5.6188,-5.6203,-5.6181,-5.6167,-5.607,-5.4711,-5.3693,-5.3325,-5.2051,-5.1053,-5.0975,-5.0898,-5.0898,-5.0898,-5.0898,-5.0805,-5.0232,-4.9013,-4.818,-4.7598,-4.6418,-4.5622,-4.5594,-4.5594,-4.5594,-4.5594,-4.5594,-4.5594,-4.5594,-4.5594,-4.5594,-4.5594,-4.5594,-4.5594,-4.5594,-4.5594,-4.5594,-4.5594,-4.5441,-4.4825,-4.3912,-4.3201,-4.2758,-4.2431,-4.2374,-4.2354,-4.222,-4.1816,-4.1797,-4.2269,-4.2082,-4.2046,-4.2684,-4.3225,-4.3658,-4.3789,-4.4292,-4.4571,-4.4788,-4.4739,-4.472,-4.4559,-4.443,-4.4162,-4.3939,-4.383,-4.3749,-4.3565,-4.3479,-4.3479,-4.3479,-4.3479,-4.3479,-4.3479,-4.3479,-4.3479,-4.3479,-4.3479,-4.3479,-4.3479,-4.3479,-4.3479,-4.3479,-4.3479,-4.3479,-4.3441,-4.3332,-4.2873,-4.2249,-4.1167,-4.0304,-3.9588,-3.9001,-3.8781,-3.8707,-3.8707,-3.8707,-3.8707,-3.8707,-3.8707,-3.8707,-3.8707,-3.8707,-3.8707,-3.8707,-3.8707,-6.0901,-6.0034,-5.9329,-5.8499,-5.7593,-5.6774,-5.6404,-5.637,-5.6295,-5.6261,-5.627,-5.6251,-5.625,-5.6147,-5.4888,-5.4072,-5.3288,-5.1838,-5.0997,-5.0976,-5.0952,-5.0898,-5.0898,-5.0898,-5.0882,-5.0618,-4.9125,-4.8351,-4.7752,-4.6619,-4.5659,-4.5594,-4.5594,-4.5594,-4.5594,-4.5594,-4.5594,-4.5594,-4.5594,-4.5594,-4.5594,-4.5594,-4.5594,-4.5594,-4.5594,-4.5594,-4.5594,-4.5594,-4.5364,-4.4932,-4.447,-4.3835,-4.322,-4.3104,-4.3104,-4.2989,-4.2758,-4.2566,-4.2835,-4.3066,-4.3201,-4.3624,-4.4287,-4.4585,-4.472,-4.5022,-4.5123,-4.5129,-4.5085,-4.4996,-4.4726,-4.4479,-4.4289,-4.403,-4.3844,-4.3699,-4.3531,-4.3479,-4.3479,-4.3479,-4.3479,-4.3479,-4.3479,-4.3479,-4.3479,-4.3479,-4.3479,-4.3479,-4.3479,-4.3479,-4.3479,-4.3479,-4.3479,-4.3461,-4.3404,-4.3149,-4.2708,-4.1992,-4.1075,-4.0396,-3.979,-3.9221,-3.8707,-3.8707,-3.8707,-3.8707,-3.8707,-3.8707,-3.8707,-3.8707,-3.8707,-3.8707,-3.8707,-3.8707,-3.8707,-6.0837,-5.99,-5.9269,-5.8453,-5.7494,-5.6809,-5.6497,-5.6493,-5.6381,-5.6344,-5.6344,-5.634,-5.6348,-5.6114,-5.5397,-5.4551,-5.3321,-5.2042,-5.1109,-5.1097,-5.0984,-5.0954,-5.0952,-5.0921,-5.089,-5.0715,-4.9373,-4.858,-4.7874,-4.6741,-4.5926,-4.5689,-4.5594,-4.5594,-4.5594,-4.5594,-4.5594,-4.5594,-4.5594,-4.5594,-4.5594,-4.5594,-4.5594,-4.5594,-4.5594,-4.5594,-4.5594,-4.5594,-4.5575,-4.5594,-4.5594,-4.4816,-4.3932,-4.347,-4.347,-4.3528,-4.3431,-4.347,-4.372,-4.397,-4.4201,-4.447,-4.5105,-4.5509,-4.5538,-4.5493,-4.5466,-4.5467,-4.541,-4.5241,-4.4908,-4.4644,-4.4346,-4.4045,-4.3732,-4.36,-4.3515,-4.3479,-4.3479,-4.3479,-4.3479,-4.3479,-4.3479,-4.3479,-4.3479,-4.3479,-4.3479,-4.3479,-4.3479,-4.3479,-4.3479,-4.3479,-4.3479,-4.3479,-4.3441,-4.3386,-4.2892,-4.2359,-4.1368,-4.0726,-4.0175,-3.9643,-3.9166,-3.8762,-3.8707,-3.8707,-3.8707,-3.8707,-3.8707,-3.8707,-3.8707,-3.8707,-3.8707,-3.8707,-3.8707,-6.0057,-5.9274,-5.8457,-5.7598,-5.6855,-5.6621,-5.6582,-5.6579,-5.6495,-5.6499,-5.6516,-5.6495,-5.6458,-5.6243,-5.5543,-5.4312,-5.2889,-5.1702,-5.1178,-5.1165,-5.1095,-5.1069,-5.1037,-5.0961,-5.0921,-5.065,-4.9822,-4.9059,-4.8188,-4.724,-4.6298,-4.58,-4.5631,-4.5614,-4.5594,-4.5594,-4.5594,-4.5594,-4.5594,-4.5594,-4.5594,-4.5594,-4.5594,-4.5594,-4.5594,-4.5594,-4.5594,-4.5594,-4.5594,-4.5594,-4.5594,-4.5421,-4.5086,-4.4989,-4.4998,-4.4863,-4.4412,-4.4316,-4.4806,-4.4547,-4.4797,-4.519,-4.5518,-4.5575,-4.5594,-4.5586,-4.555,-4.5505,-4.5429,-4.5258,-4.4849,-4.4714,-4.4484,-4.4151,-4.391,-4.3765,-4.3565,-4.3479,-4.3479,-4.3479,-4.3479,-4.3479,-4.3479,-4.3479,-4.3479,-4.3479,-4.3479,-4.3479,-4.3479,-4.3479,-4.3479,-4.3479,-4.3479,-4.3479,-4.3461,-4.3461,-4.3259,-4.302,-4.2268,-4.1462,-4.0873,-4.0212,-3.968,-3.9019,-3.8707,-3.8707,-3.8707,-3.8707,-3.8707,-3.8707,-3.8707,-3.8707,-3.8707,-3.8707,-3.8707,-5.9899,-5.9121,-5.8262,-5.7383,-5.6699,-5.6621,-5.6621,-5.6582,-5.6558,-5.6579,-5.6581,-5.6558,-5.6554,-5.632,-5.5656,-5.4282,-5.2745,-5.1659,-5.13,-5.1245,-5.1183,-5.1152,-5.1142,-5.103,-5.1017,-5.0879,-5.0445,-4.9525,-4.8326,-4.7422,-4.6571,-4.5874,-4.5657,-4.564,-4.5594,-4.5594,-4.5594,-4.5594,-4.5594,-4.5594,-4.5594,-4.5594,-4.5594,-4.5594,-4.5594,-4.5594,-4.5594,-4.5594,-4.5594,-4.5594,-4.5594,-4.5594,-4.5594,-4.5594,-4.5594,-4.5518,-4.5182,-4.5094,-4.5518,-4.5171,-4.5229,-4.5479,-4.5594,-4.5594,-4.5586,-4.5568,-4.5523,-4.5448,-4.538,-4.5297,-4.5098,-4.4795,-4.4484,-4.425,-4.3971,-4.3699,-4.3566,-4.3496,-4.3479,-4.3479,-4.3479,-4.3479,-4.3479,-4.3479,-4.3479,-4.3479,-4.3479,-4.3479,-4.3479,-4.3479,-4.3479,-4.3479,-4.3479,-4.3479,-4.3479,-4.3479,-4.3479,-4.3314,-4.2947,-4.2158,-4.1279,-4.0506,-3.9662,-3.8891,-3.8744,-3.8707,-3.8707,-3.8707,-3.8707,-3.8707,-3.8707,-3.8707,-3.8707,-3.8707,-3.8707,-5.9512,-5.8848,-5.7988,-5.7226,-5.668,-5.6621,-5.6621,-5.6621,-5.6601,-5.6601,-5.6621,-5.6601,-5.6601,-5.6328,-5.541,-5.4141,-5.2656,-5.1745,-5.1367,-5.1301,-5.1261,-5.1225,-5.1203,-5.1162,-5.1103,-5.1043,-5.0907,-5.0012,-4.8528,-4.7731,-4.6804,-4.6012,-4.5717,-4.5665,-4.564,-4.5603,-4.5594,-4.5594,-4.5594,-4.5594,-4.5594,-4.5594,-4.5594,-4.5594,-4.5594,-4.5594,-4.5594,-4.5594,-4.5594,-4.5594,-4.5594,-4.5594,-4.5594,-4.5594,-4.5594,-4.5594,-4.5594,-4.5594,-4.5594,-4.5575,-4.5498,-4.5594,-4.5594,-4.5594,-4.5577,-4.5522,-4.5457,-4.539,-4.5338,-4.5246,-4.5076,-4.4726,-4.4452,-4.427,-4.3886,-4.3532,-4.36,-4.3582,-4.3496,-4.3479,-4.3479,-4.3479,-4.3479,-4.3479,-4.3479,-4.3479,-4.3479,-4.3479,-4.3479,-4.3479,-4.3479,-4.3479,-4.3479,-4.3479,-4.3479,-4.3479,-4.3479,-4.3424,-4.3057,-4.247,-4.1552,-4.0653,-3.9827,-3.9056,-3.8744,-3.8707,-3.8707,-3.8707,-3.8707,-3.8707,-3.8707,-3.8707,-3.8707,-3.8707,-3.8707,-5.8144,-5.7988,-5.7129,-5.668,-5.6621,-5.6621,-5.6621,-5.6621,-5.6621,-5.6621,-5.6621,-5.6601,-5.6582,-5.6094,-5.4785,-5.3613,-5.2637,-5.1836,-5.1387,-5.1348,-5.1325,-5.1288,-5.1262,-5.1206,-5.1176,-5.1072,-5.1016,-5.0022,-4.8711,-4.8156,-4.7249,-4.6105,-4.5742,-4.5682,-4.5673,-4.564,-4.5594,-4.5594,-4.5594,-4.5594,-4.5594,-4.5594,-4.5594,-4.5594,-4.5594,-4.5594,-4.5594,-4.5594,-4.5594,-4.5594,-4.5594,-4.5594,-4.5594,-4.5594,-4.5594,-4.5594,-4.5594,-4.5594,-4.5594,-4.5594,-4.5594,-4.5594,-4.5594,-4.5594,-4.5549,-4.5475,-4.5419,-4.5419,-4.535,-4.5224,-4.5,-4.4612,-4.4438,-4.4246,-4.3949,-4.3812,-4.383,-4.36,-4.3496,-4.3548,-4.3565,-4.3513,-4.3479,-4.3479,-4.3479,-4.3479,-4.3479,-4.3479,-4.3479,-4.3479,-4.3479,-4.3479,-4.3479,-4.3479,-4.3479,-4.3479,-4.3479,-4.3479,-4.3204,-4.2745,-4.1846,-4.0946,-4.0102,-3.9441,-3.9056,-3.8726,-3.8707,-3.8707,-3.8707,-3.8707,-3.8707,-3.8707,-3.8707,-3.8707,-3.8707,-5.7461,-5.7832,-5.6953,-5.6621,-5.6621,-5.6621,-5.6621,-5.6621,-5.6621,-5.6621,-5.6621,-5.6601,-5.6094,-5.5058,-5.375,-5.2793,-5.2012,-5.1562,-5.1406,-5.1387,-5.1367,-5.1367,-5.1337,-5.1291,-5.1242,-5.1082,-5.0573,-4.9709,-4.8755,-4.8208,-4.7492,-4.6032,-4.577,-4.5727,-4.5695,-4.5654,-4.5657,-4.5648,-4.5612,-4.5594,-4.5594,-4.5594,-4.5594,-4.5594,-4.5594,-4.5594,-4.5594,-4.5594,-4.5594,-4.5594,-4.5594,-4.5594,-4.5594,-4.5594,-4.5594,-4.5594,-4.5594,-4.5594,-4.5594,-4.5594,-4.5594,-4.5594,-4.5594,-4.5577,-4.5531,-4.5495,-4.5438,-4.5419,-4.5379,-4.5237,-4.5057,-4.4807,-4.4676,-4.4465,-4.4102,-4.4102,-4.403,-4.3682,-4.3532,-4.36,-4.3634,-4.3565,-4.3513,-4.3479,-4.3479,-4.3479,-4.3479,-4.3479,-4.3479,-4.3479,-4.3479,-4.3479,-4.3479,-4.3479,-4.3479,-4.3479,-4.3479,-4.3479,-4.3479,-4.2947,-4.2158,-4.1295,-4.0432,-3.9662,-3.9129,-3.8872,-3.8744,-3.8707,-3.8707,-3.8707,-3.8707,-3.8707,-3.8707,-3.8707,-3.8707,-5.6973,-5.75,-5.6855,-5.6621,-5.6621,-5.6621,-5.6621,-5.6621,-5.6621,-5.6484,-5.623,-5.5957,-5.5039,-5.3867,-5.3008,-5.2344,-5.1445,-5.1387,-5.1387,-5.1387,-5.1387,-5.1387,-5.1387,-5.1356,-5.1324,-5.1277,-5.04,-4.9469,-4.8738,-4.8088,-4.7228,-4.5861,-4.5807,-4.5773,-4.5735,-4.5706,-4.5673,-4.5648,-4.5603,-4.5594,-4.5594,-4.5594,-4.5594,-4.5594,-4.5594,-4.5594,-4.5594,-4.5594,-4.5594,-4.5594,-4.5594,-4.5594,-4.5594,-4.5594,-4.5594,-4.5594,-4.5594,-4.5594,-4.5594,-4.5594,-4.5594,-4.5594,-4.5594,-4.5577,-4.5531,-4.5513,-4.5476,-4.5409,-4.5408,-4.5359,-4.5256,-4.4988,-4.4898,-4.4669,-4.4346,-4.4374,-4.4318,-4.3965,-4.3732,-4.3765,-4.3765,-4.3615,-4.3565,-4.3513,-4.3479,-4.3479,-4.3479,-4.3479,-4.3479,-4.3479,-4.3479,-4.3479,-4.3479,-4.3479,-4.3479,-4.3479,-4.3479,-4.3479,-4.3479,-4.3149,-4.2359,-4.1552,-4.0691,-3.9992,-3.9313,-3.8909,-3.8707,-3.8707,-3.8707,-3.8707,-3.8707,-3.8707,-3.8707,-3.8707,-3.8707,-5.664,-5.6699,-5.664,-5.6621,-5.6621,-5.6621,-5.6621,-5.6601,-5.6582,-5.6074,-5.5312,-5.457,-5.3769,-5.2988,-5.2637,-5.2129,-5.1387,-5.1387,-5.1387,-5.1387,-5.1387,-5.1387,-5.1387,-5.1387,-5.1342,-5.115,-5.0254,-4.9348,-4.8542,-4.7612,-4.6783,-4.5937,-4.5824,-4.5815,-4.5785,-4.573,-4.5673,-4.5648,-4.5622,-4.5594,-4.5594,-4.5594,-4.5594,-4.5594,-4.5594,-4.5594,-4.5594,-4.5594,-4.5594,-4.5594,-4.5594,-4.5594,-4.5594,-4.5594,-4.5594,-4.5594,-4.5594,-4.5594,-4.5594,-4.5594,-4.5594,-4.5594,-4.5594,-4.5586,-4.5577,-4.5522,-4.5457,-4.5429,-4.5409,-4.5369,-4.5227,-4.5057,-4.5023,-4.4898,-4.4688,-4.4578,-4.4484,-4.4221,-4.4014,-4.402,-4.391,-4.3749,-4.3565,-4.3496,-4.3479,-4.3479,-4.3479,-4.3479,-4.3479,-4.3479,-4.3479,-4.3479,-4.3479,-4.3479,-4.3479,-4.3479,-4.3479,-4.3479,-4.3479,-4.3112,-4.2561,-4.1772,-4.1095,-4.0286,-3.9625,-3.9129,-3.8707,-3.8707,-3.8707,-3.8707,-3.8707,-3.8707,-3.8707,-3.8707,-3.8707,-5.6621,-5.6621,-5.6621,-5.6621,-5.6621,-5.6621,-5.6621,-5.6504,-5.6035,-5.5293,-5.4433,-5.3613,-5.3027,-5.2637,-5.207,-5.1738,-5.1406,-5.1387,-5.1387,-5.1387,-5.1387,-5.1387,-5.1387,-5.1387,-5.1366,-5.1028,-5.0041,-4.9187,-4.8635,-4.7318,-4.6508,-4.5986,-4.5848,-4.5812,-4.5776,-4.5743,-4.5706,-4.5657,-4.5631,-4.5594,-4.5594,-4.5594,-4.5594,-4.5594,-4.5594,-4.5594,-4.5594,-4.5594,-4.5594,-4.5594,-4.5594,-4.5594,-4.5594,-4.5594,-4.5594,-4.5594,-4.5594,-4.5594,-4.5594,-4.5594,-4.5594,-4.5594,-4.5594,-4.5594,-4.5594,-4.5577,-4.5541,-4.5476,-4.5419,-4.539,-4.5338,-4.5235,-4.5162,-4.5129,-4.5007,-4.4814,-4.4656,-4.4448,-4.4236,-4.4196,-4.4017,-4.3812,-4.3666,-4.3496,-4.3479,-4.3479,-4.3479,-4.3479,-4.3479,-4.3479,-4.3479,-4.3479,-4.3479,-4.3479,-4.3479,-4.3479,-4.3479,-4.3479,-4.3479,-4.3204,-4.2837,-4.2378,-4.168,-4.0781,-3.9955,-3.9423,-3.9038,-3.8799,-3.8707,-3.8707,-3.8707,-3.8707,-3.8707,-3.8707,-3.8707,-5.6621,-5.6621,-5.6621,-5.6621,-5.6621,-5.6621,-5.6445,-5.6133,-5.5586,-5.4609,-5.3574,-5.2734,-5.2324,-5.2129,-5.1758,-5.1445,-5.1406,-5.1387,-5.1387,-5.1387,-5.1387,-5.1387,-5.1387,-5.1348,-5.123,-5.0781,-4.9707,-4.8776,-4.8266,-4.6862,-4.627,-4.6027,-4.5922,-4.5854,-4.5786,-4.5742,-4.5738,-4.5701,-4.5657,-4.5603,-4.5594,-4.5594,-4.5594,-4.5594,-4.5594,-4.5594,-4.5594,-4.5594,-4.5594,-4.5594,-4.5594,-4.5594,-4.5594,-4.5594,-4.5594,-4.5594,-4.5594,-4.5594,-4.5594,-4.5594,-4.5594,-4.5594,-4.5594,-4.5594,-4.5594,-4.5594,-4.5559,-4.5523,-4.5448,-4.54,-4.5408,-4.5317,-4.5246,-4.5213,-4.4957,-4.4795,-4.485,-4.4726,-4.4511,-4.4346,-4.4117,-4.3878,-4.3666,-4.3479,-4.3479,-4.3479,-4.3479,-4.3479,-4.3479,-4.3479,-4.3479,-4.3479,-4.3479,-4.3479,-4.3479,-4.3479,-4.3479,-4.3479,-4.3479,-4.3479,-4.3167,-4.2708,-4.2286,-4.157,-4.0726,-3.9845,-3.9331,-3.9038,-3.8836,-3.8707,-3.8707,-3.8707,-3.8707,-3.8707,-3.8707,-5.6582,-5.6621,-5.6543,-5.6543,-5.6426,-5.6582,-5.6113,-5.5469,-5.5137,-5.418,-5.2734,-5.1875,-5.1543,-5.1523,-5.1445,-5.1406,-5.1387,-5.1387,-5.1387,-5.1387,-5.1387,-5.1387,-5.1387,-5.1328,-5.1074,-5.0195,-4.9316,-4.8496,-4.7714,-4.6718,-4.6228,-4.6076,-4.5988,-4.5886,-4.5807,-4.581,-4.5762,-4.5717,-4.5709,-4.5648,-4.5631,-4.5594,-4.5594,-4.5594,-4.5594,-4.5594,-4.5594,-4.5594,-4.5594,-4.5594,-4.5594,-4.5594,-4.5594,-4.5594,-4.5594,-4.5594,-4.5594,-4.5594,-4.5594,-4.5594,-4.5594,-4.5594,-4.5594,-4.5594,-4.5594,-4.5586,-4.5577,-4.5522,-4.5467,-4.541,-4.5399,-4.5348,-4.5328,-4.5216,-4.4981,-4.4922,-4.4988,-4.4875,-4.4643,-4.4402,-4.4151,-4.3894,-4.3666,-4.3479,-4.3479,-4.3479,-4.3479,-4.3479,-4.3479,-4.3479,-4.3479,-4.3479,-4.3479,-4.3479,-4.3479,-4.3479,-4.3479,-4.3479,-4.3479,-4.3479,-4.3351,-4.2965,-4.2543,-4.2158,-4.1442,-4.0524,-3.9845,-3.9239,-3.8964,-3.8707,-3.8707,-3.8707,-3.8707,-3.8707,-3.8707,-5.5918,-5.4922,-5.5488,-5.539,-5.5,-5.5508,-5.5547,-5.5117,-5.4101,-5.291,-5.1973,-5.1465,-5.1387,-5.1387,-5.1387,-5.1387,-5.1387,-5.1387,-5.1387,-5.1387,-5.1387,-5.1387,-5.1387,-5.1269,-5.0918,-5.0156,-4.9316,-4.8379,-4.7598,-4.6648,-4.6219,-4.6095,-4.5972,-4.5861,-4.5826,-4.581,-4.5785,-4.5773,-4.5734,-4.5665,-4.5657,-4.5631,-4.5594,-4.5594,-4.5594,-4.5594,-4.5594,-4.5594,-4.5594,-4.5594,-4.5594,-4.5594,-4.5594,-4.5594,-4.5594,-4.5594,-4.5594,-4.5594,-4.5594,-4.5594,-4.5594,-4.5594,-4.5594,-4.5594,-4.5594,-4.5594,-4.5586,-4.5568,-4.5495,-4.5448,-4.541,-4.5389,-4.5359,-4.5307,-4.5173,-4.5173,-4.5162,-4.4898,-4.465,-4.4397,-4.4147,-4.386,-4.3599,-4.3496,-4.3479,-4.3479,-4.3479,-4.3479,-4.3479,-4.3479,-4.3479,-4.3479,-4.3479,-4.3479,-4.3479,-4.3479,-4.3479,-4.3479,-4.3479,-4.3479,-4.3296,-4.3129,-4.2837,-4.247,-4.1846,-4.1203,-4.0212,-3.9331,-3.8927,-3.8707,-3.8707,-3.8707,-3.8707,-3.8707,-3.8707,-5.5038,-5.4101,-5.4609,-5.4531,-5.414,-5.4609,-5.4726,-5.418,-5.2891,-5.1914,-5.1484,-5.1406,-5.1387,-5.1387,-5.1387,-5.1387,-5.1387,-5.1387,-5.1387,-5.1387,-5.1387,-5.1387,-5.1348,-5.1074,-5.0391,-4.9726,-4.8887,-4.7969,-4.707,-4.6492,-4.6187,-4.6044,-4.5904,-4.5841,-4.5819,-4.5798,-4.5815,-4.5765,-4.5719,-4.5679,-4.5673,-4.564,-4.5594,-4.5594,-4.5594,-4.5594,-4.5594,-4.5594,-4.5594,-4.5594,-4.5594,-4.5594,-4.5594,-4.5594,-4.5594,-4.5594,-4.5594,-4.5594,-4.5594,-4.5594,-4.5594,-4.5594,-4.5594,-4.5594,-4.5594,-4.5594,-4.5594,-4.5577,-4.555,-4.5495,-4.5448,-4.5438,-4.5379,-4.5309,-4.5286,-4.5286,-4.5045,-4.4776,-4.4525,-4.4275,-4.4026,-4.3728,-4.3565,-4.3531,-4.3479,-4.3479,-4.3479,-4.3479,-4.3479,-4.3479,-4.3479,-4.3479,-4.3479,-4.3479,-4.3479,-4.3479,-4.3479,-4.3479,-4.3479,-4.3479,-4.3461,-4.3314,-4.3057,-4.2763,-4.2194,-4.1442,-4.023,-3.9405,-3.8927,-3.8707,-3.8707,-3.8707,-3.8707,-3.8707,-3.8707,-5.3963,-5.3925,-5.3965,-5.3925,-5.3885,-5.3808,-5.3418,-5.2637,-5.1816,-5.1445,-5.1387,-5.1387,-5.1387,-5.1387,-5.1387,-5.1387,-5.1387,-5.1387,-5.1387,-5.1387,-5.1387,-5.1387,-5.1133,-5.0664,-4.998,-4.9023,-4.8164,-4.7461,-4.6445,-4.6248,-4.6118,-4.6013,-4.5893,-4.5821,-4.58,-4.5819,-4.5798,-4.5769,-4.5758,-4.5711,-4.5698,-4.5648,-4.5622,-4.5614,-4.5594,-4.5594,-4.5594,-4.5594,-4.5594,-4.5594,-4.5594,-4.5594,-4.5594,-4.5594,-4.5594,-4.5594,-4.5594,-4.5594,-4.5594,-4.5594,-4.5594,-4.5594,-4.5594,-4.5594,-4.5594,-4.5594,-4.5594,-4.5586,-4.5559,-4.5513,-4.5505,-4.5438,-4.5389,-4.5319,-4.5275,-4.5098,-4.4856,-4.4585,-4.4322,-4.4045,-4.3744,-4.3548,-4.3513,-4.3479,-4.3479,-4.3479,-4.3479,-4.3479,-4.3479,-4.3479,-4.3479,-4.3479,-4.3479,-4.3479,-4.3479,-4.3479,-4.3479,-4.3479,-4.3479,-4.3479,-4.3479,-4.3479,-4.3296,-4.3002,-4.2561,-4.1735,-4.0579,-3.9606,-3.8817,-3.8707,-3.8707,-3.8707,-3.8707,-3.8707,-3.8707,-5.3275,-5.2244,-5.2809,-5.2731,-5.2186,-5.2147,-5.1992,-5.1738,-5.1484,-5.1387,-5.1387,-5.1387,-5.1387,-5.1387,-5.1387,-5.1387,-5.1387,-5.1387,-5.1387,-5.1387,-5.1387,-5.1387,-5.1074,-5.0488,-4.9707,-4.8848,-4.7969,-4.709,-4.6465,-4.62,-4.6102,-4.6007,-4.5899,-4.5834,-4.5814,-4.5807,-4.5812,-4.5798,-4.5781,-4.575,-4.5722,-4.5682,-4.5657,-4.5612,-4.5594,-4.5594,-4.5594,-4.5594,-4.5594,-4.5594,-4.5594,-4.5594,-4.5594,-4.5594,-4.5594,-4.5594,-4.5594,-4.5594,-4.5594,-4.5594,-4.5594,-4.5594,-4.5594,-4.5594,-4.5594,-4.5594,-4.5594,-4.5586,-4.5577,-4.555,-4.5485,-4.5429,-4.538,-4.5348,-4.5235,-4.5,-4.4726,-4.4452,-4.4177,-4.3923,-4.3632,-4.3513,-4.3496,-4.3479,-4.3479,-4.3479,-4.3479,-4.3479,-4.3479,-4.3479,-4.3479,-4.3479,-4.3479,-4.3479,-4.3479,-4.3479,-4.3479,-4.3479,-4.3479,-4.3479,-4.3479,-4.3479,-4.3479,-4.3149,-4.2561,-4.1864,-4.1003,-4.0031,-3.9019,-3.8762,-3.8726,-3.8707,-3.8707,-3.8707,-3.8707,-5.237,-5.1537,-5.1946,-5.1869,-5.1441,-5.1402,-5.1384,-5.1386,-5.1387,-5.1387,-5.1387,-5.1387,-5.1387,-5.1387,-5.1387,-5.1387,-5.1387,-5.1387,-5.1387,-5.1387,-5.1308,-5.1133,-5.0801,-5.0078,-4.916,-4.8379,-4.7598,-4.6738,-4.6348,-4.6204,-4.6109,-4.605,-4.5933,-4.5905,-4.588,-4.5848,-4.5807,-4.5805,-4.5803,-4.5781,-4.5762,-4.5714,-4.5673,-4.564,-4.5603,-4.5594,-4.5594,-4.5594,-4.5594,-4.5594,-4.5594,-4.5594,-4.5594,-4.5594,-4.5594,-4.5594,-4.5594,-4.5594,-4.5594,-4.5594,-4.5594,-4.5594,-4.5594,-4.5594,-4.5594,-4.5594,-4.5594,-4.5586,-4.5586,-4.5568,-4.5485,-4.541,-4.537,-4.5348,-4.5132,-4.4922,-4.4643,-4.4346,-4.4087,-4.3828,-4.3649,-4.3531,-4.3479,-4.3479,-4.3479,-4.3479,-4.3479,-4.3479,-4.3479,-4.3479,-4.3479,-4.3479,-4.3479,-4.3479,-4.3479,-4.3479,-4.3479,-4.3479,-4.3479,-4.3479,-4.3479,-4.3479,-4.3479,-4.3057,-4.2488,-4.1901,-4.1425,-4.0249,-3.9294,-3.9093,-3.8854,-3.8707,-3.8707,-3.8707,-3.8707,-5.1408,-5.1391,-5.1395,-5.1436,-5.1396,-5.1393,-5.1397,-5.1385,-5.1386,-5.1387,-5.1387,-5.1387,-5.1387,-5.1387,-5.1387,-5.1269,-5.1152,-5.1094,-5.0918,-5.1172,-5.084,-5.0547,-4.9961,-4.9219,-4.8476,-4.7598,-4.6894,-4.6465,-4.6348,-4.6213,-4.615,-4.6086,-4.6026,-4.5993,-4.5982,-4.5911,-4.5867,-4.5854,-4.5826,-4.5795,-4.5785,-4.5738,-4.5682,-4.5693,-4.564,-4.5594,-4.5594,-4.5594,-4.5594,-4.5594,-4.5594,-4.5594,-4.5594,-4.5594,-4.5594,-4.5594,-4.5594,-4.5594,-4.5594,-4.5594,-4.5594,-4.5594,-4.5594,-4.5594,-4.5594,-4.5594,-4.5594,-4.5586,-4.5577,-4.5541,-4.5467,-4.5419,-4.538,-4.5298,-4.5121,-4.491,-4.465,-4.4327,-4.3996,-4.3763,-4.3582,-4.3479,-4.3479,-4.3479,-4.3479,-4.3479,-4.3479,-4.3479,-4.3479,-4.3479,-4.3479,-4.3479,-4.3479,-4.3479,-4.3479,-4.3479,-4.3479,-4.3479,-4.3479,-4.3479,-4.3479,-4.3479,-4.3479,-4.3075,-4.2653,-4.2415,-4.1864,-4.0616,-3.9717,-3.9533,-3.9239,-3.8817,-3.8707,-3.8707,-3.8707,-5.1384,-5.139,-5.1391,-5.1389,-5.1384,-5.1389,-5.1391,-5.1395,-5.1384,-5.1386,-5.1387,-5.1387,-5.1348,-5.1308,-5.1191,-5.0957,-5.0527,-5.043,-5.0078,-4.9824,-4.9687,-4.9668,-4.9141,-4.8457,-4.7832,-4.7402,-4.6855,-4.6289,-4.6289,-4.624,-4.62,-4.6184,-4.6112,-4.6072,-4.6088,-4.5978,-4.5939,-4.5929,-4.5861,-4.5831,-4.5807,-4.5743,-4.5684,-4.5662,-4.5648,-4.5603,-4.5594,-4.5594,-4.5594,-4.5594,-4.5594,-4.5594,-4.5594,-4.5594,-4.5594,-4.5594,-4.5594,-4.5594,-4.5594,-4.5594,-4.5594,-4.5594,-4.5594,-4.5594,-4.5594,-4.5594,-4.5586,-4.5586,-4.554,-4.5504,-4.5448,-4.5419,-4.536,-4.5248,-4.5121,-4.4922,-4.4701,-4.4313,-4.3934,-4.3747,-4.3565,-4.3479,-4.3479,-4.3479,-4.3479,-4.3479,-4.3479,-4.3479,-4.3479,-4.3479,-4.3479,-4.3479,-4.3479,-4.3479,-4.3479,-4.3479,-4.3479,-4.3479,-4.3479,-4.3479,-4.3479,-4.3479,-4.3461,-4.324,-4.291,-4.2708,-4.2121,-4.0873,-4.0157,-4.0029,-3.9496,-3.9038,-3.8762,-3.8707,-3.8707,-5.1398,-5.1384,-5.1384,-5.14,-5.1396,-5.1402,-5.1385,-5.1391,-5.1397,-5.1384,-5.1308,-5.1055,-5.0879,-5.0742,-5.0488,-5.0195,-4.9668,-4.9629,-4.9433,-4.9062,-4.8711,-4.8652,-4.8242,-4.7793,-4.7363,-4.6973,-4.6621,-4.6289,-4.6289,-4.6268,-4.6242,-4.6237,-4.6171,-4.6142,-4.6137,-4.608,-4.6027,-4.5977,-4.591,-4.5861,-4.5831,-4.5754,-4.5715,-4.5695,-4.5654,-4.562,-4.5594,-4.5594,-4.5594,-4.5594,-4.5594,-4.5594,-4.5594,-4.5594,-4.5594,-4.5594,-4.5594,-4.5594,-4.5594,-4.5594,-4.5594,-4.5594,-4.5594,-4.5594,-4.5594,-4.5594,-4.5594,-4.5586,-4.5586,-4.555,-4.5457,-4.54,-4.537,-4.5277,-4.5194,-4.5045,-4.4707,-4.4318,-4.406,-4.3894,-4.3682,-4.3479,-4.3479,-4.3479,-4.3479,-4.3479,-4.3479,-4.3479,-4.3479,-4.3479,-4.3479,-4.3479,-4.3479,-4.3479,-4.3479,-4.3479,-4.3479,-4.3479,-4.3479,-4.3479,-4.3479,-4.3479,-4.3424,-4.3296,-4.3185,-4.3075,-4.2304,-4.1368,-4.0818,-4.0671,-3.9974,-3.9221,-3.8982,-3.8781,-3.8744,-5.1394,-5.1394,-5.1394,-5.1394,-5.1394,-5.1394,-5.14,-5.1367,-5.1273,-5.1201,-5.0973,-5.0195,-4.998,-4.9883,-4.9316,-4.8984,-4.8769,-4.875,-4.8672,-4.8418,-4.8359,-4.791,-4.7578,-4.7324,-4.6914,-4.6621,-4.6348,-4.6289,-4.6289,-4.6289,-4.6289,-4.6289,-4.625,-4.6209,-4.6199,-4.6147,-4.6091,-4.6039,-4.5998,-4.5941,-4.5867,-4.5817,-4.5773,-4.5727,-4.5687,-4.5665,-4.5631,-4.5594,-4.5594,-4.5594,-4.5594,-4.5594,-4.5594,-4.5594,-4.5594,-4.5594,-4.5594,-4.5594,-4.5594,-4.5594,-4.5594,-4.5594,-4.5594,-4.5594,-4.5594,-4.5594,-4.5594,-4.5594,-4.5586,-4.5559,-4.5467,-4.54,-4.536,-4.5319,-4.5237,-4.5143,-4.4745,-4.4388,-4.4221,-4.4064,-4.3814,-4.3582,-4.3479,-4.3479,-4.3479,-4.3479,-4.3479,-4.3479,-4.3479,-4.3479,-4.3479,-4.3479,-4.3479,-4.3479,-4.3479,-4.3479,-4.3479,-4.3479,-4.3479,-4.3479,-4.3479,-4.3479,-4.3479,-4.3479,-4.3369,-4.3277,-4.3039,-4.2341,-4.1882,-4.1297,-4.0304,-3.9515,-3.9331,-3.9129,-3.8891,-5.1394,-5.1394,-5.1394,-5.1375,-5.1355,-5.1375,-5.1396,-5.1261,-5.0605,-5.0356,-5.001,-4.8942,-4.873,-5.0117,-4.9277,-4.8613,-4.7851,-4.7851,-4.7324,-4.6855,-4.7148,-4.6855,-4.6699,-4.6797,-4.6504,-4.6367,-4.6289,-4.6289,-4.6289,-4.6289,-4.6289,-4.6289,-4.6289,-4.6269,-4.6266,-4.6212,-4.6162,-4.6122,-4.6048,-4.5988,-4.5941,-4.588,-4.5822,-4.577,-4.5742,-4.5709,-4.5657,-4.5631,-4.5603,-4.5594,-4.5594,-4.5594,-4.5594,-4.5594,-4.5594,-4.5594,-4.5594,-4.5594,-4.5594,-4.5594,-4.5594,-4.5594,-4.5594,-4.5594,-4.5594,-4.5594,-4.5594,-4.5586,-4.5577,-4.5531,-4.5467,-4.5419,-4.5379,-4.5359,-4.5288,-4.5132,-4.485,-4.4656,-4.4498,-4.4254,-4.3974,-4.3732,-4.3479,-4.3479,-4.3479,-4.3479,-4.3479,-4.3479,-4.3479,-4.3479,-4.3479,-4.3479,-4.3479,-4.3479,-4.3479,-4.3479,-4.3479,-4.3479,-4.3479,-4.3479,-4.3479,-4.3479,-4.3479,-4.3479,-4.3479,-4.3424,-4.3149,-4.2947,-4.247,-4.1772,-4.0616,-3.9827,-3.968,-3.9386,-3.9111]},{"header":{"parameterUnit":"m.s-1","parameterCategory":1,"la1":31.0,"la2":29.5877,"lo1":-88.7671,"lo2":-86.6584,"dy":0.0162,"dx":0.0185,"nx":115,"ny":88,"refTime":"2024-05-19T06:00:00:Z","depth":0,"parameterNumber":3,"parameterNumberName":"V-component_of_WINDS"},"data":[0.0,0.0,0.0,0.0,0.0,0.0,0.0,0.0,0.0,0.0,0.0,0.0,0.0,0.0,0.0,0.0,0.0,0.0,0.0,0.0,0.0,0.0,0.0,0.0,0.0,0.0,0.0,0.0,0.0,0.0,0.0,0.0,0.0,0.0,0.0,0.0,0.0,0.0,0.0,0.0,0.0,0.0,0.0,0.0,0.0,0.0,0.0,0.0,0.0,0.0,0.0,0.0,0.0,0.0,0.0,0.0,0.0,0.0,0.0,0.0,0.0,0.0,0.0,0.0,0.0,0.0,0.0,0.0,0.0,0.0,0.0,0.0,0.0,0.0,0.0,0.0,0.0,0.0,0.0,0.0,0.0,0.0,0.0,0.0,0.0,0.0,0.0,0.0,0.0,0.0,0.0,0.0,0.0,0.0,0.0,0.0,0.0,0.0,0.0,0.0,0.0,0.0,0.0,0.0,0.0,0.0,0.0,0.0,0.0,0.0,0.0,0.0,0.0,0.0,0.0,0.0,0.0,0.0,0.0,0.0,0.0,0.0,0.0,0.0,0.0,0.0,0.0,0.0,0.0,0.0,0.0,0.0,0.0,0.0,0.0,0.0,0.0,0.0,0.0,0.0,0.0,0.0,0.0,0.0,0.0,0.0,0.0,0.0,0.0,0.0,0.0,0.0,0.0,0.0,0.0,0.0,0.0,0.0,0.0,0.0,0.0,0.0,0.0,0.0,0.0,0.0,0.0,0.0,0.0,0.0,0.0,0.0,0.0,0.0,0.0,0.0,0.0,0.0,0.0,0.0,0.0,0.0,0.0,0.0,0.0,0.0,0.0,0.0,0.0,0.0,0.0,0.0,0.0,0.0,0.0,0.0,0.0,0.0,0.0,0.0,0.0,0.0,0.0,0.0,0.0,0.0,0.0,0.0,0.0,0.0,0.0,0.0,0.0,0.0,0.0,0.0,0.0,0.0,0.0,0.0,0.0,0.0,0.0,0.0,0.0,0.0,0.0,0.0,0.0,0.0,0.0,0.0,0.0,0.0,0.0,0.0,0.0,0.0,0.0,0.0,0.0,0.0,0.0,0.0,0.0,0.0,0.0,0.0,0.0,0.0,0.0,0.0,0.0,0.0,0.0,0.0,0.0,0.0,0.0,0.0,0.0,0.0,0.0,0.0,0.0,0.0,0.0,0.0,0.0,0.0,0.0,0.0,0.0,0.0,0.0,0.0,0.0,0.0,0.0,0.0,0.0,0.0,0.0,0.0,0.0,0.0,0.0,0.0,0.0,0.0,0.0,0.0,0.0,0.0,0.0,0.0,0.0,0.0,0.0,0.0,0.0,0.0,0.0,0.0,0.0,0.0,0.0,0.0,0.0,0.0,0.0,0.0,0.0,0.0,0.0,0.0,0.0,0.0,0.0,0.0,0.0,0.0,0.0,0.0,0.0,0.0,0.0,0.0,0.0,0.0,0.0,0.0,0.0,0.0,0.0,0.0,0.0,0.0,0.0,0.0,0.0,0.0,0.0,0.0,0.0,0.0,0.0,0.0,0.0,0.0,0.0,0.0,0.0,0.0,0.0,0.0,0.0,0.0,0.0,0.0,0.0,0.0,0.0,0.0,0.0,0.0,0.0,0.0,0.0,0.0,0.0,0.0,0.0,0.0,0.0,0.0,0.0,0.0,0.0,0.0,0.0,0.0,0.0,0.0,0.0,0.0,0.0,0.0,0.0,0.0,0.0,0.0,0.0,0.0,0.0,0.0,0.0,0.0,0.0,0.0,0.0,0.0,0.0,0.0,0.0,0.0,0.0,0.0,0.0,0.0,0.0,0.0,0.0,0.0,0.0,0.0,0.0,0.0,0.0,0.0,0.0,0.0,0.0,0.0,0.0,0.0,0.0,0.0,0.0,0.0,0.0,0.0,0.0,0.0,0.0,0.0,0.0,0.0,0.0,0.0,0.0,0.0,0.0,0.0,0.0,0.0,0.0,0.0,0.0,0.0,0.0,0.0,0.0,0.0,0.0,0.0,0.0,0.0,0.0,0.0,0.0,0.0,0.0,0.0,0.0,0.0,0.0,0.0,0.0,0.0,0.0,0.0,0.0,0.0,0.0,0.0,0.0,0.0,0.0,0.0,0.0,0.0,0.0,0.0,0.0,0.0,0.0,0.0,0.0,0.0,0.0,0.0,0.0,0.0,0.0,0.0,0.0,0.0,0.0,0.0,0.0,0.0,0.0,0.0,0.0,0.0,0.0,0.0,0.0,0.0,0.0,0.0,0.0,0.0,0.0,0.0,0.0,0.0,0.0,0.0,0.0,0.0,0.0,0.0,0.0,0.0,0.0,0.0,0.0,0.0,0.0,0.0,0.0,0.0,0.0,0.0,0.0,0.0,0.0,0.0,0.0,0.0,0.0,0.0,0.0,0.0,0.0,0.0,0.0,0.0,0.0,0.0,0.0,0.0,0.0,0.0,0.0,0.0,0.0,0.0,0.0,0.0,0.0,0.0,0.0,0.0,0.0,0.0,0.0,0.0,0.0,0.0,0.0,0.0,0.0,0.0,0.0,0.0,0.0,0.0,0.0,0.0,0.0,0.0,0.0,0.0,0.0,0.0,0.0,0.0,0.0,0.0,0.0,0.0,0.0,0.0,0.0,0.0,0.0,0.0,0.0,0.0,0.0,0.0,0.0,0.0,0.0,0.0,0.0,0.0,0.0,0.0,0.0,0.0,0.0,0.0,0.0,0.0,0.0,0.0,0.0,0.0,0.0,0.0,0.0,0.0,0.0,0.0,0.0,0.0,0.0,0.0,0.0,0.0,0.0,0.0,0.0,0.0,0.0,0.0,0.0,0.0,0.0,0.0,0.0,0.0,0.0,0.0,0.0,0.0,0.0,0.0,0.0,0.0,0.0,0.0,0.0,0.0,0.0,0.0,0.0,0.0,0.0,0.0,0.0,0.0,0.0,0.0,0.0,0.0,0.0,0.0,0.0,0.0,0.0,0.0,0.0,0.0,0.0,0.0,0.0,0.0,0.0,0.0,0.0,0.0,0.0,0.0,0.0,0.0,0.0,0.0,0.0,0.0,0.0,0.0,0.0,0.0,0.0,0.0,0.0,0.0,0.0,0.0,0.0,0.0,0.0,0.0,0.0,0.0,0.0,0.0,0.0,0.0,0.0,0.0,0.0,0.0,0.0,0.0,0.0,0.0,0.0,0.0,0.0,0.0,0.0,0.0,0.0,0.0,0.0,0.0,0.0,0.0,0.0,0.0,0.0,0.0,0.0,0.0,0.0,0.0,0.0,0.0,0.0,0.0,0.0,0.0,0.0,0.0,0.0,0.0,0.0,0.0,0.0,0.0,0.0,0.0,0.0,0.0,0.0,0.0,0.0,0.0,0.0,0.0,0.0,0.0,0.0,0.0,0.0,0.0,0.0,0.0,0.0,0.0,0.0,0.0,0.0,0.0,0.0,0.0,0.0,0.0,0.0,0.0,0.0,0.0,0.0,0.0,0.0,0.0,0.0,0.0,0.0,0.0,0.0,0.0,0.0,0.0,0.0,0.0,0.0,0.0,0.0,0.0,0.0,0.0,0.0,0.0,0.0,0.0,0.0,0.0,0.0,0.0,0.0,0.0,0.0,0.0,0.0,0.0,0.0,0.0,0.0,0.0,0.0,0.0,0.0,0.0,0.0,0.0,0.0,0.0,0.0,0.0,0.0,0.0,0.0,0.0,0.0,0.0,0.0,0.0,0.0,0.0,0.0,0.0,0.0,0.0,0.0,0.0,0.0,0.0,0.0,0.0,0.0,0.0,0.0,0.0,0.0,0.0,0.0,0.0,0.0,0.0,0.0,0.0,0.0,0.0,0.0,0.0,0.0,0.0,0.0,0.0,0.0,0.0,0.0,0.0,0.0,0.0,0.0,0.0,0.0,0.0,0.0,0.0,0.0,0.0,0.0,0.0,0.0,0.0,0.0,0.0,0.0,0.0,0.0,0.0,0.0,0.0,0.0,0.0,0.0,0.0,0.0,0.0,0.0,0.0,0.0,0.0,0.0,0.0,0.0,0.0,0.0,0.0,0.0,0.0,0.0,0.0,0.0,0.0,0.0,0.0,0.0,0.0,0.0,0.0,0.0,0.0,0.0,0.0,0.0,0.0,0.0,0.0,0.0,0.0,0.0,0.0,0.0,0.0,0.0,0.0,0.0,0.0,0.0,0.0,0.0,0.0,0.0,0.0,0.0,0.0,0.0,0.0,0.0,0.0,0.0,0.0,0.0,0.0,0.0,0.0,-0.5392,0.0,0.0,0.0,0.0,0.0,0.0,0.0,0.0,0.0,0.0,0.0,0.0,0.0,0.0,0.0,0.0,0.0,0.0,0.0,0.0,0.0,0.0,0.0,0.0,0.0,0.0,0.0,0.0,0.0,0.0,0.0,0.0,0.0,0.0,0.0,0.0,0.0,0.0,0.0,0.0,0.0,0.0,0.0,0.0,0.0,0.0,0.0,0.0,0.0,0.0,0.0,0.0,0.0,0.0,0.0,0.0,0.0,0.0,0.0,0.0,0.0,0.0,0.0,0.0,0.0,0.0,0.0,0.0,0.0,0.0,0.0,0.0,0.0,0.0,0.0,0.0,0.0,0.0,0.0,0.0,0.0,0.0,0.0,0.0,0.0,0.0,0.0,0.0,0.0,0.0,0.0,0.0,0.0,0.0,0.0,0.0,0.0,0.0,0.0,0.0,0.0,0.0,0.0,0.0,0.0,0.0,0.0,0.0,0.0,0.0,-0.5395,-0.5395,-0.5395,-0.5395,-0.5395,0.0,0.0,0.0,0.0,0.0,0.0,0.0,0.0,0.0,0.0,0.0,0.0,0.0,0.0,0.0,0.0,0.0,0.0,0.0,0.0,0.0,0.0,0.0,0.0,0.0,0.0,0.0,0.0,0.0,0.0,0.0,0.0,0.0,0.0,0.0,0.0,0.0,0.0,0.0,0.0,0.0,0.0,0.0,0.0,0.0,0.0,0.0,0.0,0.0,0.0,0.0,0.0,0.0,0.0,0.0,0.0,0.0,0.0,0.0,0.0,0.0,0.0,0.0,0.0,0.0,0.0,0.0,0.0,0.0,0.0,0.0,0.0,0.0,0.0,0.0,0.0,0.0,0.0,0.0,0.0,0.0,0.0,0.0,0.0,0.0,0.0,0.0,0.0,0.0,0.0,0.0,0.0,0.0,0.0,0.0,0.0,0.0,0.0,0.0,0.0,0.0,0.0,0.0,0.0,0.0,0.0,0.0,0.0,0.0,0.0,0.0,0.0,-0.5549,-0.5528,-0.5494,0.0,0.0,0.0,0.0,0.0,0.0,0.0,0.0,0.0,0.0,0.0,0.0,0.0,0.0,0.0,0.0,0.0,0.0,0.0,0.0,0.0,0.0,0.0,0.0,0.0,0.0,0.0,0.0,0.0,0.0,0.0,0.0,0.0,0.0,0.0,0.0,0.0,0.0,0.0,0.0,0.0,0.0,0.0,0.0,0.0,0.0,0.0,0.0,0.0,0.0,0.0,0.0,0.0,0.0,0.0,0.0,0.0,0.0,0.0,0.0,0.0,0.0,0.0,0.0,0.0,0.0,0.0,0.0,0.0,0.0,0.0,0.0,0.0,0.0,0.0,0.0,0.0,0.0,0.0,0.0,0.0,0.0,0.0,0.0,0.0,0.0,0.0,0.0,0.0,0.0,0.0,0.0,0.0,0.0,0.0,0.0,0.0,0.0,0.0,0.0,0.0,0.0,0.0,0.0,0.0,0.0,0.0,0.0,0.0,0.0,-0.559,-0.5956,-0.5929,0.0,-0.5766,0.0,0.0,0.0,0.0,0.0,0.0,0.0,0.0,0.0,0.0,0.0,0.0,0.0,0.0,0.0,0.0,0.0,0.0,0.0,0.0,0.0,0.0,0.0,0.0,0.0,0.0,0.0,0.0,0.0,0.0,0.0,0.0,0.0,0.0,0.0,0.0,0.0,0.0,0.0,0.0,0.0,0.0,0.0,0.0,0.0,0.0,0.0,0.0,0.0,0.0,0.0,0.0,0.0,0.0,0.0,0.0,0.0,0.0,0.0,0.0,0.0,0.0,0.0,0.0,0.0,0.0,0.0,0.0,0.0,0.0,0.0,0.0,0.0,0.0,0.0,0.0,0.0,0.0,0.0,0.0,0.0,0.0,0.0,0.0,0.0,0.0,0.0,0.0,0.0,0.0,0.0,0.0,0.0,0.0,0.0,0.0,0.0,0.0,0.0,0.0,0.0,0.0,0.0,0.0,0.0,0.0,0.0,0.0,0.0,0.0,0.0,-0.6023,-0.5993,-0.5878,0.0,0.0,0.0,0.0,0.0,0.0,0.0,0.0,0.0,0.0,0.0,0.0,0.0,0.0,0.0,0.0,0.0,0.0,0.0,0.0,0.0,0.0,0.0,0.0,0.0,0.0,0.0,0.0,0.0,0.0,0.0,0.0,0.0,0.0,0.0,0.0,0.0,0.0,0.0,0.0,0.0,0.0,0.0,0.0,0.0,0.0,0.0,0.0,0.0,0.0,0.0,0.0,0.0,0.0,0.0,0.0,0.0,0.0,0.0,0.0,0.0,0.0,0.0,0.0,0.0,0.0,0.0,0.0,0.0,0.0,0.0,0.0,0.0,0.0,0.0,0.0,0.0,0.0,0.0,0.0,0.0,0.0,0.0,0.0,0.0,0.0,0.0,0.0,0.0,0.0,0.0,0.0,0.0,0.0,0.0,0.0,0.0,0.0,0.0,0.0,0.0,0.0,0.0,0.0,0.0,0.0,0.0,0.0,0.0,0.0,-0.5962,0.0,-0.6165,-0.6173,-0.6005,-0.5669,0.0,0.0,0.0,0.0,0.0,0.0,0.0,0.0,0.0,0.0,0.0,0.0,0.0,0.0,0.0,0.0,0.0,0.0,0.0,0.0,0.0,0.0,0.0,0.0,0.0,0.0,0.0,0.0,0.0,0.0,0.0,0.0,0.0,0.0,0.0,0.0,0.0,0.0,0.0,0.0,0.0,0.0,0.0,0.0,0.0,0.0,0.0,0.0,0.0,0.0,0.0,0.0,0.0,0.0,0.0,0.0,0.0,0.0,0.0,0.0,0.0,0.0,0.0,0.0,0.0,0.0,0.0,0.0,0.0,0.0,0.0,0.0,0.0,0.0,0.0,0.0,0.0,0.0,0.0,0.0,0.0,0.0,0.0,0.0,0.0,0.0,0.0,0.0,0.0,0.0,0.0,0.0,0.0,0.0,0.0,0.0,0.0,0.0,0.0,0.0,0.0,0.0,0.0,0.0,0.0,0.0,0.0,0.0,0.0,-0.6227,-0.6195,-0.6641,-0.6587,-0.6332,0.0,0.0,0.0,0.0,0.0,0.0,0.0,0.0,0.0,0.0,0.0,0.0,0.0,0.0,0.0,0.0,0.0,0.0,0.0,0.0,0.0,0.0,0.0,0.0,0.0,0.0,0.0,0.0,0.0,0.0,0.0,0.0,0.0,0.0,0.0,0.0,0.0,0.0,0.0,0.0,0.0,0.0,0.0,0.0,0.0,0.0,0.0,0.0,0.0,0.0,0.0,0.0,0.0,0.0,0.0,0.0,0.0,0.0,0.0,0.0,0.0,0.0,0.0,0.0,0.0,0.0,0.0,0.0,0.0,0.0,0.0,0.0,0.0,0.0,0.0,0.0,0.0,0.0,0.0,0.0,0.0,0.0,0.0,0.0,0.0,0.0,0.0,0.0,0.0,0.0,0.0,0.0,0.0,0.0,0.0,0.0,0.0,0.0,0.0,0.0,0.0,0.0,0.0,0.0,0.0,0.0,0.0,0.0,0.0,-0.587,-0.6,-0.6311,-0.6797,-0.6472,-0.6146,0.0,0.0,0.0,0.0,0.0,0.0,0.0,0.0,0.0,0.0,0.0,0.0,0.0,0.0,0.0,0.0,0.0,0.0,0.0,0.0,0.0,0.0,0.0,0.0,0.0,0.0,0.0,0.0,0.0,0.0,0.0,0.0,0.0,0.0,0.0,0.0,0.0,0.0,0.0,0.0,0.0,0.0,0.0,0.0,0.0,0.0,0.0,0.0,0.0,0.0,0.0,0.0,0.0,0.0,0.0,0.0,0.0,0.0,0.0,0.0,0.0,0.0,0.0,0.0,0.0,0.0,0.0,0.0,0.0,0.0,0.0,0.0,0.0,0.0,0.0,0.0,0.0,0.0,0.0,0.0,0.0,0.0,0.0,0.0,0.0,0.0,0.0,0.0,0.0,0.0,0.0,0.0,0.0,0.0,0.0,0.0,0.0,0.0,0.0,0.0,0.0,0.0,0.0,0.0,0.0,0.0,0.0,0.0,0.0,-0.5955,0.0,-0.6663,0.0,-0.6558,-0.6207,0.0,0.0,0.0,0.0,0.0,0.0,0.0,0.0,0.0,0.0,0.0,0.0,0.0,0.0,0.0,0.0,0.0,0.0,0.0,0.0,0.0,0.0,0.0,0.0,0.0,0.0,0.0,0.0,0.0,0.0,0.0,0.0,0.0,0.0,0.0,0.0,0.0,0.0,0.0,0.0,0.0,0.0,0.0,0.0,0.0,0.0,0.0,0.0,0.0,0.0,0.0,0.0,0.0,0.0,0.0,0.0,0.0,0.0,0.0,0.0,0.0,0.0,0.0,0.0,0.0,0.0,0.0,0.0,0.0,0.0,0.0,0.0,0.0,0.0,0.0,0.0,0.0,0.0,0.0,0.0,0.0,0.0,0.0,0.0,0.0,0.0,0.0,0.0,0.0,0.0,0.0,0.0,0.0,0.0,0.0,0.0,0.0,0.0,0.0,0.0,0.0,0.0,0.0,0.0,0.0,0.0,0.0,0.0,-0.6291,-0.7055,-0.7383,-0.7293,-0.6832,-0.69,-0.6479,0.0,0.0,0.0,0.0,0.0,0.0,0.0,0.0,0.0,0.0,0.0,0.0,0.0,0.0,0.0,0.0,0.0,0.0,0.0,0.0,0.0,0.0,0.0,0.0,0.0,0.0,0.0,0.0,0.0,0.0,0.0,0.0,0.0,0.0,0.0,0.0,0.0,0.0,0.0,0.0,0.0,0.0,0.0,0.0,0.0,0.0,0.0,0.0,0.0,0.0,0.0,0.0,0.0,0.0,0.0,0.0,0.0,0.0,0.0,0.0,0.0,0.0,0.0,0.0,0.0,0.0,0.0,0.0,0.0,0.0,0.0,0.0,0.0,0.0,0.0,0.0,0.0,0.0,0.0,0.0,0.0,0.0,0.0,0.0,0.0,0.0,0.0,0.0,0.0,0.0,0.0,0.0,0.0,0.0,0.0,0.0,0.0,0.0,0.0,0.0,0.0,0.0,0.0,0.0,0.0,0.0,0.0,0.0,0.0,-0.6611,-0.6959,-0.7225,-0.7387,-0.6746,-0.6394,0.0,0.0,0.0,0.0,0.0,0.0,0.0,0.0,0.0,0.0,0.0,0.0,0.0,0.0,0.0,0.0,0.0,0.0,0.0,0.0,0.0,0.0,0.0,0.0,0.0,0.0,0.0,0.0,0.0,0.0,0.0,0.0,0.0,0.0,0.0,0.0,0.0,0.0,0.0,0.0,0.0,0.0,0.0,0.0,0.0,0.0,0.0,0.0,0.0,0.0,0.0,0.0,0.0,0.0,0.0,0.0,0.0,0.0,0.0,0.0,0.0,0.0,0.0,0.0,0.0,0.0,0.0,0.0,0.0,0.0,0.0,0.0,0.0,0.0,0.0,0.0,0.0,0.0,0.0,0.0,0.0,0.0,0.0,0.0,0.0,0.0,0.0,0.0,0.0,0.0,0.0,0.0,0.0,0.0,0.0,0.0,0.0,0.0,0.0,0.0,0.0,0.0,0.0,0.0,0.0,0.0,0.0,0.0,0.0,-0.7712,-0.7606,-0.7647,-0.7804,-0.7022,-0.6638,-0.6687,0.0,0.0,0.0,0.0,0.0,0.0,0.0,0.0,0.0,0.0,0.0,0.0,0.0,0.0,0.0,0.0,0.0,0.0,0.0,0.0,0.0,0.0,0.0,0.0,0.0,0.0,0.0,0.0,0.0,0.0,0.0,0.0,0.0,0.0,0.0,0.0,0.0,0.0,0.0,0.0,0.0,0.0,0.0,0.0,0.0,0.0,0.0,0.0,0.0,0.0,0.0,0.0,0.0,0.0,0.0,0.0,0.0,0.0,0.0,0.0,0.0,0.0,0.0,0.0,0.0,0.0,0.0,0.0,0.0,0.0,0.0,0.0,0.0,0.0,0.0,0.0,0.0,0.0,0.0,0.0,0.0,0.0,0.0,0.0,0.0,0.0,0.0,0.0,0.0,0.0,0.0,0.0,0.0,0.0,0.0,0.0,0.0,0.0,0.0,0.0,0.0,0.0,0.0,0.0,0.0,0.0,0.0,0.0,-1.0062,-0.9333,-0.8705,-0.8221,-0.7894,-0.7315,0.0,0.0,0.0,0.0,0.0,0.0,0.0,0.0,0.0,0.0,0.0,0.0,0.0,0.0,0.0,0.0,0.0,0.0,0.0,0.0,0.0,0.0,0.0,0.0,0.0,0.0,0.0,0.0,0.0,0.0,0.0,0.0,0.0,0.0,0.0,0.0,0.0,0.0,0.0,0.0,0.0,0.0,0.0,0.0,0.0,0.0,0.0,0.0,0.0,0.0,0.0,0.0,0.0,0.0,0.0,0.0,0.0,0.0,0.0,0.0,0.0,0.0,0.0,0.0,0.0,0.0,0.0,0.0,0.0,0.0,0.0,0.0,0.0,0.0,0.0,0.0,0.0,0.0,0.0,0.0,0.0,0.0,0.0,0.0,0.0,0.0,0.0,0.0,0.0,0.0,0.0,0.0,0.0,0.0,0.0,0.0,0.0,0.0,0.0,0.0,0.0,0.0,0.0,0.0,0.0,0.0,0.0,0.0,0.0,-1.2085,-1.19,-1.1356,-1.0548,-1.0181,-0.9213,0.0,0.0,0.0,0.0,0.0,0.0,0.0,0.0,0.0,0.0,0.0,0.0,0.0,0.0,0.0,0.0,0.0,0.0,0.0,0.0,0.0,0.0,0.0,0.0,0.0,0.0,0.0,0.0,0.0,0.0,0.0,0.0,0.0,0.0,0.0,0.0,0.0,0.0,0.0,0.0,0.0,0.0,0.0,0.0,0.0,0.0,0.0,0.0,0.0,0.0,0.0,0.0,0.0,0.0,0.0,0.0,0.0,0.0,0.0,0.0,0.0,0.0,0.0,0.0,0.0,0.0,0.0,0.0,0.0,0.0,0.0,0.0,0.0,0.0,0.0,0.0,0.0,0.0,0.0,0.0,0.0,0.0,0.0,0.0,0.0,0.0,0.0,0.0,0.0,0.0,0.0,0.0,0.0,0.0,0.0,0.0,0.0,0.0,0.0,0.0,0.0,0.0,0.0,0.0,0.0,0.0,0.0,0.0,-1.0593,-1.354,-1.3731,-1.3524,-1.3039,-1.2064,-1.0653,0.0,0.0,0.0,0.0,0.0,0.0,0.0,0.0,0.0,0.0,0.0,0.0,0.0,0.0,0.0,0.0,0.0,0.0,0.0,0.0,0.0,0.0,0.0,0.0,0.0,0.0,0.0,0.0,0.0,0.0,0.0,0.0,0.0,0.0,0.0,0.0,0.0,0.0,0.0,0.0,0.0,0.0,0.0,0.0,0.0,0.0,0.0,0.0,0.0,0.0,0.0,0.0,0.0,0.0,0.0,0.0,0.0,0.0,0.0,0.0,0.0,0.0,0.0,0.0,0.0,0.0,0.0,0.0,0.0,0.0,0.0,0.0,0.0,0.0,0.0,0.0,0.0,0.0,0.0,0.0,0.0,0.0,0.0,0.0,0.0,0.0,0.0,0.0,0.0,0.0,0.0,0.0,0.0,0.0,0.0,0.0,0.0,0.0,0.0,0.0,0.0,0.0,0.0,0.0,0.0,0.0,0.0,0.0,-1.1318,-1.4337,-1.4852,-1.516,-1.5261,-1.3643,-1.1775,0.0,0.0,0.0,0.0,0.0,0.0,0.0,0.0,0.0,0.0,0.0,0.0,0.0,0.0,0.0,0.0,0.0,0.0,0.0,0.0,0.0,0.0,0.0,0.0,0.0,0.0,0.0,0.0,0.0,0.0,0.0,0.0,0.0,0.0,0.0,0.0,0.0,0.0,0.0,0.0,0.0,0.0,0.0,0.0,0.0,0.0,0.0,0.0,0.0,0.0,0.0,0.0,0.0,0.0,0.0,0.0,0.0,0.0,0.0,0.0,0.0,0.0,0.0,0.0,0.0,0.0,0.0,0.0,0.0,0.0,0.0,0.0,0.0,0.0,0.0,0.0,0.0,0.0,0.0,0.0,0.0,0.0,0.0,0.0,0.0,0.0,0.0,0.0,0.0,0.0,0.0,0.0,0.0,0.0,0.0,0.0,0.0,0.0,0.0,0.0,0.0,0.0,0.0,0.0,0.0,0.0,0.0,0.0,-1.2522,-1.3985,-1.4335,-1.4971,-1.6004,-1.5216,-1.3086,0.0,0.0,0.0,0.0,0.0,0.0,0.0,0.0,0.0,0.0,0.0,0.0,0.0,0.0,0.0,0.0,0.0,0.0,0.0,0.0,0.0,0.0,0.0,0.0,0.0,0.0,0.0,0.0,0.0,0.0,0.0,0.0,0.0,0.0,0.0,0.0,0.0,0.0,0.0,0.0,0.0,0.0,0.0,0.0,0.0,0.0,0.0,0.0,-0.9251,0.0,0.0,0.0,0.0,0.0,0.0,0.0,0.0,0.0,0.0,0.0,0.0,0.0,0.0,0.0,0.0,0.0,0.0,0.0,0.0,0.0,0.0,0.0,0.0,0.0,0.0,0.0,0.0,0.0,0.0,0.0,0.0,0.0,0.0,0.0,0.0,0.0,0.0,0.0,0.0,0.0,0.0,0.0,0.0,0.0,0.0,0.0,0.0,0.0,0.0,0.0,0.0,0.0,0.0,0.0,0.0,0.0,0.0,0.0,-1.293,-1.4921,-1.4661,-1.4806,-1.5482,-1.5584,-1.3926,0.0,0.0,0.0,0.0,0.0,0.0,0.0,0.0,0.0,0.0,0.0,0.0,0.0,0.0,0.0,0.0,0.0,0.0,0.0,0.0,0.0,0.0,0.0,0.0,0.0,0.0,0.0,0.0,0.0,0.0,0.0,0.0,0.0,0.0,0.0,0.0,0.0,0.0,0.0,0.0,0.0,0.0,0.0,0.0,0.0,0.0,0.0,0.0,0.0,0.0,0.0,0.0,0.0,0.0,0.0,0.0,0.0,0.0,0.0,0.0,0.0,0.0,0.0,0.0,0.0,0.0,0.0,0.0,0.0,0.0,0.0,0.0,0.0,0.0,0.0,0.0,0.0,0.0,0.0,0.0,0.0,0.0,0.0,0.0,0.0,0.0,0.0,0.0,0.0,0.0,0.0,0.0,0.0,0.0,0.0,0.0,0.0,0.0,0.0,0.0,0.0,0.0,0.0,0.0,0.0,0.0,0.0,-1.1126,-1.3059,-1.5755,-1.5041,-1.4648,-1.4832,-1.5306,-1.4274,-1.1596,0.0,0.0,0.0,0.0,0.0,0.0,0.0,0.0,0.0,0.0,0.0,0.0,0.0,0.0,0.0,0.0,0.0,0.0,0.0,0.0,0.0,0.0,0.0,0.0,0.0,0.0,0.0,0.0,0.0,0.0,0.0,0.0,0.0,0.0,0.0,0.0,0.0,0.0,-0.9251,-1.0316,0.0,0.0,0.0,0.0,0.0,0.0,0.0,0.0,-1.0095,0.0,0.0,0.0,0.0,0.0,0.0,0.0,0.0,0.0,0.0,0.0,0.0,0.0,0.0,0.0,0.0,0.0,0.0,0.0,0.0,0.0,0.0,0.0,0.0,0.0,0.0,0.0,0.0,0.0,0.0,0.0,0.0,0.0,0.0,0.0,0.0,0.0,0.0,0.0,0.0,0.0,0.0,0.0,0.0,0.0,0.0,0.0,0.0,0.0,0.0,0.0,0.0,0.0,0.0,0.0,0.0,-0.9294,-1.1577,-1.3252,-1.4237,-1.4121,-1.4467,-1.5324,-1.4824,-1.3468,-1.1326,0.0,0.0,0.0,0.0,0.0,0.0,0.0,0.0,0.0,0.0,0.0,0.0,0.0,0.0,0.0,0.0,0.0,0.0,0.0,0.0,0.0,0.0,0.0,0.0,0.0,0.0,0.0,0.0,0.0,0.0,0.0,0.0,0.0,0.0,0.0,0.0,0.0,0.0,0.0,-1.0646,-1.1139,0.0,0.0,0.0,0.0,0.0,0.0,0.0,0.0,-0.9945,0.0,0.0,0.0,0.0,0.0,0.0,0.0,0.0,0.0,0.0,0.0,0.0,0.0,0.0,0.0,0.0,0.0,0.0,0.0,0.0,0.0,0.0,0.0,0.0,0.0,0.0,0.0,0.0,0.0,0.0,0.0,0.0,0.0,0.0,0.0,0.0,0.0,0.0,0.0,0.0,0.0,0.0,0.0,0.0,0.0,0.0,0.0,0.0,0.0,0.0,0.0,0.0,0.0,0.0,0.0,-0.9632,-1.2031,-1.3795,-1.4667,-1.4833,-1.4888,-1.4861,-1.4389,-1.2979,0.0,0.0,0.0,0.0,0.0,0.0,0.0,0.0,0.0,0.0,0.0,0.0,0.0,0.0,0.0,0.0,0.0,0.0,0.0,0.0,0.0,0.0,0.0,0.0,0.0,0.0,0.0,0.0,0.0,0.0,0.0,0.0,0.0,0.0,0.0,0.0,0.0,0.0,0.0,0.0,-1.0963,-1.1292,-1.1196,0.0,0.0,0.0,0.0,0.0,0.0,-1.0829,-1.0488,0.0,0.0,0.0,0.0,0.0,0.0,0.0,0.0,0.0,0.0,0.0,0.0,0.0,0.0,0.0,0.0,0.0,0.0,0.0,0.0,0.0,0.0,0.0,0.0,0.0,0.0,0.0,0.0,0.0,0.0,0.0,0.0,0.0,0.0,0.0,0.0,0.0,0.0,0.0,0.0,0.0,0.0,0.0,0.0,0.0,0.0,0.0,0.0,0.0,0.0,0.0,0.0,0.0,0.0,0.0,-0.9954,-1.2223,-1.4054,-1.5311,-1.554,-1.5261,-1.443,-1.4225,-1.2899,0.0,0.0,0.0,0.0,0.0,0.0,0.0,0.0,0.0,0.0,0.0,0.0,0.0,0.0,0.0,0.0,0.0,0.0,0.0,0.0,0.0,0.0,0.0,0.0,0.0,0.0,0.0,0.0,0.0,0.0,0.0,0.0,0.0,0.0,0.0,0.0,0.0,0.0,0.0,0.0,0.0,-1.1647,-1.1377,-1.1558,0.0,0.0,0.0,0.0,-1.183,-1.1621,0.0,0.0,0.0,0.0,0.0,0.0,0.0,0.0,0.0,0.0,0.0,0.0,0.0,0.0,0.0,0.0,0.0,0.0,0.0,0.0,0.0,0.0,0.0,0.0,0.0,0.0,0.0,0.0,0.0,0.0,0.0,0.0,0.0,0.0,0.0,0.0,0.0,0.0,0.0,0.0,0.0,0.0,0.0,0.0,0.0,0.0,0.0,0.0,0.0,0.0,0.0,0.0,0.0,0.0,0.0,0.0,-0.9643,-1.1751,-1.3455,-1.4709,-1.5077,-1.5035,-1.4682,-1.4788,-1.3793,0.0,0.0,0.0,0.0,0.0,0.0,0.0,0.0,0.0,0.0,0.0,0.0,0.0,0.0,0.0,0.0,0.0,0.0,0.0,0.0,0.0,0.0,0.0,0.0,0.0,0.0,0.0,0.0,0.0,0.0,0.0,0.0,0.0,0.0,0.0,0.0,0.0,0.0,0.0,0.0,0.0,-1.2719,-1.1931,-1.2071,-1.2281,0.0,0.0,-1.233,-1.2927,-1.2987,0.0,0.0,0.0,0.0,0.0,0.0,0.0,0.0,0.0,0.0,0.0,0.0,0.0,0.0,0.0,0.0,0.0,0.0,0.0,0.0,0.0,0.0,0.0,0.0,0.0,0.0,0.0,0.0,0.0,0.0,0.0,0.0,0.0,0.0,0.0,0.0,0.0,0.0,0.0,0.0,0.0,0.0,0.0,0.0,0.0,0.0,0.0,0.0,0.0,0.0,0.0,0.0,0.0,0.0,0.0,-0.8122,-0.9485,-1.1678,-1.3411,-1.4651,-1.4987,-1.4959,-1.4688,-1.3907,-1.2716,0.0,0.0,0.0,0.0,0.0,0.0,0.0,0.0,0.0,0.0,0.0,0.0,0.0,0.0,0.0,0.0,0.0,0.0,0.0,0.0,0.0,0.0,0.0,0.0,0.0,0.0,0.0,0.0,0.0,0.0,0.0,0.0,0.0,0.0,0.0,0.0,0.0,0.0,0.0,0.0,0.0,0.0,-1.2826,-1.2947,0.0,0.0,0.0,-1.3174,-1.3641,0.0,0.0,0.0,0.0,0.0,0.0,0.0,0.0,0.0,0.0,0.0,0.0,0.0,0.0,0.0,0.0,0.0,0.0,0.0,0.0,0.0,0.0,0.0,0.0,0.0,0.0,0.0,0.0,0.0,0.0,0.0,0.0,0.0,0.0,0.0,0.0,0.0,0.0,0.0,0.0,0.0,0.0,0.0,0.0,0.0,0.0,0.0,0.0,0.0,0.0,0.0,0.0,0.0,0.0,0.0,0.0,0.0,-0.943,-1.1563,-1.3333,-1.4573,-1.479,-1.4659,-1.4167,-1.3157,0.0,0.0,0.0,0.0,0.0,0.0,0.0,0.0,0.0,0.0,0.0,0.0,0.0,0.0,0.0,0.0,0.0,0.0,0.0,0.0,0.0,0.0,0.0,0.0,0.0,0.0,0.0,-0.5782,0.0,0.0,0.0,0.0,0.0,0.0,0.0,0.0,0.0,0.0,0.0,0.0,0.0,0.0,-1.2525,-1.3373,-1.374,-1.4055,0.0,0.0,-1.4021,-1.4175,-1.3955,-1.3353,0.0,0.0,0.0,0.0,0.0,0.0,0.0,0.0,0.0,0.0,0.0,0.0,0.0,0.0,0.0,0.0,0.0,0.0,0.0,0.0,0.0,0.0,0.0,0.0,0.0,0.0,0.0,0.0,0.0,0.0,0.0,0.0,0.0,0.0,0.0,0.0,0.0,0.0,0.0,0.0,0.0,0.0,0.0,0.0,0.0,0.0,0.0,0.0,0.0,0.0,0.0,0.0,0.0,0.0,0.0,-0.9397,-1.1219,-1.2858,-1.4268,-1.4346,-1.3832,-1.2728,-1.3147,-1.2035,0.0,0.0,0.0,0.0,0.0,0.0,0.0,0.0,0.0,0.0,0.0,0.0,0.0,0.0,0.0,0.0,0.0,0.0,0.0,0.0,0.0,0.0,0.0,0.0,0.0,0.0,0.0,0.0,0.0,0.0,0.0,0.0,0.0,0.0,0.0,0.0,0.0,0.0,0.0,0.0,0.0,-1.3153,-1.3227,-1.4175,-1.4928,0.0,0.0,-1.479,-1.4529,-1.4917,-1.4576,-1.2592,0.0,0.0,0.0,0.0,0.0,0.0,0.0,0.0,0.0,0.0,0.0,0.0,0.0,0.0,0.0,0.0,0.0,0.0,0.0,0.0,0.0,0.0,0.0,0.0,0.0,0.0,0.0,0.0,0.0,0.0,0.0,0.0,0.0,0.0,0.0,0.0,0.0,0.0,0.0,0.0,0.0,0.0,0.0,0.0,0.0,0.0,0.0,0.0,0.0,0.0,0.0,0.0,0.0,-0.7783,-0.9382,-1.108,-1.2716,-1.4208,-1.4141,-1.3497,-1.2306,-1.2091,-1.0961,0.0,0.0,0.0,0.0,0.0,0.0,0.0,0.0,0.0,0.0,0.0,0.0,0.0,0.0,0.0,0.0,0.0,0.0,0.0,0.0,0.0,0.0,0.0,0.0,0.0,0.0,0.0,0.0,-0.7335,-0.7559,-0.7559,0.0,0.0,0.0,0.0,0.0,0.0,0.0,0.0,0.0,0.0,-1.3534,-1.4422,-1.4943,0.0,0.0,-1.5344,-1.5251,-1.5317,-1.491,-1.4202,-1.3046,-1.2251,0.0,0.0,0.0,0.0,0.0,0.0,0.0,0.0,0.0,0.0,0.0,0.0,0.0,0.0,0.0,0.0,0.0,0.0,0.0,0.0,0.0,0.0,0.0,0.0,0.0,0.0,0.0,0.0,0.0,0.0,0.0,0.0,0.0,0.0,0.0,0.0,0.0,0.0,0.0,0.0,0.0,0.0,0.0,0.0,0.0,0.0,0.0,0.0,0.0,0.0,0.0,0.0,-0.7886,-0.9537,-1.1154,-1.2626,-1.3997,-1.396,-1.3269,-1.201,-1.1423,-1.0205,0.0,0.0,0.0,0.0,0.0,0.0,0.0,0.0,0.0,0.0,0.0,0.0,0.0,0.0,0.0,0.0,0.0,0.0,0.0,0.0,0.0,0.0,0.0,0.0,0.0,0.0,0.0,0.0,-0.7772,-0.7866,-0.7802,0.0,0.0,0.0,0.0,0.0,0.0,0.0,0.0,0.0,0.0,-1.38,-1.5197,-1.5471,-1.5605,-1.5751,-1.5658,-1.5538,-1.5571,-1.4957,-1.4195,-1.3347,0.0,0.0,0.0,0.0,0.0,0.0,0.0,0.0,0.0,0.0,0.0,0.0,0.0,0.0,0.0,0.0,0.0,0.0,0.0,0.0,0.0,0.0,0.0,0.0,0.0,0.0,0.0,0.0,0.0,0.0,0.0,0.0,0.0,0.0,0.0,0.0,0.0,0.0,0.0,0.0,0.0,0.0,0.0,0.0,0.0,0.0,0.0,0.0,0.0,0.0,0.0,0.0,0.0,-0.8062,-0.9868,-1.1245,-1.2529,-1.3459,-1.3773,-1.3176,-1.1743,-1.1299,-0.9988,-0.7679,0.0,0.0,0.0,0.0,0.0,0.0,0.0,0.0,0.0,0.0,0.0,0.0,0.0,0.0,0.0,0.0,0.0,0.0,0.0,0.0,0.0,0.0,0.0,0.0,0.0,0.0,-0.7852,-0.7905,-0.7806,0.0,0.0,0.0,0.0,0.0,0.0,0.0,0.0,0.0,0.0,-1.3247,-1.4026,-1.5231,-1.5638,-1.5812,-1.5825,-1.5771,-1.5631,-1.5097,-1.5236,-1.4877,0.0,0.0,0.0,0.0,0.0,0.0,0.0,0.0,0.0,0.0,0.0,0.0,0.0,0.0,0.0,0.0,0.0,0.0,0.0,0.0,0.0,0.0,0.0,0.0,0.0,0.0,0.0,0.0,-0.5098,0.0,0.0,0.0,0.0,0.0,0.0,0.0,0.0,0.0,0.0,0.0,-0.6085,-0.6237,0.0,0.0,0.0,0.0,0.0,0.0,0.0,0.0,0.0,0.0,0.0,0.0,-0.6937,-0.8458,-0.9396,-1.0716,-1.2524,-1.2502,-1.2198,-1.1716,-1.0594,-0.8815,-0.6226,0.0,0.0,0.0,0.0,0.0,0.0,0.0,0.0,0.0,0.0,0.0,0.0,0.0,0.0,0.0,0.0,0.0,0.0,0.0,0.0,0.0,0.0,0.0,0.0,0.0,-0.7375,0.0,0.0,0.0,0.0,0.0,0.0,0.0,0.0,0.0,0.0,0.0,-1.1904,-1.3173,-1.4021,-1.481,-1.5578,-1.5718,-1.5825,0.0,0.0,0.0,0.0,0.0,0.0,0.0,0.0,0.0,0.0,0.0,0.0,0.0,0.0,-1.3253,-1.1583,-1.1089,-1.1015,-1.1116,0.0,0.0,0.0,0.0,0.0,0.0,0.0,0.0,0.0,0.0,0.0,0.0,0.0,0.0,0.0,0.0,-0.5616,0.0,0.0,0.0,0.0,0.0,0.0,0.0,0.0,-0.6417,-0.6685,-0.6695,-0.6844,-0.678,0.0,-0.6495,-0.6135,0.0,0.0,0.0,0.0,0.0,0.0,0.0,0.0,-0.6789,-0.8016,-0.8826,-0.9953,-1.1265,-1.157,-1.1634,-1.1542,-1.0196,-0.845,-0.6351,-0.6442,-0.6149,0.0,0.0,0.0,0.0,0.0,0.0,0.0,0.0,0.0,0.0,0.0,0.0,0.0,0.0,0.0,0.0,0.0,0.0,0.0,0.0,0.0,0.0,0.0,-0.7652,0.0,0.0,0.0,0.0,0.0,0.0,0.0,0.0,0.0,-1.02,-1.1583,-1.2986,-1.3975,-1.4683,-1.5284,-1.5718,0.0,0.0,0.0,0.0,0.0,0.0,0.0,-1.4977,-1.5008,-1.4656,-1.4359,-1.4396,-1.4629,-1.4763,-1.4512,0.0,0.0,-1.2933,-1.2288,-1.2075,-1.2311,-1.2104,-1.2123,-1.2855,-1.3099,-1.3506,0.0,0.0,0.0,0.0,0.0,0.0,0.0,0.0,-0.5337,-0.5716,0.0,-0.6139,0.0,0.0,0.0,0.0,0.0,0.0,0.0,0.0,-0.7132,-0.7426,-0.7422,-0.7433,-0.7433,-0.7429,-0.7366,-0.7108,-0.6515,-0.5808,0.0,0.0,0.0,0.0,0.0,0.0,-0.7606,-0.8388,-0.9545,-1.0091,-0.9903,-1.0965,-1.1454,-1.1203,-0.9938,-0.8794,-0.7886,-0.689,-0.6413,-0.6386,-0.5698,0.0,0.0,0.0,0.0,0.0,0.0,0.0,0.0,0.0,0.0,0.0,0.0,0.0,0.0,0.0,0.0,0.0,0.0,0.0,0.0,-0.8425,0.0,0.0,0.0,0.0,0.0,0.0,0.0,0.0,0.0,0.0,-1.1209,-1.2371,-1.3687,-1.4861,0.0,0.0,0.0,0.0,-1.5825,-1.5825,-1.5825,-1.5684,-1.5464,-1.5631,-1.5611,-1.5135,0.0,0.0,-1.5129,-1.5224,-1.5224,-1.4669,-1.483,-1.4997,-1.4995,-1.4001,-1.3454,-1.3928,-1.3434,-1.3138,-1.3615,-1.4152,-1.4683,-0.4817,0.0,0.0,0.0,0.0,-0.517,-0.5669,-0.617,-0.6689,-0.6869,-0.6885,-0.6802,0.0,0.0,0.0,0.0,0.0,0.0,-0.681,-0.6923,-0.7353,-0.759,-0.7692,-0.7794,-0.7794,-0.7689,-0.7685,-0.7489,-0.7156,-0.679,-0.6159,-0.525,0.0,0.0,0.0,0.0,-0.6775,-0.7219,-0.7759,-0.8284,-0.889,-0.9244,-0.9593,-0.9866,-0.8941,-0.8143,-0.7436,-0.6777,-0.6494,-0.6525,-0.5731,0.0,0.0,0.0,0.0,0.0,0.0,0.0,0.0,0.0,0.0,0.0,0.0,0.0,0.0,0.0,0.0,0.0,0.0,0.0,-0.7826,-0.827,-0.8477,0.0,0.0,0.0,0.0,0.0,0.0,0.0,0.0,0.0,-1.2867,-1.3801,-1.4707,0.0,0.0,-1.5691,-1.5771,-1.5825,-1.5825,-1.5825,0.0,0.0,0.0,-1.5605,-1.5531,-1.5578,-1.5678,-1.5772,-1.5611,-1.5651,-1.5651,-1.5471,-1.5478,-1.5578,-1.5538,-1.4983,-1.4549,-1.47,-1.4539,-1.4877,-1.6156,-1.6402,-1.6713,-0.6197,-0.567,-0.5045,-0.5223,-0.5931,-0.6437,-0.6855,-0.7263,-0.7615,-0.7702,-0.7577,-0.7415,-0.7146,-0.673,-0.6481,0.0,0.0,0.0,-0.721,-0.7368,-0.76,-0.7763,-0.7902,-0.7944,-0.7944,-0.7853,-0.7902,-0.778,-0.7543,-0.7405,-0.6913,-0.6084,0.0,0.0,-0.5945,-0.6248,-0.6491,-0.6787,-0.6977,-0.736,-0.7925,-0.8321,-0.8918,-0.9689,-0.8696,-0.7988,-0.778,-0.704,-0.6524,-0.6216,-0.6017,-0.5572,0.0,0.0,0.0,0.0,0.0,0.0,0.0,0.0,0.0,0.0,0.0,-0.4593,-0.3814,0.0,0.0,0.0,-0.686,-0.7682,-0.8212,-0.8751,0.0,0.0,0.0,0.0,0.0,0.0,0.0,-1.1817,-1.3066,-1.4015,-1.4309,-1.4903,-1.5371,-1.5545,-1.5671,-1.5825,-1.5825,0.0,-1.5825,-1.5825,-1.5825,-1.5825,-1.5825,-1.5685,-1.5631,-1.5798,-1.5825,-1.5825,-1.5825,-1.5825,-1.5825,-1.5825,-1.5825,-1.5825,-1.5825,-1.5538,-1.5494,-1.5801,-1.5833,-1.6318,-1.7817,-1.764,-1.7597,-0.7379,-0.7499,-0.6339,-0.6607,-0.7811,-0.7814,-0.8095,-0.8459,-0.8191,-0.8147,-0.8248,-0.7974,-0.7685,-0.739,-0.7132,0.0,0.0,-0.7353,-0.757,-0.7828,-0.7828,-0.7906,-0.7988,-0.7988,-0.7988,-0.7988,-0.7988,-0.7917,-0.7786,-0.7824,-0.7614,-0.7142,-0.6654,-0.6474,-0.6562,-0.6576,-0.6681,-0.6916,-0.7051,-0.7109,-0.7139,-0.7914,-0.899,-1.0207,-0.8796,-0.8125,-0.8499,-0.7443,-0.6432,-0.5755,-0.635,-0.6012,-0.4506,0.0,0.0,0.0,0.0,0.0,0.0,0.0,0.0,0.0,0.0,0.0,0.0,0.0,0.0,0.0,-0.8119,0.0,-0.8905,-0.961,0.0,0.0,0.0,-1.1042,-1.1156,-1.2161,-1.2951,-1.324,0.0,0.0,0.0,0.0,-1.5825,-1.5825,-1.5825,-1.5825,-1.5825,-1.5825,-1.5825,-1.5825,-1.5825,-1.5825,-1.5825,-1.5812,-1.5758,-1.5825,-1.5825,-1.5825,-1.5825,-1.5825,-1.5825,-1.5825,-1.5825,-1.5825,-1.5825,-1.5751,-1.6109,-1.7063,-1.6931,-1.7128,-1.8194,-1.7789,-1.7288,-0.7708,-0.7607,-0.7134,-0.7305,-0.7962,-0.7958,-0.819,-0.8472,-0.8408,-0.8336,-0.8316,-0.8191,-0.7994,-0.7709,-0.7709,-0.7685,-0.7658,-0.7811,-0.7916,-0.7934,-0.7934,-0.7955,-0.7988,-0.7988,-0.7988,-0.7988,-0.7988,-0.7971,-0.7938,-0.7934,-0.7823,-0.7655,-0.7512,-0.7288,-0.6953,-0.7099,-0.7238,-0.7265,-0.7299,-0.7261,-0.7095,-0.7208,-0.7646,-0.8496,-0.7354,-0.6968,-0.7534,-0.6508,-0.6037,-0.6325,-0.6156,-0.6036,-0.6043,-0.5365,0.0,0.0,0.0,0.0,0.0,0.0,0.0,0.0,0.0,-0.6481,-0.5128,0.0,-0.7689,0.0,-0.8437,-0.9291,-0.973,-0.9963,0.0,0.0,-1.1182,-1.1443,-1.2552,-1.2926,-1.3307,-1.3821,-1.471,-1.5317,-1.5391,-1.5651,-1.5825,-1.5825,-1.5825,-1.5825,-1.5825,-1.5825,-1.5825,-1.5825,-1.5825,-1.5825,-1.5825,-1.5825,-1.5825,-1.5825,-1.5825,-1.5825,-1.5825,-1.5825,-1.5825,-1.5825,-1.5825,-1.5825,-1.5825,-1.5825,-1.6157,-1.6998,-1.6652,-1.6306,-1.7157,-1.6943,-1.6692,-0.7758,-0.7684,-0.7494,-0.7607,-0.7904,-0.7849,-0.8091,-0.8461,-0.8455,-0.8434,-0.8455,-0.8381,-0.8174,-0.8018,-0.7982,-0.7944,-0.7923,-0.7951,-0.7988,-0.7988,-0.7988,-0.7988,-0.7988,-0.7988,-0.7988,-0.7988,-0.7988,-0.7988,-0.7988,-0.7988,-0.7948,-0.7864,-0.7913,-0.7742,-0.7503,-0.7495,-0.7475,-0.7472,-0.745,-0.7295,-0.7098,-0.696,-0.72,-0.7773,-0.6914,-0.6601,-0.7094,-0.6193,-0.5794,-0.6049,-0.6143,-0.6197,-0.6149,-0.5724,-0.5602,0.0,0.0,0.0,0.0,0.0,0.0,0.0,0.0,0.0,0.0,0.0,-0.8357,0.0,-0.9526,0.0,-1.0855,-1.1169,-1.1603,-1.2385,-1.2298,-1.2498,-1.328,-1.3754,-1.4122,-1.4486,-1.513,-1.5591,-1.5591,-1.5684,-1.5825,-1.5825,-1.5825,-1.5825,-1.5825,-1.5825,-1.5825,-1.5825,-1.5825,-1.5825,-1.5825,-1.5825,-1.5825,-1.5825,-1.5825,-1.5825,-1.5825,-1.5825,-1.5825,-1.5825,-1.5825,-1.5825,-1.5825,-1.5825,-1.6015,-1.6332,-1.6094,-1.613,-1.7213,-1.6989,-1.6654,-0.7725,-0.7712,-0.7595,-0.7655,-0.7769,-0.7632,-0.7893,-0.8423,-0.8416,-0.8514,-0.8693,-0.8418,-0.8347,-0.834,-0.8136,-0.8069,-0.8019,-0.7998,-0.7988,-0.7988,-0.7988,-0.7988,-0.7988,-0.7988,-0.7988,-0.7988,-0.7988,-0.7988,-0.7988,-0.7988,-0.7988,-0.7988,-0.7988,-0.7988,-0.7978,-0.7784,-0.7645,-0.7624,-0.7504,-0.7305,-0.7125,-0.697,-0.7126,-0.7512,-0.6839,-0.6566,-0.6817,-0.6136,-0.5647,-0.5439,-0.6201,-0.6365,-0.5823,-0.5853,-0.6072,0.0,-0.5535,0.0,0.0,0.0,0.0,0.0,0.0,0.0,0.0,-0.8891,-0.9324,-0.9866,-1.0935,-1.1703,-1.1993,-1.2516,-1.2971,-1.3233,-1.3447,-1.3613,-1.368,-1.4449,-1.5015,-1.5015,-1.5471,-1.5825,-1.5818,-1.5825,-1.5825,-1.5825,-1.5825,-1.5825,-1.5825,-1.5825,-1.5825,-1.5825,-1.5825,-1.5825,-1.5825,-1.5825,-1.5825,-1.5825,-1.5825,-1.5825,-1.5825,-1.5825,-1.5825,-1.5825,-1.5825,-1.5825,-1.5825,-1.5825,-1.5764,-1.5805,-1.5618,-1.589,-1.7161,-1.6974,-1.6461,-0.7839,-0.7828,-0.7717,-0.7714,-0.7673,-0.7454,-0.764,-0.8097,-0.8575,-0.8774,-0.8696,-0.852,-0.8438,-0.8431,-0.8292,-0.8228,-0.8221,-0.8096,-0.7988,-0.7988,-0.7988,-0.7988,-0.7988,-0.7988,-0.7988,-0.7988,-0.7988,-0.7988,-0.7988,-0.7988,-0.7988,-0.7988,-0.7988,-0.7988,0.0,0.0,0.0,0.0,-0.7555,-0.7402,-0.7319,-0.7068,-0.6883,-0.6901,-0.6379,0.0,-0.6025,-0.5758,-0.5583,-0.5439,-0.5956,0.0,0.0,0.0,0.0,0.0,0.0,0.0,0.0,0.0,0.0,0.0,-0.992,-0.9755,-0.9144,-1.0177,-1.0975,-1.1076,-1.1951,-1.2556,-1.2623,-1.2906,-1.324,-1.3487,-1.3573,-1.3693,-1.3988,-1.462,-1.5015,-1.5022,-1.5471,-1.5778,-1.5812,-1.5825,-1.5825,-1.5825,-1.5825,-1.5825,-1.5825,-1.5825,-1.5825,-1.5825,-1.5825,-1.5825,-1.5825,-1.5825,-1.5825,-1.5825,-1.5825,-1.5825,-1.5825,-1.5825,-1.5825,-1.5825,-1.5825,-1.5825,-1.5818,-1.5825,-1.5745,-1.5524,-1.5431,-1.5462,-1.558,-1.5287,-1.4838,-0.7933,0.0,-0.7809,-0.7755,0.0,-0.7682,-0.7697,-0.7691,-0.8078,-0.8397,-0.859,-0.8605,-0.8594,-0.8587,-0.8438,-0.8426,-0.8422,-0.8218,-0.8153,-0.815,-0.8072,-0.7988,-0.7988,-0.7988,-0.7988,-0.7988,-0.7988,-0.7988,-0.7988,-0.7988,-0.7988,-0.7988,-0.7988,-0.7988,-0.7988,-0.7988,-0.7917,-0.7811,-0.7597,-0.7494,-0.7412,-0.7082,-0.6817,-0.6593,0.0,0.0,0.0,0.0,0.0,0.0,0.0,0.0,0.0,0.0,0.0,-0.8139,-0.8186,-0.844,-0.8945,-0.9581,-1.0066,-1.038,-1.0903,-1.0928,-1.013,-1.1149,-1.1864,-1.1877,-1.2665,-1.3193,-1.32,-1.346,-1.3701,-1.38,-1.382,-1.3928,-1.4095,-1.4476,-1.4743,-1.4803,-1.5257,-1.5618,-1.5611,-1.5704,-1.5825,-1.5825,-1.5825,-1.5825,-1.5825,-1.5825,-1.5825,-1.5825,-1.5825,-1.5825,-1.5825,-1.5825,-1.5825,-1.5825,-1.5825,-1.5825,-1.5825,-1.5825,-1.5825,-1.5825,-1.5825,-1.5792,-1.5638,-1.5611,-1.5531,-1.5251,-1.5064,-1.493,-1.4763,-1.4623,-1.4436,-0.7891,-0.7933,-0.7933,-0.7818,-0.7731,-0.7945,-0.7746,-0.7358,0.0,0.0,0.0,-0.8638,-0.8696,-0.874,-0.8591,-0.852,-0.8513,-0.8374,-0.8344,-0.8316,-0.814,-0.8015,-0.7988,-0.7988,-0.7988,-0.7988,-0.7988,-0.7988,-0.7988,-0.7988,-0.7988,-0.7988,-0.7988,-0.7988,-0.7988,-0.7988,-0.7928,-0.7851,-0.7685,-0.7539,-0.7411,-0.7119,-0.6792,-0.66,-0.6538,-0.6288,-0.5901,-0.5976,-0.5847,-0.5501,-0.5933,-0.6108,-0.6021,-0.6858,-0.7735,-0.8537,-0.9036,-0.9581,-1.0169,-1.0479,-1.0767,-1.0997,-1.1609,-1.1762,-1.1263,-1.1937,-1.2432,-1.2532,-1.3174,-1.362,-1.368,-1.3935,-1.4088,-1.4088,-1.4088,-1.4082,-1.4102,-1.4342,-1.4529,-1.4576,-1.505,-1.5398,-1.5418,-1.5651,-1.5825,-1.5825,-1.5825,-1.5825,-1.5825,-1.5825,-1.5825,-1.5825,-1.5825,-1.5825,-1.5825,-1.5825,-1.5825,-1.5825,-1.5825,-1.5825,-1.5771,-1.5738,-1.5758,-1.5725,-1.5718,-1.5565,-1.5371,-1.5324,-1.5217,-1.4988,-1.4696,-1.4502,-1.4462,-1.4442,-1.4362,-0.8026,-0.7933,-0.7933,-0.7864,-0.79,-0.7802,-0.7681,-0.7475,-0.7539,-0.7934,-0.8484,-0.852,-0.8679,-0.8844,-0.8747,-0.8679,-0.8669,-0.8523,-0.8387,0.0,-0.8299,-0.8167,-0.7992,-0.7988,-0.7988,-0.7988,-0.7988,-0.7988,-0.7988,-0.7988,-0.7988,-0.7988,-0.7988,-0.7988,-0.7988,-0.7988,-0.7978,-0.7951,-0.7736,-0.759,-0.7563,-0.7223,-0.6991,-0.6865,-0.661,-0.6429,-0.6245,-0.6091,-0.5905,-0.5752,-0.5937,-0.6255,-0.6744,-0.7503,-0.8305,-0.8989,-0.9725,-1.0264,-1.0586,-1.0825,-1.1318,-1.2153,-1.2365,-1.2304,-1.2171,-1.2496,-1.2899,-1.3347,-1.3533,-1.3713,-1.3981,-1.4055,-1.4088,-1.4088,-1.4088,-1.4088,-1.4088,-1.4329,-1.4502,-1.4529,-1.5037,-1.5391,-1.5424,-1.5645,-1.5825,-1.5825,-1.5825,-1.5825,-1.5825,-1.5825,-1.5825,-1.5825,-1.5825,-1.5825,-1.5825,-1.5825,-1.5825,-1.5825,-1.5825,-1.5818,-1.5792,-1.5631,-1.5491,-1.5458,-1.5297,-1.5124,-1.5082,-1.5075,-1.4897,-1.4649,-1.4516,-1.4429,-1.4229,-1.4175,-1.4155,-0.8084,-0.8026,-0.7899,-0.7933,-0.7864,-0.775,-0.7671,-0.7595,-0.7475,-0.7705,-0.8143,-0.8406,-0.8595,-0.8706,-0.8756,-0.878,-0.8774,-0.8676,-0.8526,-0.8436,-0.8306,-0.8187,-0.7998,-0.7988,-0.7988,-0.7988,-0.7988,-0.7988,-0.7988,-0.7988,-0.7988,-0.7988,-0.7988,-0.7988,-0.7988,-0.7988,-0.7988,-0.7985,-0.7824,-0.7678,-0.7597,-0.7383,-0.716,-0.6889,-0.6787,-0.661,-0.6426,-0.6308,-0.6162,-0.5899,-0.5956,-0.6106,-0.632,-0.7141,-0.7735,-0.8096,-0.9332,-1.0112,-1.0262,-1.1001,-1.1746,-1.2486,-1.2655,-1.2824,-1.2994,-1.3153,-1.3347,-1.358,-1.3788,-1.3941,-1.4075,-1.4088,-1.4088,-1.4088,-1.4088,-1.4088,-1.4095,-1.4188,-1.4342,-1.4516,-1.489,-1.5217,-1.5378,-1.5645,-1.5825,-1.5825,-1.5825,-1.5825,-1.5825,-1.5825,-1.5825,-1.5825,-1.5825,-1.5825,-1.5825,-1.5825,-1.5825,-1.5825,-1.5825,-1.5758,-1.5645,-1.5458,-1.5344,-1.519,-1.5089,-1.4955,-1.477,-1.4716,-1.4589,-1.4362,-1.4282,-1.4208,-1.4115,-1.4088,-1.425,-0.8163,-0.8046,-0.8012,-0.7896,-0.7922,-0.7777,-0.7741,-0.7717,-0.751,-0.7517,-0.7755,-0.8118,-0.8322,-0.8432,-0.8598,-0.8716,-0.8806,-0.8706,-0.8625,-0.853,-0.8384,-0.8238,-0.8099,-0.8008,-0.7988,-0.7988,-0.7988,-0.7988,-0.7988,-0.7988,-0.7988,-0.7988,-0.7988,-0.7988,-0.7988,-0.7988,-0.7988,-0.7982,-0.7877,-0.7777,-0.7604,-0.7451,-0.7241,-0.6957,-0.69,-0.6775,-0.6593,-0.6542,-0.6403,-0.6152,-0.6091,-0.6064,-0.5958,-0.6748,-0.7285,-0.7447,-0.8789,-0.979,-1.0078,-1.1138,-1.2087,-1.2641,-1.2827,-1.3151,-1.3653,-1.37,-1.37,-1.3726,-1.3948,-1.4082,-1.4088,-1.4088,-1.4088,-1.4088,-1.4088,-1.4088,-1.4088,-1.4088,-1.4168,-1.4416,-1.4787,-1.5109,-1.5291,-1.5611,-1.5812,-1.5825,-1.5825,-1.5825,-1.5825,-1.5825,-1.5825,-1.5825,-1.5825,-1.5825,-1.5825,-1.5825,-1.5825,-1.5825,-1.5825,-1.5705,-1.5498,-1.5364,-1.5184,-1.4937,-1.479,-1.4656,-1.4469,-1.4429,-1.4342,-1.4155,-1.4122,-1.4102,-1.4095,-1.4088,-1.425,-0.8253,-0.813,-0.8103,-0.8034,-0.7875,-0.7856,-0.785,-0.7834,-0.772,-0.7603,-0.7594,-0.7655,-0.7829,-0.8045,-0.81,-0.8266,-0.854,-0.8527,-0.8552,-0.8625,-0.8533,-0.8387,-0.8235,-0.8056,-0.7988,-0.7988,-0.7988,-0.7988,-0.7988,-0.7988,-0.7988,-0.7988,-0.7988,-0.7988,-0.7988,-0.7988,-0.7988,-0.7988,-0.7975,-0.7882,-0.7611,-0.7451,-0.7292,-0.7082,-0.6953,-0.6876,-0.6825,-0.6753,-0.6603,-0.6491,-0.6467,-0.6405,-0.6353,-0.7034,-0.7529,-0.7671,-0.8488,-0.9399,-1.0389,-1.1375,-1.22,-1.2867,-1.2987,-1.3309,-1.3953,-1.4035,-1.4041,-1.4041,-1.4068,-1.4088,-1.4088,-1.4088,-1.4088,-1.4088,-1.4088,-1.4088,-1.4088,-1.4088,-1.4102,-1.4115,-1.4727,-1.5028,-1.5144,-1.5524,-1.5812,-1.5825,-1.5825,-1.5825,-1.5825,-1.5825,-1.5825,-1.5825,-1.5825,-1.5825,-1.5825,-1.5825,-1.5825,-1.5825,-1.5825,-1.5678,-1.5438,-1.5157,-1.4948,-1.4629,-1.4382,-1.4229,-1.4188,-1.4128,-1.4142,-1.4115,-1.4088,-1.4088,-1.4088,-1.4088,-1.4208,-0.8318,-0.8155,-0.8081,-0.8045,-0.788,-0.7933,-0.7933,-0.7919,-0.775,-0.7633,-0.7508,-0.745,-0.7561,-0.7771,-0.7937,-0.8045,-0.8208,-0.8429,-0.8352,-0.8224,-0.8481,-0.8387,-0.8016,-0.8157,-0.8133,-0.7995,-0.7988,-0.7988,-0.7988,-0.7988,-0.7988,-0.7988,-0.7988,-0.7988,-0.7988,-0.7988,-0.7988,-0.7988,-0.7988,-0.7847,-0.7631,-0.7539,-0.7387,-0.7119,-0.7041,-0.6967,-0.6893,-0.6865,-0.6763,-0.662,-0.6648,-0.658,-0.6525,-0.6841,-0.7064,-0.7208,-0.8375,-0.9595,-1.0687,-1.1741,-1.2599,-1.3207,-1.3352,-1.362,-1.4026,-1.4088,-1.4088,-1.4088,-1.4088,-1.4088,-1.4088,-1.4088,-1.4088,-1.4088,-1.4088,-1.4088,-1.4088,-1.4242,-1.4402,-1.4596,-1.4963,-1.5291,-1.5458,-1.5678,-1.5818,-1.5825,-1.5825,-1.5825,-1.5825,-1.5825,-1.5825,-1.5825,-1.5825,-1.5825,-1.5825,-1.5825,-1.5825,-1.5825,-1.5825,-1.5698,-1.5251,-1.5115,-1.4867,-1.4362,-1.4188,-1.4088,-1.4108,-1.4088,-1.4088,-1.4088,-1.4088,-1.4088,-1.4088,-1.4088,-1.4088,-0.8394,-0.8272,-0.8119,-0.8045,-0.7933,-0.7933,-0.7933,-0.7864,-0.778,-0.7682,-0.7562,-0.7437,-0.7377,-0.7553,-0.7733,-0.7823,-0.7937,-0.8156,-0.81,-0.7895,-0.8294,-0.8252,-0.792,-0.8074,-0.8083,-0.8008,-0.7988,-0.7988,-0.7988,-0.7988,-0.7988,-0.7988,-0.7988,-0.7988,-0.7988,-0.7988,-0.7988,-0.7988,-0.7988,-0.7913,-0.7689,-0.7621,-0.7455,-0.7132,-0.7095,-0.7048,-0.695,-0.6943,-0.6876,-0.6773,-0.6766,-0.6742,-0.6705,-0.6702,-0.6719,-0.6888,-0.8209,-0.954,-1.0552,-1.1752,-1.2715,-1.3317,-1.361,-1.3828,-1.4046,-1.4088,-1.4088,-1.4088,-1.4088,-1.4088,-1.4088,-1.4088,-1.4088,-1.4088,-1.4088,-1.4108,-1.4215,-1.4409,-1.4629,-1.4975,-1.5177,-1.5504,-1.5752,-1.5825,-1.5825,-1.5825,-1.5825,-1.5825,-1.5825,-1.5825,-1.5825,-1.5825,-1.5825,-1.5825,-1.5825,-1.5825,-1.5825,-1.5825,-1.5818,-1.5625,-1.5104,-1.5035,-1.4814,-1.4329,-1.4175,-1.4088,-1.4088,-1.4088,-1.4088,-1.4088,-1.4088,-1.4088,-1.4088,-1.4088,-1.4088,-0.8516,-0.8378,-0.8152,-0.8045,-0.7933,-0.7933,-0.7933,-0.7933,-0.7861,-0.7796,-0.7676,-0.7565,-0.7442,-0.7317,-0.7323,-0.7379,-0.7607,-0.766,-0.7765,-0.7901,-0.7904,-0.7927,-0.8,-0.7914,-0.788,-0.7965,-0.7992,-0.7988,-0.7988,-0.7988,-0.7988,-0.7988,-0.7988,-0.7988,-0.7988,-0.7988,-0.7988,-0.7988,-0.7988,-0.7911,-0.7801,-0.7668,-0.7461,-0.7142,-0.7098,-0.7088,-0.7082,-0.7082,-0.7018,-0.6922,-0.6876,-0.6858,-0.6729,-0.6712,-0.678,-0.6994,-0.7942,-0.8939,-0.9894,-1.1112,-1.2206,-1.3179,-1.3568,-1.3822,-1.4046,-1.4088,-1.4088,-1.4088,-1.4088,-1.4088,-1.4088,-1.4088,-1.4088,-1.4088,-1.4088,-1.4202,-1.4456,-1.4516,-1.4656,-1.4995,-1.5257,-1.5538,-1.5792,-1.5825,-1.5825,-1.5825,-1.5825,-1.5825,-1.5825,-1.5825,-1.5825,-1.5825,-1.5825,-1.5825,-1.5825,-1.5825,-1.5825,-1.5805,-1.5745,-1.5618,-1.5303,-1.4948,-1.462,-1.4309,-1.4168,-1.4088,-1.4088,-1.4088,-1.4088,-1.4088,-1.4088,-1.4088,-1.4088,-1.4088,-1.4088,-0.8473,-0.8224,-0.8122,-0.8045,-0.7875,-0.7933,-0.7933,-0.7933,-0.7933,-0.7807,-0.7709,-0.7655,-0.7524,-0.7277,-0.729,-0.7284,-0.7329,-0.7496,-0.7549,-0.754,-0.7773,-0.7792,-0.766,-0.779,-0.7911,-0.788,-0.7982,-0.7988,-0.7988,-0.7988,-0.7988,-0.7988,-0.7988,-0.7988,-0.7988,-0.7988,-0.7988,-0.7988,-0.7988,-0.7967,-0.7824,-0.776,-0.7594,-0.7305,-0.719,-0.7095,-0.7095,-0.7095,-0.7071,-0.7021,-0.7018,-0.6997,-0.6947,-0.698,-0.696,-0.7105,-0.7943,-0.8627,-0.9148,-1.0842,-1.2057,-1.2485,-1.344,-1.3997,-1.4082,-1.4088,-1.4088,-1.4088,-1.4088,-1.4088,-1.4088,-1.4088,-1.4088,-1.4088,-1.4095,-1.4222,-1.4469,-1.4683,-1.4917,-1.5204,-1.5491,-1.5718,-1.5785,-1.5825,-1.5825,-1.5825,-1.5825,-1.5825,-1.5825,-1.5825,-1.5825,-1.5825,-1.5825,-1.5825,-1.5825,-1.5825,-1.5812,-1.5758,-1.5671,-1.5411,-1.5135,-1.4796,-1.4482,-1.4235,-1.4102,-1.4088,-1.4088,-1.4088,-1.4088,-1.4088,-1.4088,-1.4088,-1.4088,-1.4088,-1.4088,-0.8451,-0.8239,-0.8147,-0.8019,-0.7939,-0.7933,-0.7933,-0.7933,-0.793,-0.7886,-0.7761,-0.772,-0.7587,-0.741,-0.7355,-0.7269,-0.7218,-0.7382,-0.7379,-0.721,-0.7546,-0.7645,-0.7471,-0.7695,-0.7824,-0.7798,-0.7959,-0.7988,-0.7988,-0.7988,-0.7988,-0.7988,-0.7988,-0.7988,-0.7988,-0.7988,-0.7988,-0.7988,-0.7988,-0.7934,-0.7889,-0.7834,-0.7723,-0.7526,-0.7366,-0.7189,-0.7105,-0.7095,-0.7095,-0.7095,-0.7095,-0.7095,-0.7095,-0.7095,-0.7095,-0.7183,-0.7665,-0.8193,-0.8671,-1.0361,-1.1574,-1.1929,-1.3094,-1.3906,-1.3955,-1.3955,-1.4004,-1.4102,-1.4188,-1.4222,-1.4249,-1.4322,-1.4335,-1.4275,-1.4309,-1.4489,-1.477,-1.4983,-1.5224,-1.5484,-1.5691,-1.5805,-1.5825,-1.5825,-1.5825,-1.5825,-1.5825,-1.5825,-1.5825,-1.5825,-1.5825,-1.5825,-1.5825,-1.5825,-1.5825,-1.5825,-1.5818,-1.5724,-1.5565,-1.5277,-1.4997,-1.471,-1.4429,-1.4188,-1.4088,-1.4088,-1.4088,-1.4088,-1.4088,-1.4088,-1.4088,-1.4088,-1.4088,-1.4088,-1.4088,-0.8451,-0.8191,-0.8233,-0.8092,-0.7963,-0.7877,-0.7933,-0.7933,-0.7933,-0.7864,-0.7837,-0.7758,-0.7646,-0.7458,-0.735,-0.7279,-0.7243,-0.7218,-0.721,-0.721,-0.7265,-0.732,-0.7377,-0.7459,-0.7578,-0.775,-0.7915,-0.7998,-0.7942,-0.7988,-0.7988,-0.7988,-0.7988,-0.7988,-0.7988,-0.7988,-0.7988,-0.7988,-0.7988,-0.7985,-0.7971,-0.785,-0.7814,-0.777,-0.7651,-0.7455,-0.7136,-0.7115,-0.7112,-0.7098,-0.7095,-0.7095,-0.7095,-0.7095,-0.7095,-0.7095,-0.7143,-0.758,-0.8408,-0.9662,-1.0837,-1.158,-1.2747,-1.3568,-1.3737,-1.3737,-1.3841,-1.4083,-1.4335,-1.4459,-1.4506,-1.4763,-1.481,-1.4603,-1.4716,-1.4977,-1.5244,-1.5378,-1.5504,-1.5732,-1.5818,-1.5825,-1.5825,-1.5825,-1.5825,-1.5825,-1.5825,-1.5825,-1.5825,-1.5825,-1.5825,-1.5825,-1.5825,-1.5825,-1.5825,-1.5825,-1.5771,-1.5724,-1.5498,-1.5224,-1.5008,-1.4676,-1.4376,-1.4135,-1.4088,-1.4088,-1.4088,-1.4088,-1.4088,-1.4088,-1.4088,-1.4088,-1.4088,-1.4088,-1.4088,-0.85,-0.8356,-0.8269,-0.8147,-0.8054,-0.7907,-0.7933,-0.7933,-0.7933,-0.7933,-0.7864,-0.7834,-0.7752,-0.7638,-0.7516,-0.7394,-0.7279,-0.7198,-0.721,-0.721,-0.721,-0.7246,-0.7254,-0.7342,-0.744,-0.7579,-0.7753,-0.7834,-0.7759,-0.7892,-0.7988,-0.7988,-0.7988,-0.7988,-0.7988,-0.7988,-0.7988,-0.7988,-0.7988,-0.7988,-0.7988,-0.7944,-0.7919,-0.7818,-0.7763,-0.7648,-0.7468,-0.7356,-0.7251,-0.7109,-0.7095,-0.7095,-0.7095,-0.7095,-0.7095,-0.7095,-0.7095,-0.7183,-0.7665,-0.9231,-1.0399,-1.1009,-1.2357,-1.3392,-1.3652,-1.3701,-1.3835,-1.4071,-1.4339,-1.4495,-1.4639,-1.5,-1.513,-1.4856,-1.4955,-1.5149,-1.5378,-1.5571,-1.5671,-1.5798,-1.5825,-1.5825,-1.5825,-1.5825,-1.5825,-1.5825,-1.5825,-1.5825,-1.5825,-1.5825,-1.5825,-1.5825,-1.5825,-1.5825,-1.5825,-1.5812,-1.5738,-1.5658,-1.5398,-1.5124,-1.4914,-1.4633,-1.4295,-1.4148,-1.4108,-1.4088,-1.4088,-1.4088,-1.4088,-1.4088,-1.4088,-1.4088,-1.4088,-1.4088,-1.4088,-0.8522,-0.8407,-0.8288,-0.8166,-0.8106,-0.7924,-0.7933,-0.7933,-0.7933,-0.7933,-0.7933,-0.793,-0.7809,-0.7703,-0.7619,-0.7491,-0.7282,-0.7255,-0.7195,-0.7215,-0.721,-0.721,-0.7193,-0.7362,-0.7363,-0.7385,-0.7564,-0.7626,-0.7603,-0.7743,-0.7889,-0.7988,-0.7988,-0.7988,-0.7988,-0.7988,-0.7988,-0.7988,-0.7988,-0.7988,-0.7988,-0.7988,-0.7944,-0.7909,-0.7896,-0.7818,-0.7685,-0.7584,-0.7438,-0.7258,-0.7132,-0.7098,-0.7095,-0.7095,-0.7095,-0.7095,-0.7095,-0.7139,-0.7316,-0.9013,-1.0139,-1.0481,-1.2003,-1.3236,-1.3512,-1.363,-1.3758,-1.4096,-1.4479,-1.4686,-1.4793,-1.5246,-1.5451,-1.5311,-1.5304,-1.5364,-1.5558,-1.5671,-1.5812,-1.5825,-1.5825,-1.5825,-1.5825,-1.5825,-1.5825,-1.5825,-1.5825,-1.5825,-1.5825,-1.5825,-1.5825,-1.5825,-1.5825,-1.5825,-1.5825,-1.5798,-1.5704,-1.5545,-1.5291,-1.501,-1.4743,-1.4416,-1.4115,-1.4115,-1.4088,-1.4088,-1.4088,-1.4088,-1.4088,-1.4088,-1.4088,-1.4088,-1.4088,-1.4088,-1.4088,-0.8527,-0.8413,-0.8226,-0.8174,-0.806,-0.7932,-0.7933,-0.7933,-0.7933,-0.7933,-0.7933,-0.7933,-0.7818,-0.7728,-0.7679,-0.754,-0.7315,-0.7301,-0.7239,-0.7229,-0.721,-0.721,-0.7193,-0.7327,-0.7316,-0.7235,-0.7373,-0.7499,-0.7585,-0.7656,-0.7746,-0.7988,-0.7988,-0.7988,-0.7988,-0.7988,-0.7988,-0.7988,-0.7988,-0.7988,-0.7988,-0.7988,-0.7985,-0.7975,-0.7968,-0.7911,-0.7845,-0.7784,-0.7648,-0.7397,-0.7217,-0.7095,-0.7095,-0.7095,-0.7095,-0.7095,-0.7095,-0.7095,-0.7489,-0.8667,-0.971,-0.9879,-1.1446,-1.2862,-1.3193,-1.3498,-1.3774,-1.4147,-1.463,-1.4929,-1.506,-1.5437,-1.5664,-1.5805,-1.5725,-1.5704,-1.5805,-1.5778,-1.5825,-1.5825,-1.5825,-1.5825,-1.5825,-1.5825,-1.5825,-1.5825,-1.5825,-1.5825,-1.5825,-1.5825,-1.5825,-1.5825,-1.5825,-1.5825,-1.5825,-1.5818,-1.5758,-1.5498,-1.5244,-1.4963,-1.4676,-1.4349,-1.4088,-1.4088,-1.4088,-1.4088,-1.4088,-1.4088,-1.4088,-1.4088,-1.4088,-1.4088,-1.4088,-1.4088,-1.4088,-0.8571,-0.8522,-0.832,-0.8214,-0.8157,-0.7964,-0.7872,-0.7872,-0.7872,-0.7933,-0.7933,-0.7933,-0.7853,-0.7809,-0.7644,-0.7524,-0.744,-0.7288,-0.7248,-0.7215,-0.721,-0.721,-0.7207,-0.7235,-0.721,-0.7141,-0.7381,-0.7525,-0.7493,-0.7738,-0.7895,-0.7988,-0.7988,-0.7988,-0.7988,-0.7988,-0.7988,-0.7988,-0.7988,-0.7988,-0.7988,-0.7988,-0.7988,-0.7988,-0.7988,-0.7968,-0.7917,-0.7868,-0.7675,-0.7436,-0.7179,-0.7095,-0.7098,-0.7095,-0.7095,-0.7095,-0.7095,-0.7095,-0.7316,-0.8241,-0.8851,-0.903,-1.0787,-1.2092,-1.2468,-1.3296,-1.3837,-1.421,-1.4539,-1.4746,-1.5012,-1.5352,-1.5588,-1.5778,-1.5825,-1.5825,-1.5825,-1.5825,-1.5825,-1.5825,-1.5825,-1.5825,-1.5825,-1.5825,-1.5825,-1.5825,-1.5825,-1.5825,-1.5825,-1.5825,-1.5825,-1.5825,-1.5825,-1.5825,-1.5825,-1.5825,-1.5718,-1.5464,-1.5217,-1.5015,-1.4733,-1.4402,-1.4195,-1.4088,-1.4088,-1.4088,-1.4088,-1.4088,-1.4088,-1.4088,-1.4088,-1.4088,-1.4088,-1.4088,-1.4088,-0.8051,-0.8432,-0.7094,-0.6816,-0.7365,-0.7162,-0.7074,-0.7197,-0.7686,-0.7933,-0.7933,-0.7933,-0.7933,-0.785,-0.7679,-0.7568,-0.7497,-0.7317,-0.7209,-0.7213,-0.721,-0.721,-0.721,-0.721,-0.7205,-0.7194,-0.7337,-0.747,-0.759,-0.7761,-0.7899,-0.7988,-0.7988,-0.7988,-0.7988,-0.7988,-0.7988,-0.7988,-0.7988,-0.7988,-0.7988,-0.7988,-0.7988,-0.7988,-0.7988,-0.7988,-0.7968,-0.7843,-0.7675,-0.747,-0.7285,-0.7166,-0.7102,-0.7095,-0.7095,-0.7095,-0.7095,-0.7095,-0.7286,-0.803,-0.8605,-0.8905,-1.0298,-1.1136,-1.1608,-1.2257,-1.27,-1.2875,-1.3193,-1.3469,-1.3861,-1.4484,-1.5207,-1.5683,-1.5825,-1.5825,-1.5825,-1.5825,-1.5825,-1.5825,-1.5825,-1.5825,-1.5825,-1.5825,-1.5825,-1.5825,-1.5825,-1.5825,-1.5825,-1.5825,-1.5825,-1.5825,-1.5825,-1.5825,-1.5825,-1.5825,-1.5705,-1.5451,-1.511,-1.4928,-1.4666,-1.4369,-1.4229,-1.4088,-1.4088,-1.4088,-1.4088,-1.4088,-1.4088,-1.4088,-1.4088,-1.4088,-1.4088,-1.4088,-1.4088,-0.7105,-0.7946,-0.5269,-0.4884,-0.5938,-0.5792,-0.5722,-0.5968,-0.7011,-0.7439,-0.7317,-0.7564,-0.7503,-0.7681,-0.7285,-0.7375,-0.751,-0.735,-0.7247,-0.7235,-0.721,-0.721,-0.721,-0.721,-0.7271,-0.7382,-0.7295,-0.7537,-0.7773,-0.7737,-0.7799,-0.7939,-0.7988,-0.7988,-0.7988,-0.7988,-0.7988,-0.7988,-0.7988,-0.7988,-0.7988,-0.7988,-0.7988,-0.7988,-0.7988,-0.7988,-0.7958,-0.7906,-0.7719,-0.7434,-0.7453,-0.7336,-0.7176,-0.7156,-0.7159,-0.7162,-0.7166,-0.7149,-0.7293,-0.8027,-0.8586,-0.8762,-0.9598,-1.038,-1.0688,-1.1001,-1.135,-1.1555,-1.1463,-1.1984,-1.2431,-1.342,-1.4436,-1.5207,-1.554,-1.5642,-1.5778,-1.5825,-1.5825,-1.5825,-1.5825,-1.5825,-1.5825,-1.5825,-1.5825,-1.5825,-1.5825,-1.5825,-1.5825,-1.5825,-1.5825,-1.5825,-1.5825,-1.5825,-1.5825,-1.5825,-1.5658,-1.5438,-1.5023,-1.4723,-1.4469,-1.4255,-1.4162,-1.4088,-1.4088,-1.4088,-1.4088,-1.4088,-1.4088,-1.4088,-1.4088,-1.4088,-1.4088,-1.4088,-1.4088,-0.5931,-0.5137,-0.4406,-0.4283,-0.4544,-0.4404,-0.4306,-0.4429,-0.5722,-0.5782,-0.5226,-0.5843,-0.6337,-0.6326,-0.6173,-0.6474,-0.7198,-0.7142,-0.7232,-0.7221,-0.721,-0.721,-0.721,-0.721,-0.731,-0.7451,-0.7544,-0.7685,-0.7858,-0.7924,-0.7942,-0.7988,-0.7988,-0.7988,-0.7988,-0.7988,-0.7988,-0.7988,-0.7988,-0.7988,-0.7988,-0.7988,-0.7988,-0.7988,-0.7988,-0.7988,-0.7988,-0.7961,-0.7853,-0.7743,-0.7617,-0.7539,-0.7482,-0.7472,-0.7468,-0.7444,-0.7373,-0.737,-0.7501,-0.7657,-0.7745,-0.8056,-0.8942,-0.9629,-0.9758,-1.0532,-1.0958,-1.1219,-1.1414,-1.1565,-1.2096,-1.2635,-1.3607,-1.4436,-1.4825,-1.5064,-1.5588,-1.5825,-1.5825,-1.5825,-1.5825,-1.5825,-1.5825,-1.5825,-1.5825,-1.5825,-1.5825,-1.5825,-1.5825,-1.5825,-1.5825,-1.5825,-1.5825,-1.5825,-1.5758,-1.5772,-1.5605,-1.5378,-1.4983,-1.4669,-1.4409,-1.4195,-1.4115,-1.4088,-1.4088,-1.4088,-1.4088,-1.4088,-1.4088,-1.4088,-1.4088,-1.4088,-1.4088,-1.4088,-1.4088,-0.4325,-0.4132,-0.2785,-0.2554,-0.3081,-0.3038,-0.3018,-0.3263,-0.4369,-0.4551,-0.4182,-0.4674,-0.4921,-0.4974,-0.4802,-0.5147,-0.5718,-0.6193,-0.6318,-0.6485,-0.6821,-0.721,-0.721,-0.721,-0.7321,-0.7508,-0.7451,-0.7604,-0.7884,-0.7906,-0.7846,-0.7988,-0.7988,-0.7988,-0.7988,-0.7988,-0.7988,-0.7988,-0.7988,-0.7988,-0.7988,-0.7988,-0.7988,-0.7988,-0.7988,-0.7988,-0.7988,-0.7988,-0.7948,-0.7923,-0.7841,-0.7729,-0.7621,-0.76,-0.76,-0.758,-0.7539,-0.7506,-0.7553,-0.7594,-0.7617,-0.7692,-0.8408,-0.8616,-0.8845,-0.9416,-0.9694,-0.985,-1.0047,-1.044,-1.1463,-1.2387,-1.3119,-1.4094,-1.4723,-1.5207,-1.5683,-1.5825,-1.5825,-1.5825,-1.5825,-1.5825,-1.5825,-1.5825,-1.5825,-1.5825,-1.5825,-1.5825,-1.5825,-1.5825,-1.5825,-1.5825,-1.5825,-1.5818,-1.5744,-1.5705,-1.5545,-1.5284,-1.495,-1.4703,-1.4482,-1.4275,-1.4088,-1.4088,-1.4088,-1.4088,-1.4088,-1.4088,-1.4088,-1.4088,-1.4088,-1.4088,-1.4088,-1.4088,-1.4088,-0.2723,-0.3467,-0.097,-0.0701,-0.1694,-0.1736,-0.1726,-0.1849,-0.3078,-0.3384,-0.3384,-0.3446,-0.3632,-0.3616,-0.351,-0.3575,-0.4079,-0.461,-0.5146,-0.5258,-0.626,-0.6652,-0.6821,-0.7043,-0.7265,-0.7523,-0.7379,-0.7531,-0.7743,-0.7769,-0.7788,-0.7902,-0.7988,-0.7988,-0.7988,-0.7988,-0.7988,-0.7988,-0.7988,-0.7988,-0.7988,-0.7988,-0.7988,-0.7988,-0.7988,-0.7988,-0.7988,-0.7988,-0.7985,-0.7988,-0.7988,-0.7902,-0.7746,-0.7665,-0.7665,-0.7675,-0.7658,-0.7665,-0.7709,-0.7753,-0.7794,-0.7841,-0.7953,-0.8024,-0.8081,-0.8226,-0.8478,-0.8581,-0.8878,-0.9513,-1.073,-1.1702,-1.2926,-1.4046,-1.5112,-1.5547,-1.5784,-1.5825,-1.5825,-1.5825,-1.5825,-1.5825,-1.5825,-1.5825,-1.5825,-1.5825,-1.5825,-1.5825,-1.5825,-1.5825,-1.5825,-1.5825,-1.5825,-1.5825,-1.5758,-1.5738,-1.5611,-1.5418,-1.5057,-1.4823,-1.4623,-1.4429,-1.4255,-1.4108,-1.4088,-1.4088,-1.4088,-1.4088,-1.4088,-1.4088,-1.4088,-1.4088,-1.4088,-1.4088,-1.4088,-0.1573,-0.0647,-0.0191,0.0,0.0,0.0,0.0,-0.0555,-0.1788,-0.1665,-0.0925,-0.1788,-0.228,-0.2271,-0.2182,-0.2609,-0.3235,-0.3729,-0.3916,-0.4083,-0.5089,-0.5706,-0.5815,-0.6596,-0.7043,-0.7288,-0.7279,-0.7496,-0.7632,-0.7746,-0.7696,-0.7716,-0.7892,-0.7992,-0.7988,-0.7988,-0.7988,-0.7988,-0.7988,-0.7988,-0.7988,-0.7988,-0.7988,-0.7988,-0.7988,-0.7988,-0.7988,-0.7988,-0.7988,-0.7988,-0.7988,-0.7958,-0.795,-0.7933,-0.7884,-0.786,-0.7831,-0.7814,-0.785,-0.7855,-0.7899,-0.7917,-0.7975,-0.7985,-0.7988,-0.8038,-0.8237,-0.8485,-0.8882,-0.962,-1.0974,-1.1512,-1.2441,-1.3709,-1.4586,-1.5016,-1.5588,-1.5825,-1.5825,-1.5825,-1.5825,-1.5825,-1.5825,-1.5825,-1.5825,-1.5825,-1.5825,-1.5825,-1.5825,-1.5825,-1.5825,-1.5825,-1.5825,-1.5825,-1.5818,-1.5818,-1.5745,-1.5658,-1.5384,-1.5142,-1.4877,-1.4636,-1.4442,-1.4202,-1.4088,-1.4088,-1.4088,-1.4088,-1.4088,-1.4088,-1.4088,-1.4088,-1.4088,-1.4088,-1.4088,-0.0653,0.0,0.0,0.0,0.0,0.0,0.0,0.0,-0.0679,-0.0617,-0.037,-0.0679,-0.0987,-0.0922,-0.0911,-0.1244,-0.1727,-0.2481,-0.2632,-0.291,-0.386,-0.4475,-0.4587,-0.5701,-0.6151,-0.6473,-0.6921,-0.7291,-0.7384,-0.7352,-0.748,-0.7625,-0.7743,-0.7842,-0.7988,-0.7988,-0.7988,-0.7988,-0.7988,-0.7988,-0.7988,-0.7988,-0.7988,-0.7988,-0.7988,-0.7988,-0.7988,-0.7988,-0.7988,-0.7988,-0.7988,-0.7988,-0.7988,-0.7988,-0.7988,-0.7975,-0.7967,-0.7901,-0.7975,-0.7914,-0.7924,-0.7968,-0.7988,-0.7988,-0.8038,-0.8137,-0.8386,-0.8783,-0.913,-0.9628,-1.0256,-1.1272,-1.2441,-1.3318,-1.434,-1.5207,-1.5642,-1.5778,-1.5825,-1.5825,-1.5825,-1.5825,-1.5825,-1.5825,-1.5825,-1.5825,-1.5825,-1.5825,-1.5825,-1.5825,-1.5825,-1.5825,-1.5825,-1.5825,-1.5825,-1.5825,-1.5825,-1.5765,-1.5631,-1.5344,-1.5075,-1.4743,-1.4436,-1.4155,-1.4102,-1.4088,-1.4088,-1.4088,-1.4088,-1.4088,-1.4088,-1.4088,-1.4088,-1.4088,-1.4088,0.0,0.0,0.0,0.0,0.0,0.0,0.0,0.0,0.0,0.0,0.0,0.0,0.0,0.0,0.0,0.0,0.0,-0.1129,-0.1401,-0.1679,-0.263,-0.3245,-0.358,-0.4364,-0.5202,-0.5759,-0.6251,-0.6918,-0.709,-0.7134,-0.7256,-0.739,-0.7497,-0.7693,-0.7842,-0.7939,-0.7988,-0.7988,-0.7988,-0.7988,-0.7988,-0.7988,-0.7988,-0.7988,-0.7988,-0.7988,-0.7988,-0.7988,-0.7988,-0.7988,-0.7988,-0.7988,-0.7988,-0.7988,-0.7988,-0.7988,-0.7988,-0.7988,-0.7988,-0.7985,-0.7971,-0.7988,-0.7988,-0.7988,-0.8088,-0.8283,-0.863,-0.908,-0.943,-0.9772,-1.0355,-1.1619,-1.2484,-1.3113,-1.4472,-1.5737,-1.5547,-1.554,-1.5778,-1.5825,-1.5825,-1.5825,-1.5825,-1.5825,-1.5825,-1.5825,-1.5825,-1.5825,-1.5825,-1.5825,-1.5825,-1.5825,-1.5825,-1.5825,-1.5825,-1.5825,-1.5825,-1.5805,-1.5671,-1.5458,-1.5124,-1.4796,-1.4496,-1.4215,-1.4102,-1.4088,-1.4088,-1.4088,-1.4088,-1.4088,-1.4088,-1.4088,-1.4088,-1.4088,-1.4088,0.0,0.0,0.0,0.0,0.0,0.0,0.0,0.0,0.0,0.0,0.0,0.0,0.0,0.0,0.0,0.0,0.0,0.0,0.0,0.0,-0.1512,-0.2015,-0.2182,-0.3244,-0.4196,-0.4918,-0.5475,-0.6086,-0.6629,-0.6929,-0.7061,-0.7045,-0.7347,-0.7593,-0.7643,-0.7842,-0.7988,-0.7988,-0.7988,-0.7988,-0.7988,-0.7988,-0.7988,-0.7988,-0.7988,-0.7988,-0.7988,-0.7988,-0.7988,-0.7988,-0.7988,-0.7988,-0.7988,-0.7988,-0.7988,-0.7988,-0.7988,-0.7988,-0.7988,-0.7988,-0.7988,-0.7988,-0.7988,-0.7988,-0.8134,-0.8428,-0.8726,-0.8829,-0.9278,-0.9871,-1.0596,-1.1901,-1.2533,-1.3264,-1.428,-1.4819,-1.4825,-1.5547,-1.5778,-1.5635,-1.5588,-1.573,-1.5825,-1.5825,-1.5825,-1.5825,-1.5825,-1.5825,-1.5825,-1.5825,-1.5825,-1.5825,-1.5825,-1.5825,-1.5825,-1.5825,-1.5825,-1.5825,-1.5725,-1.5558,-1.5231,-1.4903,-1.4596,-1.4355,-1.4215,-1.4095,-1.4088,-1.4088,-1.4088,-1.4088,-1.4088,-1.4088,-1.4088,-1.4088,-1.4088,0.0,0.0,0.0,0.0,0.0,0.0,0.0,0.0,0.0,0.0,0.0,0.0,0.0,0.0,0.0,0.0,0.0,0.0,0.0,0.0,0.0,0.0,-0.1064,-0.1959,-0.2966,-0.3628,-0.4591,-0.5389,-0.5986,-0.6561,-0.6886,-0.6879,-0.7045,-0.7191,-0.7391,-0.764,-0.7743,-0.7793,-0.7889,-0.7988,-0.7988,-0.7988,-0.7988,-0.7988,-0.7988,-0.7988,-0.7988,-0.7988,-0.7988,-0.7988,-0.7988,-0.7988,-0.7988,-0.7988,-0.7988,-0.7988,-0.7988,-0.7988,-0.7988,-0.7988,-0.7988,-0.7988,-0.7988,-0.8088,-0.8233,-0.8432,-0.873,-0.9034,-0.9232,-0.9719,-1.035,-1.1224,-1.1658,-1.2436,-1.38,-1.38,-1.4094,-1.5255,-1.5737,-1.5547,-1.5452,-1.5588,-1.573,-1.5825,-1.5825,-1.5825,-1.5825,-1.5825,-1.5825,-1.5825,-1.5825,-1.5825,-1.5825,-1.5825,-1.5825,-1.5825,-1.5825,-1.5825,-1.5825,-1.5631,-1.5344,-1.503,-1.4716,-1.4436,-1.4242,-1.4148,-1.4102,-1.4088,-1.4088,-1.4088,-1.4088,-1.4088,-1.4088,-1.4088,-1.4088,0.0,0.0,0.0,0.0,0.0,0.0,0.0,0.0,0.0,0.0,0.0,0.0,0.0,0.0,0.0,0.0,0.0,0.0,0.0,0.0,0.0,0.0,0.0,-0.1065,-0.1568,-0.1791,-0.3303,-0.4219,-0.4908,-0.5638,-0.6375,-0.6701,-0.6795,-0.6892,-0.7141,-0.7444,-0.7643,-0.7793,-0.7939,-0.7988,-0.7988,-0.7988,-0.7988,-0.7988,-0.7988,-0.7988,-0.7988,-0.7988,-0.7988,-0.7988,-0.7988,-0.7988,-0.7988,-0.7988,-0.7988,-0.7988,-0.7988,-0.7988,-0.7988,-0.7988,-0.7988,-0.7988,-0.7988,-0.8088,-0.8233,-0.8333,-0.8531,-0.8981,-0.9187,-0.9331,-0.9723,-1.0645,-1.0935,-1.176,-1.2926,-1.2829,-1.3022,-1.4232,-1.5112,-1.5016,-1.5016,-1.5445,-1.5588,-1.573,-1.5825,-1.5825,-1.5825,-1.5825,-1.5825,-1.5825,-1.5825,-1.5825,-1.5825,-1.5825,-1.5825,-1.5825,-1.5825,-1.5825,-1.5825,-1.5705,-1.5418,-1.5124,-1.4861,-1.4556,-1.4309,-1.4162,-1.4088,-1.4088,-1.4088,-1.4088,-1.4088,-1.4088,-1.4088,-1.4088,-1.4088,0.0,0.0,0.0,0.0,0.0,0.0,0.0,0.0,0.0,0.0,0.0,0.0,0.0,0.0,0.0,0.0,0.0,0.0,0.0,0.0,0.0,0.0,0.0,0.0,-0.0784,-0.1507,-0.2414,-0.291,-0.3554,-0.4584,-0.5537,-0.6303,-0.6542,-0.6745,-0.6945,-0.7294,-0.7643,-0.7793,-0.7942,-0.7988,-0.7988,-0.7988,-0.7988,-0.7988,-0.7988,-0.7988,-0.7988,-0.7988,-0.7988,-0.7988,-0.7988,-0.7988,-0.7988,-0.7988,-0.7988,-0.7988,-0.7988,-0.7988,-0.7988,-0.7988,-0.7988,-0.7988,-0.7988,-0.8038,-0.8088,-0.8283,-0.8528,-0.8779,-0.8981,-0.9282,-0.9768,-1.035,-1.0498,-1.0935,-1.1765,-1.2101,-1.2441,-1.3414,-1.4142,-1.425,-1.4586,-1.5064,-1.5588,-1.5778,-1.5825,-1.5825,-1.5825,-1.5825,-1.5825,-1.5825,-1.5825,-1.5825,-1.5825,-1.5825,-1.5825,-1.5825,-1.5825,-1.5825,-1.5825,-1.5691,-1.5491,-1.5204,-1.5008,-1.4663,-1.4422,-1.4242,-1.4088,-1.4088,-1.4088,-1.4088,-1.4088,-1.4088,-1.4088,-1.4088,-1.4088,0.0,0.0,0.0,0.0,0.0,0.0,0.0,0.0,0.0,0.0,0.0,0.0,0.0,0.0,0.0,0.0,0.0,0.0,0.0,0.0,0.0,0.0,0.0,0.0,-0.028,-0.0835,-0.131,-0.1771,-0.2336,-0.3413,-0.4427,-0.529,-0.6087,-0.6489,-0.6739,-0.7092,-0.7444,-0.7743,-0.7892,-0.7988,-0.7988,-0.7988,-0.7988,-0.7988,-0.7988,-0.7988,-0.7988,-0.7988,-0.7988,-0.7988,-0.7988,-0.7988,-0.7988,-0.7988,-0.7988,-0.7988,-0.7988,-0.7988,-0.7988,-0.7988,-0.7988,-0.7988,-0.7988,-0.7988,-0.7988,-0.8088,-0.8287,-0.8531,-0.8829,-0.908,-0.943,-0.9821,-1.0064,-1.0212,-1.065,-1.1277,-1.1809,-1.264,-1.3366,-1.3565,-1.4196,-1.4819,-1.5302,-1.5778,-1.5825,-1.5825,-1.5825,-1.5825,-1.5825,-1.5825,-1.5825,-1.5825,-1.5825,-1.5825,-1.5825,-1.5825,-1.5825,-1.5825,-1.5825,-1.5725,-1.5591,-1.5424,-1.517,-1.4843,-1.4543,-1.4349,-1.4208,-1.4122,-1.4088,-1.4088,-1.4088,-1.4088,-1.4088,-1.4088,-1.4088,0.0,0.0,0.0,0.0,0.0,0.0,0.0,0.0,0.0,0.0,0.0,0.0,0.0,0.0,0.0,0.0,0.0,0.0,0.0,0.0,0.0,0.0,0.0,0.0,0.0,0.0,0.0,-0.1118,-0.1211,-0.22,-0.3286,-0.4331,-0.5334,-0.5884,-0.6537,-0.6836,-0.7244,-0.7596,-0.7743,-0.7939,-0.7988,-0.7988,-0.7988,-0.7988,-0.7988,-0.7988,-0.7988,-0.7988,-0.7988,-0.7988,-0.7988,-0.7988,-0.7988,-0.7988,-0.7988,-0.7988,-0.7988,-0.7988,-0.7988,-0.7988,-0.7988,-0.7988,-0.7988,-0.7988,-0.7988,-0.7988,-0.8187,-0.8386,-0.868,-0.8928,-0.9187,-0.9529,-0.9772,-0.992,-1.069,-1.1272,-1.113,-1.1619,-1.2344,-1.2926,-1.3752,-1.4682,-1.5302,-1.5825,-1.5825,-1.5825,-1.5825,-1.5825,-1.5825,-1.5825,-1.5825,-1.5825,-1.5825,-1.5825,-1.5825,-1.5825,-1.5825,-1.5825,-1.5825,-1.5825,-1.5712,-1.5545,-1.5391,-1.513,-1.4823,-1.4502,-1.4315,-1.4208,-1.4135,-1.4088,-1.4088,-1.4088,-1.4088,-1.4088,-1.4088,0.0,0.0,0.0,0.0,0.0,0.0,0.0,0.0,0.0,0.0,0.0,0.0,0.0,0.0,0.0,0.0,0.0,0.0,0.0,0.0,0.0,0.0,0.0,0.0,0.0,0.0,0.0,0.0,-0.0208,-0.1376,-0.2372,-0.3525,-0.4732,-0.5634,-0.6387,-0.6642,-0.7095,-0.7497,-0.7547,-0.7793,-0.7892,-0.7988,-0.7988,-0.7988,-0.7988,-0.7988,-0.7988,-0.7988,-0.7988,-0.7988,-0.7988,-0.7988,-0.7988,-0.7988,-0.7988,-0.7988,-0.7988,-0.7988,-0.7988,-0.7988,-0.7988,-0.7988,-0.7988,-0.7988,-0.7988,-0.8038,-0.8088,-0.8283,-0.8581,-0.8878,-0.9133,-0.9381,-0.948,-0.9817,-1.0592,-1.0837,-1.0645,-1.1033,-1.1858,-1.2732,-1.3709,-1.4634,-1.5302,-1.5825,-1.5825,-1.5825,-1.5825,-1.5825,-1.5825,-1.5825,-1.5825,-1.5825,-1.5825,-1.5825,-1.5825,-1.5825,-1.5825,-1.5825,-1.5825,-1.5825,-1.5778,-1.5638,-1.5484,-1.5344,-1.5084,-1.475,-1.4502,-1.4282,-1.4182,-1.4088,-1.4088,-1.4088,-1.4088,-1.4088,-1.4088,0.0183,0.0,0.0,0.0,0.0,0.0,0.0,0.0,0.0,0.0,0.0,0.0,0.0,0.0,0.0,0.0,0.0,0.0,0.0,0.0,0.0,0.0,0.0,0.0,0.0,0.0,0.0,0.0,-0.0052,-0.1069,-0.217,-0.3274,-0.4883,-0.5987,-0.6389,-0.6642,-0.6945,-0.7147,-0.7397,-0.7693,-0.7743,-0.7892,-0.7988,-0.7988,-0.7988,-0.7988,-0.7988,-0.7988,-0.7988,-0.7988,-0.7988,-0.7988,-0.7988,-0.7988,-0.7988,-0.7988,-0.7988,-0.7988,-0.7988,-0.7988,-0.7988,-0.7988,-0.7988,-0.7988,-0.7988,-0.7988,-0.8038,-0.8137,-0.8432,-0.868,-0.8878,-0.9183,-0.9331,-0.9579,-1.0015,-1.0015,-1.0064,-1.0935,-1.1755,-1.2678,-1.3655,-1.4675,-1.5493,-1.5778,-1.5825,-1.5825,-1.5825,-1.5825,-1.5825,-1.5825,-1.5825,-1.5825,-1.5825,-1.5825,-1.5825,-1.5825,-1.5825,-1.5825,-1.5825,-1.5825,-1.5758,-1.5644,-1.5591,-1.5458,-1.5231,-1.4997,-1.4636,-1.4315,-1.4168,-1.4088,-1.4088,-1.4088,-1.4088,-1.4088,-1.4088,0.036,0.0118,0.0,0.0059,0.0118,0.006,0.0,0.0,0.0,0.0,0.0,0.0,0.0,0.0,0.0,0.0,0.0,0.0,0.0,0.0,0.0,0.0,0.0,0.0,0.0,0.0,0.0,0.0,0.0,-0.1065,-0.2421,-0.3927,-0.5484,-0.6137,-0.6439,-0.6589,-0.6745,-0.6942,-0.7241,-0.749,-0.7643,-0.7842,-0.7988,-0.7988,-0.7988,-0.7988,-0.7988,-0.7988,-0.7988,-0.7988,-0.7988,-0.7988,-0.7988,-0.7988,-0.7988,-0.7988,-0.7988,-0.7988,-0.7988,-0.7988,-0.7988,-0.7988,-0.7988,-0.7988,-0.7988,-0.7988,-0.7988,-0.8088,-0.8237,-0.8432,-0.868,-0.8935,-0.9232,-0.9476,-0.9677,-0.9677,-1.04,-1.1268,-1.2296,-1.3167,-1.404,-1.5003,-1.5588,-1.5683,-1.5825,-1.5825,-1.5825,-1.5825,-1.5825,-1.5825,-1.5825,-1.5825,-1.5825,-1.5825,-1.5825,-1.5825,-1.5825,-1.5825,-1.5825,-1.5825,-1.5818,-1.5765,-1.5671,-1.5565,-1.5357,-1.5084,-1.4643,-1.4342,-1.4168,-1.4088,-1.4088,-1.4088,-1.4088,-1.4088,-1.4088,0.0412,0.0353,0.0118,0.0176,0.0353,0.0117,0.0,0.0,0.0,0.0,0.0,0.0,0.0,0.0,0.0,0.0,0.0,0.0,0.0,0.0,0.0,0.0,0.0,0.0,0.0,0.0,0.0,0.0,0.0,-0.1413,-0.2922,-0.4481,-0.5737,-0.6287,-0.6437,-0.6439,-0.6589,-0.6789,-0.6992,-0.7291,-0.7494,-0.7793,-0.7942,-0.7992,-0.7988,-0.7988,-0.7988,-0.7988,-0.7988,-0.7988,-0.7988,-0.7988,-0.7988,-0.7988,-0.7988,-0.7988,-0.7988,-0.7988,-0.7988,-0.7988,-0.7988,-0.7988,-0.7988,-0.7988,-0.7988,-0.7988,-0.7988,-0.8038,-0.8187,-0.8333,-0.8485,-0.8832,-0.9183,-0.9426,-0.9727,-1.0256,-1.1028,-1.1999,-1.3076,-1.4046,-1.4956,-1.5635,-1.573,-1.5825,-1.5825,-1.5825,-1.5825,-1.5825,-1.5825,-1.5825,-1.5825,-1.5825,-1.5825,-1.5825,-1.5825,-1.5825,-1.5825,-1.5825,-1.5825,-1.5825,-1.5825,-1.5825,-1.5758,-1.5651,-1.5491,-1.519,-1.477,-1.4416,-1.4128,-1.4088,-1.4088,-1.4088,-1.4088,-1.4088,-1.4088,0.0814,0.0456,0.0576,0.0575,0.0398,0.0341,0.017,0.0,0.0,0.0,0.0,0.0,0.0,0.0,0.0,0.0,0.0,0.0,0.0,0.0,0.0,0.0,0.0,0.0,0.0,0.0,0.0,0.0,0.0,-0.1664,-0.3173,-0.4734,-0.5687,-0.6187,-0.6337,-0.6387,-0.6489,-0.6589,-0.6842,-0.7042,-0.7344,-0.7593,-0.7743,-0.7889,-0.7988,-0.7988,-0.7988,-0.7988,-0.7988,-0.7988,-0.7988,-0.7988,-0.7988,-0.7988,-0.7988,-0.7988,-0.7988,-0.7988,-0.7988,-0.7988,-0.7988,-0.7988,-0.7988,-0.7988,-0.7988,-0.7988,-0.7988,-0.8038,-0.8088,-0.8237,-0.8482,-0.8779,-0.913,-0.9381,-0.9821,-1.0596,-1.1463,-1.2484,-1.3559,-1.4484,-1.5397,-1.573,-1.5778,-1.5825,-1.5825,-1.5825,-1.5825,-1.5825,-1.5825,-1.5825,-1.5825,-1.5825,-1.5825,-1.5825,-1.5825,-1.5825,-1.5825,-1.5825,-1.5825,-1.5825,-1.5825,-1.5825,-1.5825,-1.5705,-1.5491,-1.5237,-1.4975,-1.462,-1.4202,-1.4108,-1.4095,-1.4088,-1.4088,-1.4088,-1.4088,0.1143,0.0787,0.085,0.0792,0.0617,0.0673,0.0561,0.0168,0.0056,0.0,0.0,0.0,0.0,0.0,0.0,0.0,0.0,0.0,0.0,0.0,0.0,0.0,0.0,0.0,0.0,0.0,0.0,0.0,0.0,-0.1563,-0.3073,-0.4079,-0.5233,-0.5636,-0.5837,-0.6087,-0.6387,-0.6539,-0.6692,-0.6842,-0.7095,-0.7394,-0.7643,-0.7842,-0.7939,-0.7988,-0.7988,-0.7988,-0.7988,-0.7988,-0.7988,-0.7988,-0.7988,-0.7988,-0.7988,-0.7988,-0.7988,-0.7988,-0.7988,-0.7988,-0.7988,-0.7988,-0.7988,-0.7988,-0.7988,-0.7988,-0.7988,-0.8038,-0.8038,-0.8137,-0.8482,-0.8775,-0.9076,-0.9381,-1.0109,-1.0837,-1.1858,-1.2926,-1.3848,-1.4771,-1.535,-1.5683,-1.5825,-1.5825,-1.5825,-1.5825,-1.5825,-1.5825,-1.5825,-1.5825,-1.5825,-1.5825,-1.5825,-1.5825,-1.5825,-1.5825,-1.5825,-1.5825,-1.5825,-1.5825,-1.5825,-1.5825,-1.5825,-1.5671,-1.5464,-1.5251,-1.5129,-1.4649,-1.4302,-1.4229,-1.4142,-1.4088,-1.4088,-1.4088,-1.4088,0.1346,0.1234,0.1065,0.0954,0.1009,0.1177,0.0953,0.0448,0.0168,0.0,0.0,0.0,0.0,0.0,0.0,0.0,0.0,0.0,0.0,0.0,0.0,0.0,0.0,0.0,0.0,0.0,0.0,0.0,0.0,-0.1261,-0.2368,-0.3122,-0.4128,-0.4682,-0.4782,-0.5586,-0.5937,-0.6037,-0.6389,-0.6742,-0.6945,-0.7244,-0.7593,-0.7646,-0.7842,-0.7988,-0.7988,-0.7988,-0.7988,-0.7988,-0.7988,-0.7988,-0.7988,-0.7988,-0.7988,-0.7988,-0.7988,-0.7988,-0.7988,-0.7988,-0.7988,-0.7988,-0.7988,-0.7988,-0.7988,-0.7988,-0.7988,-0.8038,-0.8088,-0.8287,-0.8581,-0.8829,-0.913,-0.9525,-1.0158,-1.0886,-1.1755,-1.292,-1.4136,-1.4962,-1.554,-1.5825,-1.5825,-1.5825,-1.5825,-1.5825,-1.5825,-1.5825,-1.5825,-1.5825,-1.5825,-1.5825,-1.5825,-1.5825,-1.5825,-1.5825,-1.5825,-1.5825,-1.5825,-1.5825,-1.5825,-1.5825,-1.5825,-1.5678,-1.5524,-1.5438,-1.5237,-1.4783,-1.4456,-1.4389,-1.4282,-1.4128,-1.4088,-1.4088,-1.4088,0.1514,0.129,0.1234,0.1346,0.1514,0.1346,0.1234,0.1065,0.0504,0.0224,0.0,0.0,0.0,0.0,0.0,0.0,0.0,0.0,0.0,0.0,0.0,0.0,0.0,0.0,0.0,0.0,0.0,0.0,0.0,-0.0958,-0.1664,-0.2067,-0.3022,-0.3575,-0.3627,-0.463,-0.5183,-0.5436,-0.5987,-0.6492,-0.6795,-0.7092,-0.7338,-0.759,-0.7793,-0.7939,-0.7988,-0.7988,-0.7988,-0.7988,-0.7988,-0.7988,-0.7988,-0.7988,-0.7988,-0.7988,-0.7988,-0.7988,-0.7988,-0.7988,-0.7988,-0.7988,-0.7988,-0.7988,-0.7988,-0.7988,-0.8038,-0.8038,-0.8184,-0.8382,-0.868,-0.8931,-0.9229,-0.9669,-1.0158,-1.0837,-1.156,-1.2969,-1.4328,-1.501,-1.5588,-1.5825,-1.5825,-1.5825,-1.5825,-1.5825,-1.5825,-1.5825,-1.5825,-1.5825,-1.5825,-1.5825,-1.5825,-1.5825,-1.5825,-1.5825,-1.5825,-1.5825,-1.5825,-1.5825,-1.5825,-1.5825,-1.5818,-1.5738,-1.5618,-1.5545,-1.5331,-1.4877,-1.4616,-1.4569,-1.4376,-1.4208,-1.4108,-1.4088,-1.4088,0.1683,0.1514,0.1514,0.1627,0.1739,0.157,0.1458,0.1234,0.0953,0.0561,0.0168,0.0,0.0,0.0,0.0,0.0,0.0,0.0,0.0,0.0,0.0,0.0,0.0,0.0,0.0,0.0,0.0,0.0,0.0,-0.0404,-0.0858,-0.111,-0.1915,-0.2519,-0.262,-0.3475,-0.4331,-0.4832,-0.5434,-0.5987,-0.6492,-0.6889,-0.7138,-0.7391,-0.764,-0.7839,-0.7988,-0.7988,-0.7988,-0.7988,-0.7988,-0.7988,-0.7988,-0.7988,-0.7988,-0.7988,-0.7988,-0.7988,-0.7988,-0.7988,-0.7988,-0.7988,-0.7988,-0.7988,-0.7988,-0.7988,-0.7988,-0.8038,-0.8038,-0.8237,-0.863,-0.8928,-0.9179,-0.9624,-0.9916,-1.04,-1.1614,-1.3022,-1.3998,-1.4634,-1.5255,-1.5825,-1.5825,-1.5825,-1.5825,-1.5825,-1.5825,-1.5825,-1.5825,-1.5825,-1.5825,-1.5825,-1.5825,-1.5825,-1.5825,-1.5825,-1.5825,-1.5825,-1.5825,-1.5825,-1.5825,-1.5825,-1.5805,-1.5758,-1.5718,-1.5678,-1.5398,-1.5057,-1.4856,-1.4803,-1.4549,-1.4275,-1.4188,-1.4115,-1.4102,0.1795,0.1795,0.1795,0.1795,0.1795,0.1795,0.1627,0.1401,0.1287,0.1005,0.0556,0.0219,0.0055,0.0,0.0,0.0,0.0,0.0,0.0,0.0,0.0,0.0,0.0,0.0,0.0,0.0,0.0,0.0,0.0,0.0,0.0,0.0,0.0,-0.1412,-0.1714,-0.2418,-0.3324,-0.3977,-0.4632,-0.5336,-0.5937,-0.6592,-0.6892,-0.7191,-0.7441,-0.7693,-0.7892,-0.7988,-0.7988,-0.7988,-0.7988,-0.7988,-0.7988,-0.7988,-0.7988,-0.7988,-0.7988,-0.7988,-0.7988,-0.7988,-0.7988,-0.7988,-0.7988,-0.7988,-0.7988,-0.7988,-0.7988,-0.7988,-0.8038,-0.8187,-0.8581,-0.8928,-0.9229,-0.9426,-0.9719,-1.006,-1.1468,-1.278,-1.3414,-1.4052,-1.4873,-1.554,-1.5825,-1.5825,-1.5825,-1.5825,-1.5825,-1.5825,-1.5825,-1.5825,-1.5825,-1.5825,-1.5825,-1.5825,-1.5825,-1.5825,-1.5825,-1.5825,-1.5825,-1.5825,-1.5825,-1.5825,-1.5825,-1.5825,-1.5785,-1.5752,-1.5665,-1.5411,-1.5244,-1.5082,-1.4669,-1.4382,-1.4315,-1.4242,-1.4155,0.1795,0.1795,0.1795,0.1794,0.1793,0.1794,0.1739,0.1678,0.1436,0.1209,0.0982,0.0534,0.0,0.0,0.0,0.0,0.0,0.0,0.0,0.0,0.0,0.0,0.0,0.0,0.0,0.0,0.0,0.0,0.0,0.0,0.0,0.0,0.0,0.0,-0.0555,-0.1311,-0.2116,-0.2871,-0.3877,-0.4732,-0.5336,-0.5989,-0.6695,-0.7045,-0.7347,-0.7547,-0.7743,-0.7892,-0.7939,-0.7988,-0.7988,-0.7988,-0.7988,-0.7988,-0.7988,-0.7988,-0.7988,-0.7988,-0.7988,-0.7988,-0.7988,-0.7988,-0.7988,-0.7988,-0.7988,-0.7988,-0.7988,-0.8038,-0.8088,-0.8233,-0.8581,-0.8931,-0.9232,-0.9331,-0.9575,-1.0109,-1.113,-1.1809,-1.2393,-1.3372,-1.4394,-1.5112,-1.5825,-1.5825,-1.5825,-1.5825,-1.5825,-1.5825,-1.5825,-1.5825,-1.5825,-1.5825,-1.5825,-1.5825,-1.5825,-1.5825,-1.5825,-1.5825,-1.5825,-1.5825,-1.5825,-1.5825,-1.5825,-1.5825,-1.5825,-1.5805,-1.5705,-1.5631,-1.5458,-1.5204,-1.4783,-1.4496,-1.4442,-1.4335,-1.4235]}]]